[[{"header":{"parameterUnit":"m.s-1","parameterCategory":1,"la1":30.6,"la2":28.766,"lo1":-90.7593,"lo2":-88.6598,"dy":0.0162,"dx":0.0183,"nx":116,"ny":114,"refTime":"2023-03-07T18:00:00:Z","depth":0,"parameterNumber":2,"parameterNumberName":"U-component_of_WINDS"},"data":[0.0,0.0,0.0,0.0,0.0,0.0,0.0,0.0,0.0,0.0,0.0,0.0,0.0,0.0,0.0,0.0,0.0,0.0,0.0,0.0,0.0,0.0,0.0,0.0,0.0,0.0,0.0,0.0,0.0,0.0,0.0,0.0,0.0,0.0,0.0,0.0,0.0,0.0,0.0,0.0,0.0,0.0,0.0,0.0,0.0,0.0,0.0,0.0,0.0,0.0,0.0,0.0,0.0,0.0,0.0,0.0,0.0,0.0,0.0,0.0,0.0,0.0,0.0,0.0,0.0,0.0,0.0,0.0,0.0,0.0,0.0,0.0,0.0,0.0,0.0,0.0,0.0,0.0,0.0,0.0,0.0,0.0,0.0,0.0,0.0,0.0,0.0,0.0,0.0,0.0,0.0,0.0,0.0,0.0,0.0,0.0,0.0,0.0,0.0,0.0,0.0,0.0,0.0,0.0,0.0,0.0,0.0,0.0,0.0,0.0,0.0,0.0,0.0,0.0,0.0,0.0,0.0,0.0,0.0,0.0,0.0,0.0,0.0,0.0,0.0,0.0,0.0,0.0,0.0,0.0,0.0,0.0,0.0,0.0,0.0,0.0,0.0,0.0,0.0,0.0,0.0,0.0,0.0,0.0,0.0,0.0,0.0,0.0,0.0,0.0,0.0,0.0,0.0,0.0,0.0,0.0,0.0,0.0,0.0,0.0,0.0,0.0,0.0,0.0,0.0,0.0,0.0,0.0,0.0,0.0,0.0,0.0,0.0,0.0,0.0,0.0,0.0,0.0,0.0,0.0,0.0,0.0,0.0,0.0,0.0,0.0,0.0,0.0,0.0,0.0,0.0,0.0,0.0,0.0,0.0,0.0,0.0,0.0,0.0,0.0,0.0,0.0,0.0,0.0,0.0,0.0,0.0,0.0,0.0,0.0,0.0,0.0,0.0,0.0,0.0,0.0,0.0,0.0,0.0,0.0,0.0,0.0,0.0,0.0,0.0,0.0,0.0,0.0,0.0,0.0,0.0,0.0,0.0,0.0,0.0,0.0,0.0,0.0,0.0,0.0,0.0,0.0,0.0,0.0,0.0,0.0,0.0,0.0,0.0,0.0,0.0,0.0,0.0,0.0,0.0,0.0,0.0,0.0,0.0,0.0,0.0,0.0,0.0,0.0,0.0,0.0,0.0,0.0,0.0,0.0,0.0,0.0,0.0,0.0,0.0,0.0,0.0,0.0,0.0,0.0,0.0,0.0,0.0,0.0,0.0,0.0,0.0,0.0,0.0,0.0,0.0,0.0,0.0,0.0,0.0,0.0,0.0,0.0,0.0,0.0,0.0,0.0,0.0,0.0,0.0,0.0,0.0,0.0,0.0,0.0,0.0,0.0,0.0,0.0,0.0,0.0,0.0,0.0,0.0,0.0,0.0,0.0,0.0,0.0,0.0,0.0,0.0,0.0,0.0,0.0,0.0,0.0,0.0,0.0,0.0,0.0,0.0,0.0,0.0,0.0,0.0,0.0,0.0,0.0,0.0,0.0,0.0,0.0,0.0,0.0,0.0,0.0,0.0,0.0,0.0,0.0,0.0,0.0,0.0,0.0,0.0,0.0,0.0,0.0,0.0,0.0,0.0,0.0,0.0,0.0,0.0,0.0,0.0,0.0,0.0,0.0,0.0,0.0,0.0,0.0,0.0,0.0,0.0,0.0,0.0,0.0,0.0,0.0,0.0,0.0,0.0,0.0,0.0,0.0,0.0,0.0,0.0,0.0,0.0,0.0,0.0,0.0,0.0,0.0,0.0,0.0,0.0,0.0,0.0,0.0,0.0,0.0,0.0,0.0,0.0,0.0,0.0,0.0,0.0,0.0,0.0,0.0,0.0,0.0,0.0,0.0,0.0,0.0,0.0,0.0,0.0,0.0,0.0,0.0,0.0,0.0,0.0,0.0,0.0,0.0,0.0,0.0,0.0,0.0,0.0,0.0,0.0,0.0,0.0,0.0,0.0,0.0,0.0,0.0,0.0,0.0,0.0,0.0,0.0,0.0,0.0,0.0,0.0,0.0,0.0,0.0,0.0,0.0,0.0,0.0,0.0,0.0,0.0,0.0,0.0,0.0,0.0,0.0,0.0,0.0,0.0,0.0,0.0,0.0,0.0,0.0,0.0,0.0,0.0,0.0,0.0,0.0,0.0,0.0,0.0,0.0,0.0,0.0,0.0,0.0,0.0,0.0,0.0,0.0,0.0,0.0,0.0,0.0,0.0,0.0,0.0,0.0,0.0,0.0,0.0,0.0,0.0,0.0,0.0,0.0,0.0,0.0,0.0,0.0,0.0,0.0,0.0,0.0,0.0,0.0,0.0,0.0,0.0,0.0,0.0,0.0,0.0,0.0,0.0,0.0,0.0,0.0,0.0,0.0,0.0,0.0,0.0,0.0,0.0,0.0,0.0,0.0,0.0,0.0,0.0,0.0,0.0,0.0,0.0,0.0,0.0,0.0,0.0,0.0,0.0,0.0,0.0,0.0,0.0,0.0,0.0,0.0,0.0,0.0,0.0,0.0,0.0,0.0,0.0,0.0,0.0,0.0,0.0,0.0,0.0,0.0,0.0,0.0,0.0,0.0,0.0,0.0,0.0,0.0,0.0,0.0,0.0,0.0,0.0,0.0,0.0,0.0,0.0,0.0,0.0,0.0,0.0,0.0,0.0,0.0,0.0,0.0,0.0,0.0,0.0,0.0,0.0,0.0,0.0,0.0,0.0,0.0,0.0,0.0,0.0,0.0,0.0,0.0,0.0,0.0,0.0,0.0,0.0,0.0,0.0,0.0,0.0,0.0,0.0,0.0,0.0,0.0,0.0,0.0,0.0,0.0,0.0,0.0,0.0,0.0,0.0,0.0,0.0,0.0,0.0,0.0,0.0,0.0,0.0,0.0,0.0,0.0,0.0,0.0,0.0,0.0,0.0,0.0,0.0,0.0,0.0,0.0,0.0,0.0,0.0,0.0,0.0,0.0,0.0,0.0,0.0,0.0,0.0,0.0,0.0,0.0,0.0,0.0,0.0,0.0,0.0,0.0,0.0,0.0,0.0,0.0,0.0,0.0,0.0,0.0,0.0,0.0,0.0,0.0,0.0,0.0,0.0,0.0,0.0,0.0,0.0,0.0,0.0,0.0,0.0,0.0,0.0,0.0,0.0,0.0,0.0,0.0,0.0,0.0,0.0,0.0,0.0,0.0,0.0,0.0,0.0,0.0,0.0,0.0,0.0,0.0,0.0,0.0,0.0,0.0,0.0,0.0,0.0,0.0,0.0,0.0,0.0,0.0,0.0,0.0,0.0,0.0,0.0,0.0,0.0,0.0,0.0,0.0,0.0,0.0,0.0,0.0,0.0,0.0,0.0,0.0,0.0,0.0,0.0,0.0,0.0,0.0,0.0,0.0,0.0,0.0,0.0,0.0,0.0,0.0,0.0,0.0,0.0,0.0,0.0,0.0,0.0,0.0,0.0,0.0,0.0,0.0,0.0,0.0,0.0,0.0,0.0,0.0,0.0,0.0,0.0,0.0,0.0,0.0,0.0,0.0,0.0,0.0,0.0,0.0,0.0,0.0,0.0,0.0,0.0,0.0,0.0,0.0,0.0,0.0,0.0,0.0,0.0,0.0,0.0,0.0,0.0,0.0,0.0,0.0,0.0,0.0,0.0,0.0,0.0,0.0,0.0,0.0,0.0,0.0,0.0,0.0,0.0,0.0,0.0,0.0,0.0,0.0,0.0,0.0,0.0,0.0,0.0,0.0,0.0,0.0,0.0,0.0,0.0,0.0,0.0,0.0,0.0,0.0,0.0,0.0,0.0,0.0,0.0,0.0,0.0,0.0,0.0,0.0,0.0,0.0,0.0,0.0,0.0,0.0,0.0,0.0,0.0,0.0,0.0,0.0,0.0,0.0,0.0,0.0,0.0,0.0,0.0,0.0,0.0,0.0,0.0,0.0,0.0,0.0,0.0,0.0,0.0,0.0,0.0,0.0,0.0,0.0,0.0,0.0,0.0,0.0,0.0,0.0,0.0,0.0,0.0,0.0,0.0,0.0,0.0,0.0,0.0,0.0,0.0,0.0,0.0,0.0,0.0,0.0,0.0,0.0,0.0,0.0,0.0,0.0,0.0,0.0,0.0,0.0,0.0,0.0,0.0,0.0,0.0,0.0,0.0,0.0,0.0,0.0,0.0,0.0,0.0,0.0,0.0,0.0,0.0,0.0,0.0,0.0,0.0,0.0,0.0,0.0,0.0,0.0,0.0,0.0,0.0,0.0,0.0,0.0,0.0,0.0,0.0,0.0,0.0,0.0,0.0,0.0,0.0,0.0,0.0,0.0,0.0,0.0,0.0,0.0,0.0,0.0,0.0,0.0,0.0,0.0,0.0,0.0,0.0,0.0,0.0,0.0,0.0,0.0,0.0,0.0,0.0,0.0,0.0,0.0,0.0,0.0,0.0,0.0,0.0,0.0,0.0,0.0,0.0,0.0,0.0,0.0,0.0,0.0,0.0,0.0,0.0,0.0,0.0,0.0,0.0,0.0,0.0,0.0,0.0,0.0,0.0,0.0,0.0,0.0,0.0,0.0,0.0,0.0,0.0,0.0,0.0,0.0,0.0,0.0,0.0,0.0,0.0,0.0,0.0,0.0,0.0,0.0,0.0,0.0,0.0,0.0,0.0,0.0,0.0,0.0,0.0,0.0,0.0,0.0,0.0,0.0,0.0,0.0,0.0,0.0,0.0,0.0,0.0,0.0,0.0,0.0,0.0,0.0,0.0,0.0,0.0,0.0,0.0,0.0,0.0,0.0,0.0,0.0,0.0,0.0,0.0,0.0,0.0,0.0,0.0,0.0,0.0,0.0,0.0,0.0,0.0,0.0,0.0,0.0,0.0,0.0,0.0,0.0,0.0,0.0,0.0,0.0,0.0,0.0,0.0,0.0,0.0,0.0,0.0,0.0,0.0,0.0,0.0,0.0,0.0,0.0,0.0,0.0,0.0,0.0,0.0,0.0,0.0,0.0,0.0,0.0,0.0,0.0,0.0,0.0,0.0,0.0,0.0,0.0,0.0,0.0,0.0,0.0,0.0,0.0,0.0,0.0,0.0,0.0,0.0,0.0,0.0,0.0,0.0,0.0,0.0,0.0,0.0,0.0,0.0,0.0,0.0,0.0,0.0,0.0,0.0,0.0,0.0,0.0,0.0,0.0,0.0,0.0,0.0,0.0,0.0,0.0,0.0,0.0,0.0,0.0,0.0,0.0,0.0,0.0,0.0,0.0,0.0,0.0,0.0,0.0,0.0,0.0,0.0,0.0,0.0,0.0,0.0,0.0,0.0,0.0,0.0,0.0,0.0,0.0,0.0,0.0,0.0,0.0,0.0,0.0,0.0,0.0,0.0,0.0,0.0,0.0,0.0,0.0,0.0,0.0,0.0,0.0,0.0,0.0,0.0,0.0,0.0,0.0,0.0,0.0,0.0,0.0,0.0,0.0,0.0,0.0,0.0,0.0,0.0,0.0,0.0,0.0,0.0,0.0,0.0,0.0,0.0,0.0,0.0,0.0,0.0,0.0,0.0,0.0,0.0,0.0,0.0,0.0,0.0,0.0,0.0,0.0,0.0,0.0,0.0,0.0,0.0,0.0,0.0,0.0,0.0,0.0,0.0,0.0,0.0,0.0,0.0,0.0,0.0,0.0,0.0,0.0,0.0,0.0,0.0,0.0,0.0,0.0,0.0,0.0,0.0,0.0,0.0,0.0,0.0,0.0,0.0,0.0,0.0,0.0,0.0,0.0,0.0,0.0,0.0,0.0,0.0,0.0,0.0,0.0,0.0,0.0,0.0,0.0,0.0,0.0,0.0,0.0,0.0,0.0,0.0,0.0,0.0,0.0,0.0,0.0,0.0,0.0,0.0,0.0,0.0,0.0,0.0,0.0,0.0,0.0,0.0,0.0,0.0,0.0,0.0,0.0,0.0,0.0,0.0,0.0,0.0,0.0,0.0,0.0,0.0,0.0,0.0,0.0,0.0,0.0,0.0,0.0,0.0,0.0,0.0,0.0,0.0,0.0,0.0,0.0,0.0,0.0,0.0,0.0,-3.0898,0.0,0.0,0.0,0.0,0.0,0.0,0.0,0.0,0.0,0.0,0.0,0.0,0.0,0.0,0.0,0.0,0.0,0.0,0.0,0.0,0.0,0.0,0.0,0.0,0.0,0.0,0.0,0.0,0.0,0.0,0.0,0.0,0.0,0.0,0.0,0.0,0.0,0.0,0.0,-3.5251,-3.5333,-3.5397,-3.5308,-3.5254,-3.5254,0.0,0.0,0.0,0.0,0.0,0.0,0.0,0.0,0.0,0.0,0.0,0.0,0.0,0.0,0.0,0.0,0.0,0.0,0.0,0.0,0.0,0.0,0.0,0.0,0.0,0.0,0.0,0.0,0.0,0.0,0.0,0.0,0.0,0.0,0.0,0.0,0.0,0.0,0.0,0.0,0.0,0.0,0.0,0.0,0.0,0.0,0.0,0.0,0.0,0.0,0.0,0.0,0.0,0.0,0.0,0.0,0.0,0.0,0.0,0.0,0.0,0.0,0.0,0.0,0.0,0.0,0.0,0.0,0.0,0.0,0.0,-3.0898,0.0,0.0,0.0,0.0,0.0,0.0,0.0,0.0,0.0,0.0,0.0,0.0,0.0,0.0,0.0,0.0,0.0,0.0,0.0,0.0,0.0,0.0,0.0,0.0,0.0,0.0,0.0,0.0,0.0,0.0,0.0,0.0,0.0,0.0,0.0,-3.5215,-3.5231,-3.5231,-3.5364,-3.5489,-3.5602,-3.5357,-3.5278,-3.5278,-3.5293,0.0,0.0,0.0,0.0,0.0,0.0,0.0,0.0,0.0,0.0,0.0,0.0,0.0,0.0,0.0,0.0,0.0,0.0,0.0,0.0,0.0,0.0,0.0,0.0,0.0,0.0,0.0,0.0,0.0,0.0,0.0,0.0,0.0,0.0,0.0,0.0,0.0,0.0,0.0,0.0,0.0,0.0,0.0,0.0,0.0,0.0,0.0,0.0,0.0,0.0,0.0,0.0,0.0,0.0,0.0,0.0,0.0,0.0,0.0,0.0,0.0,0.0,0.0,-3.3398,-3.3398,-3.3398,-3.3398,-3.3398,-3.332,-3.1934,-3.1348,-3.1348,0.0,0.0,0.0,0.0,0.0,0.0,0.0,0.0,0.0,0.0,0.0,0.0,0.0,0.0,0.0,0.0,0.0,0.0,0.0,0.0,0.0,0.0,0.0,0.0,0.0,0.0,0.0,0.0,0.0,0.0,0.0,0.0,0.0,-3.5209,-3.5319,-3.5371,-3.5371,-3.5507,-3.5571,-3.5607,-3.5554,-3.5562,-3.5531,-3.5304,-3.5218,-3.5218,0.0,0.0,0.0,0.0,0.0,0.0,0.0,0.0,0.0,0.0,0.0,0.0,0.0,0.0,0.0,0.0,0.0,0.0,0.0,0.0,0.0,0.0,0.0,0.0,0.0,0.0,0.0,0.0,0.0,0.0,0.0,0.0,0.0,0.0,0.0,0.0,0.0,0.0,0.0,0.0,0.0,-3.285,-3.285,0.0,0.0,0.0,0.0,0.0,0.0,0.0,0.0,0.0,0.0,0.0,0.0,0.0,-3.3404,-3.3392,-3.3393,-3.3395,-3.3397,-3.3397,-3.3398,-3.3398,-3.3398,-3.3398,-3.3398,-3.3164,0.0,-3.3066,-3.3066,0.0,0.0,0.0,0.0,0.0,0.0,0.0,0.0,0.0,0.0,0.0,0.0,0.0,0.0,0.0,0.0,0.0,0.0,0.0,0.0,0.0,0.0,0.0,0.0,0.0,0.0,0.0,0.0,0.0,0.0,0.0,-3.5174,-3.5262,-3.5304,-3.5411,-3.556,-3.5548,-3.5877,-3.6495,-3.6386,-3.6346,-3.6377,-3.6227,-3.5887,-3.5438,-3.547,0.0,0.0,0.0,0.0,0.0,0.0,0.0,0.0,0.0,0.0,0.0,0.0,0.0,0.0,0.0,0.0,0.0,0.0,0.0,0.0,0.0,0.0,0.0,0.0,0.0,0.0,0.0,0.0,0.0,0.0,0.0,0.0,0.0,0.0,0.0,0.0,0.0,0.0,0.0,-3.2969,-3.3209,-3.3248,-3.3219,-3.3213,0.0,0.0,0.0,0.0,0.0,0.0,0.0,0.0,0.0,-3.4851,-3.4852,-3.4853,-3.4855,-3.4857,-3.486,-3.4862,-3.4862,-3.4863,-3.4863,-3.4863,-3.4863,-3.4863,-3.4863,-3.4863,-3.4785,-3.3809,-3.3398,-3.3395,0.0,0.0,0.0,0.0,-3.3405,-3.3402,0.0,0.0,0.0,0.0,0.0,0.0,0.0,0.0,0.0,0.0,0.0,0.0,0.0,0.0,0.0,-3.4908,0.0,0.0,0.0,0.0,0.0,0.0,0.0,-3.5243,-3.5318,-3.5355,-3.5605,-3.6056,-3.5968,-3.6469,-3.7523,-3.735,-3.7303,-3.737,-3.7308,-3.6662,-3.5607,-3.5593,-3.5548,-3.5476,0.0,0.0,0.0,0.0,0.0,0.0,0.0,0.0,0.0,0.0,0.0,0.0,0.0,0.0,0.0,0.0,0.0,0.0,0.0,0.0,0.0,0.0,0.0,0.0,0.0,0.0,0.0,0.0,0.0,0.0,0.0,0.0,0.0,0.0,0.0,0.0,0.0,-3.3791,-3.3924,-3.3982,-3.3955,-3.3947,0.0,0.0,0.0,0.0,0.0,0.0,-3.5962,-3.6001,-3.6001,-3.6001,-3.6005,-3.6103,-3.6334,-3.6339,-3.644,-3.6677,-3.6678,-3.6679,-3.668,-3.668,-3.668,-3.668,-3.668,-3.668,-3.6523,-3.4785,-3.4062,-3.4061,-3.4061,-3.406,-3.4078,-3.4077,-3.4074,-3.407,0.0,0.0,0.0,0.0,0.0,0.0,0.0,0.0,0.0,0.0,0.0,0.0,0.0,0.0,-3.4908,-3.4908,-3.4908,-3.4927,0.0,0.0,0.0,-3.5296,-3.5404,-3.5451,-3.5398,-3.5513,-3.6067,-3.7026,-3.702,-3.751,-3.8438,-3.8299,-3.8303,-3.8416,-3.8357,-3.7301,-3.5607,-3.5595,-3.5605,-3.5605,-3.566,0.0,0.0,0.0,0.0,0.0,0.0,0.0,0.0,0.0,0.0,0.0,0.0,0.0,0.0,0.0,0.0,0.0,0.0,0.0,0.0,0.0,0.0,0.0,0.0,0.0,0.0,0.0,0.0,0.0,0.0,0.0,0.0,0.0,0.0,0.0,0.0,0.0,0.0,-3.5854,-3.5853,0.0,0.0,0.0,0.0,-3.5934,-3.5934,-3.5953,-3.5992,-3.5992,-3.5992,-3.5992,-3.5994,-3.6404,-3.7223,-3.723,-3.7646,-3.8471,-3.8473,-3.8476,-3.8476,-3.8476,-3.8476,-3.8476,-3.8476,-3.8476,-3.832,-3.6582,-3.5879,-3.5877,-3.5877,-3.5876,-3.5873,-3.5869,-3.5868,-3.5867,0.0,0.0,0.0,0.0,0.0,0.0,0.0,0.0,0.0,0.0,0.0,0.0,0.0,-3.4908,-3.4908,-3.4908,-3.4908,-3.4955,-3.5063,0.0,0.0,-3.5304,-3.536,-3.5397,-3.5451,-3.6157,-3.6673,-3.704,-3.7603,-3.833,-3.9206,-3.9202,-3.9237,-3.9263,-3.9292,-3.8617,-3.7432,-3.6876,-3.6262,-3.5668,-3.5774,-3.5811,0.0,0.0,0.0,0.0,0.0,0.0,0.0,0.0,0.0,0.0,0.0,0.0,0.0,0.0,0.0,0.0,0.0,0.0,0.0,0.0,0.0,0.0,0.0,0.0,0.0,0.0,0.0,0.0,0.0,0.0,0.0,0.0,0.0,0.0,0.0,0.0,0.0,-3.5992,-3.5992,0.0,-3.5992,-3.5992,-3.5992,-3.5992,-3.5992,-3.6246,-3.6813,-3.6833,-3.7087,-3.7653,-3.7672,-3.783,-3.8123,-3.8144,-3.8285,-3.8603,-3.8607,-3.8591,-3.8593,-3.8594,-3.8594,-3.8594,-3.8594,-3.8594,-3.8555,-3.793,-3.7344,-3.6777,-3.6211,-3.5996,-3.5995,-3.5995,-3.5994,-3.5992,0.0,0.0,0.0,0.0,0.0,0.0,0.0,0.0,0.0,0.0,0.0,-3.4908,-3.4908,-3.4908,-3.4908,-3.4908,-3.4936,-3.5,-3.5096,0.0,0.0,-3.5367,-3.5409,-3.5611,-3.5994,-3.6649,-3.7278,-3.788,-3.8421,-3.9305,-4.0475,-4.0475,-4.0658,-4.0972,-4.1027,-4.0422,-3.9337,-3.8753,-3.7618,-3.6215,-3.6298,-3.6142,-3.5859,0.0,0.0,0.0,0.0,0.0,0.0,0.0,0.0,0.0,0.0,0.0,0.0,0.0,0.0,0.0,0.0,0.0,0.0,0.0,0.0,0.0,0.0,0.0,0.0,0.0,0.0,0.0,0.0,0.0,0.0,0.0,0.0,0.0,0.0,0.0,-3.5992,-3.5992,-3.5992,-3.6129,-3.6402,-3.6441,-3.6558,-3.6852,-3.6872,-3.7126,-3.7711,-3.7731,-3.8006,-3.8572,-3.8591,-3.8728,-3.9001,-3.9001,-3.914,-3.944,-3.9445,-3.9448,-3.9432,-3.9472,-3.9473,-3.9473,-3.9473,-3.9473,-3.9453,-3.916,-3.8691,-3.8086,-3.7226,-3.6875,-3.6836,-3.6543,-3.6445,-3.6404,0.0,0.0,0.0,0.0,0.0,0.0,0.0,0.0,0.0,0.0,-3.4908,-3.4908,-3.4908,-3.4908,-3.4889,-3.4917,-3.5027,-3.5105,-3.5113,-3.5367,0.0,-3.5515,-3.562,-3.6118,-3.6978,-3.6969,-3.7807,-3.9591,-3.9569,-4.0469,-4.2194,-4.209,-4.2557,-4.3493,-4.3491,-4.2648,-4.1185,-4.1146,-3.9669,-3.7311,-3.7227,-3.6687,-3.5946,0.0,0.0,0.0,0.0,0.0,0.0,0.0,0.0,0.0,0.0,0.0,0.0,0.0,0.0,0.0,0.0,0.0,0.0,0.0,0.0,0.0,0.0,0.0,0.0,0.0,0.0,0.0,0.0,0.0,0.0,0.0,0.0,0.0,-3.5992,-3.6012,-3.6031,-3.6031,-3.6051,-3.6402,-3.7262,-3.734,-3.7692,-3.8533,-3.8591,-3.8611,-3.863,-3.863,-3.865,-3.8689,-3.8708,-3.9099,-3.9878,-3.9917,-4.0349,-4.1176,-4.1182,-4.1187,-4.1189,-4.125,-4.1289,-4.1289,-4.1289,-4.1269,-4.1172,-4.0332,-3.9961,-3.9844,-3.8945,-3.8594,-3.8496,-3.7656,-3.7343,-3.7225,0.0,0.0,0.0,0.0,0.0,0.0,0.0,0.0,0.0,0.0,-3.4908,-3.4908,-3.4908,-3.4908,-3.4936,-3.5035,-3.5079,-3.5187,-3.5388,0.0,0.0,-3.5645,-3.5673,-3.6102,-3.6906,-3.7528,-3.8398,-3.953,-4.0725,-4.1564,-4.2065,-4.271,-4.3194,-4.351,-4.349,-4.328,-4.2861,-4.2237,-4.1224,-3.9864,-3.7957,-3.6995,-3.6639,0.0,0.0,0.0,0.0,0.0,0.0,0.0,0.0,0.0,0.0,0.0,0.0,0.0,0.0,0.0,0.0,0.0,0.0,0.0,0.0,0.0,0.0,0.0,0.0,0.0,0.0,0.0,0.0,0.0,0.0,0.0,0.0,-3.6716,-3.609,-3.6539,-3.6931,-3.6931,-3.7497,-3.7986,-3.822,-3.824,-3.8337,-3.8572,-3.8591,-3.8845,-3.9449,-3.9468,-3.9761,-4.0387,-4.103,-4.1459,-4.1674,-4.2318,-4.2749,-4.2985,-4.2992,-4.2997,-4.2982,-4.3006,-4.3007,-4.3008,-4.3008,-4.2656,-4.2051,-4.1816,-4.1367,-4.0684,-3.9199,-3.8594,-3.8574,-3.832,-3.8242,-3.8123,0.0,0.0,0.0,0.0,0.0,0.0,0.0,0.0,0.0,0.0,-3.4908,-3.4908,-3.4908,-3.4908,-3.4945,-3.5088,-3.5105,-3.5219,-3.5477,0.0,-3.5614,-3.5704,-3.6013,-3.6593,-3.7425,-3.8295,-3.934,-4.0545,-4.1525,-4.2376,-4.3092,-4.3647,-4.411,-4.4508,-4.454,-4.4373,-4.4067,-4.3598,-4.2672,-4.1357,-3.9559,-3.8358,-3.7545,-3.674,-3.6448,-3.6409,-3.6072,-3.5958,-3.596,-3.599,0.0,0.0,0.0,0.0,0.0,0.0,0.0,0.0,0.0,0.0,0.0,0.0,0.0,0.0,0.0,0.0,0.0,0.0,0.0,0.0,0.0,0.0,0.0,0.0,-3.697,-3.7243,-3.7106,-3.7536,-3.7849,-3.7849,-3.8298,-3.8728,-3.9079,-3.9099,-3.9411,-4.0132,-4.019,-4.0561,-4.1381,-4.1439,-4.1674,-4.2163,-4.2689,-4.2942,-4.2942,-4.345,-4.3705,-4.3705,-4.3692,-4.3698,-4.3703,-4.3708,-4.3691,0.0,-4.3691,-4.3418,-4.2949,-4.2949,-4.2676,0.0,0.0,0.0,0.0,0.0,-3.8906,-3.8534,0.0,0.0,0.0,0.0,0.0,0.0,0.0,0.0,0.0,0.0,0.0,-3.4908,-3.4908,-3.4908,-3.4954,-3.5113,-3.5122,-3.5235,0.0,0.0,-3.5742,-3.582,-3.6516,-3.7348,-3.8334,-3.9094,-4.0313,-4.2009,-4.2106,-4.2995,-4.4594,-4.469,-4.5144,-4.5892,-4.5975,-4.56,-4.493,-4.4915,-4.3938,-4.2354,-4.1551,-4.0188,-3.8526,-3.7678,-3.7292,-3.71,-3.6311,-3.5985,-3.5909,-3.5979,0.0,0.0,0.0,0.0,0.0,0.0,0.0,0.0,0.0,0.0,0.0,0.0,0.0,0.0,0.0,0.0,0.0,0.0,0.0,0.0,0.0,0.0,0.0,0.0,-3.7516,-3.7887,-3.8767,-3.8962,-3.8982,-3.8884,-3.8962,-3.9352,-4.0151,-4.0249,-4.0873,-4.2435,-4.2552,-4.2884,-4.3666,0.0,0.0,0.0,0.0,-4.384,-4.384,-4.3938,-4.3998,-4.3998,-4.3983,-4.399,-4.3996,-4.3981,-4.3983,-4.3984,-4.3984,-4.3945,-4.3848,-4.3848,-4.3789,-4.3535,-4.1953,-4.1289,-4.1113,-4.0332,-3.9551,-3.8887,0.0,0.0,0.0,0.0,0.0,0.0,0.0,0.0,0.0,-3.4908,-3.4908,-3.4908,-3.4908,-3.4908,-3.5,-3.5235,-3.5251,-3.5381,0.0,-3.5698,-3.5994,-3.6632,-3.6826,-3.7638,-3.921,-3.9404,-4.0313,-4.2009,-4.2705,-4.3576,-4.4613,-4.5258,-4.5686,-4.5892,-4.5975,-4.5935,-4.5806,-4.5168,-4.4692,-4.421,-4.2682,-4.0995,-3.9306,-3.8536,-3.7818,-3.7175,-3.7002,-3.6498,-3.5897,-3.5909,-3.5912,-3.5934,-3.5981,-3.6005,0.0,0.0,0.0,0.0,0.0,0.0,0.0,0.0,0.0,0.0,0.0,0.0,0.0,0.0,0.0,0.0,0.0,0.0,0.0,-3.8201,-3.8882,-3.9624,-4.0485,-4.1225,-4.14,-4.0699,-4.1244,-4.2006,-4.2864,-4.2942,-4.3099,-4.3411,-4.345,-4.3528,-4.3686,-4.3705,0.0,-4.3705,-4.4387,-4.4758,-4.4758,-4.5441,-4.5792,-4.5792,0.0,0.0,-4.5807,-4.5793,-4.5797,-4.58,-4.5801,-4.5391,-4.4746,-4.4746,-4.4336,-4.3594,-4.2578,-4.1777,-4.1172,-4.1016,-4.084,-4.0605,0.0,0.0,0.0,0.0,0.0,0.0,0.0,0.0,0.0,0.0,-3.4908,-3.4908,-3.4908,-3.4908,-3.4982,-3.5179,-3.5311,0.0,-3.5496,-3.5633,-3.6052,-3.6864,-3.7328,-3.816,-3.9462,-3.9926,-4.0971,-4.2647,-4.3092,-4.3943,-4.52,-4.5613,-4.5827,-4.5841,-4.5929,-4.5991,-4.6022,-4.5663,-4.5266,-4.4796,-4.3487,-4.2158,-4.0824,-3.9614,-3.8889,-3.8383,-3.7506,-3.6921,-3.6476,-3.6053,-3.5899,-3.5902,-3.5946,-3.5953,-3.596,0.0,0.0,0.0,0.0,0.0,0.0,0.0,0.0,0.0,0.0,0.0,0.0,0.0,0.0,-3.6774,0.0,0.0,-3.822,-3.9058,-3.9897,-4.0756,-4.1635,-4.2494,-4.2884,-4.2456,-4.2786,-4.3216,-4.3666,-4.3705,-4.3879,-4.4328,-4.4348,-4.4543,-4.4972,-4.4992,-4.4992,-4.4992,-4.5421,-4.5656,-4.5656,-4.6085,-4.63,-4.63,-4.63,-4.6305,-4.6293,-4.63,-4.6304,-4.6307,-4.6308,-4.6055,-4.5644,-4.5644,-4.5137,-4.4316,-4.3867,-4.293,-4.1797,-4.1797,-4.1543,-4.1133,0.0,0.0,0.0,0.0,0.0,0.0,0.0,0.0,0.0,0.0,-3.4908,-3.4908,-3.4908,-3.4908,-3.4945,0.0,0.0,-3.5423,-3.5333,-3.5534,-3.6035,-3.6864,-3.7729,-3.8605,-3.9481,-4.0352,-4.1622,-4.3305,-4.3305,-4.4156,-4.5807,-4.5807,-4.5807,-4.5807,-4.5861,-4.5935,-4.5986,-4.6071,-4.5632,-4.4805,-4.3952,-4.3075,-4.212,-4.0445,-3.9688,-3.9357,-3.7954,-3.7233,-3.6844,-3.6142,-3.5908,-3.5908,-3.5908,-3.5897,-3.5909,-3.5981,-3.5992,0.0,0.0,0.0,0.0,0.0,0.0,0.0,0.0,-3.6129,-3.6246,-3.6246,-3.695,-3.7594,-3.775,-3.8355,-3.9157,-4.0132,-4.0893,-4.1713,-4.2767,-4.3509,-4.4016,-4.4193,-4.4055,-4.4016,-4.4193,-4.4213,-4.4504,-4.5207,-4.5246,-4.5558,-4.6261,-4.63,-4.63,-4.63,-4.63,-4.63,-4.63,-4.63,-4.63,-4.63,-4.63,-4.6305,-4.6291,-4.6297,-4.6303,-4.6306,-4.6308,-4.6308,-4.6308,-4.6308,-4.5898,-4.5254,-4.5254,-4.4297,-4.2871,-4.2715,-4.2148,-4.1426,0.0,0.0,0.0,0.0,0.0,0.0,0.0,0.0,0.0,0.0,0.0,0.0,0.0,0.0,0.0,0.0,0.0,-3.5374,-3.5463,-3.5515,-3.5932,-3.6859,-3.7729,-3.8605,-3.9481,-4.0352,-4.1622,-4.3305,-4.3305,-4.4156,-4.5807,-4.5807,-4.5807,-4.5807,-4.5861,-4.5892,-4.5929,-4.6056,-4.5592,-4.4744,-4.3938,-4.3075,-4.212,-4.0445,-3.9318,-3.8617,-3.8422,-3.737,-3.6025,-3.5928,-3.5908,-3.5908,-3.5908,-3.5892,-3.5916,-3.5979,-3.6005,-3.5992,-3.6007,-3.5992,-3.5992,-3.5992,-3.5992,-3.5992,0.0,-3.6597,-3.7145,-3.7145,-3.7849,-3.8669,-3.939,-3.9605,-4.021,-4.1849,-4.2181,-4.2825,-4.4483,-4.4795,-4.5148,-4.5929,-4.5324,-4.5168,-4.5929,-4.6007,-4.6046,-4.6144,-4.6144,-4.6202,-4.628,-4.63,-4.63,-4.63,-4.63,-4.63,-4.63,-4.63,-4.63,-4.63,-4.63,-4.6302,-4.6302,-4.6291,-4.6297,-4.6303,-4.6308,-4.6308,-4.6308,-4.6308,-4.623,-4.6152,-4.6152,-4.5566,-4.4629,-4.3848,-4.3008,-4.2266,0.0,0.0,0.0,0.0,0.0,0.0,0.0,0.0,0.0,0.0,0.0,0.0,0.0,0.0,0.0,0.0,-3.5105,-3.5235,-3.5362,-3.545,-3.5919,-3.6859,-3.7251,-3.8083,-3.9462,-3.9868,-4.0855,-4.2531,-4.2531,-4.3169,-4.4369,-4.4852,-4.5104,-4.5104,-4.5137,-4.517,-4.5175,-4.4753,-4.4374,-4.3977,-4.3178,-4.2335,-4.1477,-4.0253,-3.8948,-3.774,-3.774,-3.7272,0.0,0.0,-3.5908,-3.5908,-3.5908,-3.5908,-3.5914,-3.5979,-3.6005,-3.6009,-3.6007,-3.5992,-3.5992,-3.5992,-3.6383,-3.6755,-3.6755,-3.7438,-3.8064,-3.8064,-3.8726,-3.939,-3.9741,-4.021,-4.0952,0.0,-4.2825,-4.3587,-4.4834,-4.5441,-4.589,-4.6261,-4.5987,-4.5909,-4.6261,-4.63,-4.63,-4.63,-4.63,-4.63,-4.63,-4.63,-4.63,-4.63,-4.63,-4.63,-4.63,-4.63,-4.63,-4.63,-4.63,-4.63,-4.6302,-4.6309,-4.6299,-4.6305,-4.6307,-4.6308,-4.6308,-4.6308,-4.6308,-4.6308,-4.6308,-4.6074,-4.5644,-4.4785,-4.3906,-4.3164,0.0,0.0,0.0,0.0,0.0,0.0,0.0,0.0,0.0,0.0,0.0,0.0,0.0,0.0,0.0,-3.4908,-3.4982,-3.5105,-3.5235,-3.5374,-3.5759,-3.6476,-3.675,-3.7483,-3.8766,-3.9249,-4.0216,-4.1661,-4.1893,-4.2454,-4.3305,-4.3962,-4.4246,-4.4246,-4.4246,-4.4286,-4.4296,-4.3737,-4.3364,-4.3097,-4.2282,-4.1477,-4.062,-3.9513,-3.8305,-3.7194,-3.7194,-3.7058,0.0,0.0,-3.5908,-3.5892,-3.5894,-3.5894,-3.5899,-3.5984,-3.5992,-3.6056,-3.6282,-3.6363,-3.6422,-3.6657,-3.7184,-3.7653,-3.7653,-3.8318,-3.8923,-3.8923,-3.9585,-4.0151,-4.0151,-4.0873,-4.1732,-4.2611,-4.3489,-4.4367,-4.5246,-4.5909,-4.63,-4.63,-4.63,-4.63,-4.63,-4.63,-4.63,-4.63,-4.63,-4.63,-4.63,-4.63,-4.63,-4.63,-4.63,-4.63,-4.63,-4.63,-4.63,-4.63,-4.63,-4.63,-4.6302,-4.6309,-4.6299,-4.6306,-4.6306,-4.6308,-4.6308,-4.6308,-4.6308,-4.6308,-4.6308,-4.6308,-4.6211,-4.5586,-4.4805,-4.4062,0.0,0.0,0.0,0.0,0.0,0.0,0.0,0.0,0.0,0.0,0.0,0.0,0.0,0.0,-3.4908,-3.4908,-3.4889,-3.4954,-3.5096,-3.5227,-3.5374,-3.5547,-3.6412,-3.6922,-3.698,-3.8649,-3.9946,-4.0835,-4.1622,-4.2454,-4.3305,-4.3324,-4.3343,-4.3343,-4.3343,-4.3376,-4.3437,-4.3485,-4.3049,-4.2276,-4.1464,-4.062,-3.9649,-3.7935,-3.7253,-3.7194,-3.7194,0.0,0.0,0.0,-3.5908,-3.5892,-3.5904,-3.5909,-3.5914,-3.5974,-3.6006,-3.6187,-3.7028,-3.7262,-3.7458,-3.8318,-3.8533,-3.8552,-3.8552,-3.9175,-3.9761,-3.9761,-4.0464,-4.1051,-4.1051,-4.1771,-4.265,-4.3528,-4.4387,-4.5265,-4.6144,-4.628,-4.63,-4.63,-4.63,-4.63,0.0,-4.63,-4.63,-4.63,-4.63,-4.63,-4.63,-4.63,-4.63,-4.63,-4.63,-4.63,-4.63,-4.63,-4.63,-4.63,-4.63,-4.63,-4.6302,-4.6309,-4.6296,-4.6302,-4.6306,-4.6308,-4.6308,-4.6308,-4.6308,-4.6308,-4.6308,-4.6308,-4.6308,-4.6269,-4.5703,-4.4961,0.0,0.0,0.0,0.0,0.0,0.0,0.0,0.0,0.0,0.0,0.0,0.0,0.0,0.0,0.0,0.0,-3.4908,-3.4954,-3.5096,-3.5138,-3.5266,-3.5483,-3.5791,-3.6265,-3.6878,-3.7464,-3.8199,-3.9069,-3.9359,-3.963,-3.9933,-4.05,-4.0777,-4.0777,-4.0777,-4.079,-4.0775,-4.0272,-3.9887,-3.9637,-3.9452,-3.885,-3.8013,-3.7428,-3.6844,-3.6337,0.0,0.0,0.0,0.0,-3.5908,-3.5892,-3.5904,-3.5909,-3.5914,-3.5974,-3.6416,-3.6931,-3.7223,-3.7711,-3.824,-3.8533,-3.9001,-3.939,-3.939,-4.0054,-4.0659,-4.0659,-4.0894,-4.1109,-4.1109,-4.1343,-4.2006,-4.3452,-4.3957,-4.4641,-4.6105,-4.63,-4.63,-4.63,-4.63,0.0,0.0,0.0,0.0,-4.63,-4.63,-4.63,-4.63,-4.63,-4.63,-4.63,-4.63,-4.63,-4.63,-4.63,-4.63,-4.63,-4.63,-4.63,-4.63,-4.6303,-4.6309,-4.6296,-4.6302,-4.6306,-4.6308,-4.6308,-4.6308,-4.6308,-4.6308,-4.6308,-4.6308,-4.6308,-4.6113,-4.5859,0.0,0.0,0.0,0.0,0.0,0.0,0.0,0.0,0.0,0.0,0.0,0.0,0.0,0.0,0.0,0.0,0.0,-3.4945,-3.5018,-3.507,-3.5179,-3.534,-3.545,-3.5791,-3.6393,-3.6731,-3.7174,-3.7729,-3.8057,-3.8193,-3.8212,-3.876,-3.9036,-3.9036,-3.9036,-3.9048,-3.9032,-3.8525,-3.8282,-3.8252,-3.8065,-3.766,-3.7105,-3.6835,-3.6395,0.0,0.0,0.0,0.0,0.0,-3.5908,-3.5892,-3.5929,-3.594,-3.6009,-3.6352,-3.6868,-3.7438,-3.8024,-3.8609,-3.9099,-3.9411,-3.9879,-4.0268,-4.0268,-4.0698,-4.1109,-4.1109,-4.1109,-4.1109,-4.1109,-4.1343,-4.2025,-4.3471,-4.3957,-4.466,-4.6105,-4.63,-4.63,-4.63,-4.63,-4.63,0.0,0.0,0.0,-4.63,-4.63,-4.6436,-4.6749,-4.6768,-4.6905,-4.7178,-4.7198,-4.7061,-4.6768,-4.6768,-4.6612,-4.63,-4.63,-4.63,-4.63,-4.63,-4.6305,-4.6294,-4.63,-4.6304,-4.6307,-4.6308,-4.6308,-4.6308,-4.6308,-4.6308,-4.6308,-4.6308,-4.6308,-4.6308,0.0,0.0,0.0,0.0,0.0,0.0,0.0,0.0,0.0,0.0,0.0,0.0,0.0,0.0,0.0,0.0,0.0,0.0,-3.4908,-3.5018,-3.5096,-3.5105,-3.534,-3.5496,-3.5509,-3.6367,-3.6839,-3.6845,-3.7671,-3.8077,-3.8077,-3.8077,-3.8077,-3.8052,-3.8052,-3.8106,-3.8155,-3.816,-3.8126,-3.8006,-3.73,-3.6985,-3.6864,-3.6155,0.0,0.0,0.0,0.0,-3.5908,-3.5908,-3.5892,-3.5916,-3.5979,-3.6038,-3.6226,-3.7067,-3.736,-3.7789,-3.937,-3.9839,-4.0073,-4.0894,-4.1109,-4.1109,-4.1109,-4.1109,-4.1109,-4.1109,-4.1109,-4.1109,-4.1109,0.0,-4.2611,-4.3489,-4.4367,-4.5246,-4.6105,-4.6261,-4.63,0.0,0.0,0.0,0.0,0.0,0.0,-4.6378,0.0,-4.6749,-4.7625,-4.7664,-4.8017,-4.8779,-4.8798,-4.8427,-4.7664,-4.7625,-4.7159,-4.63,-4.63,-4.63,-4.63,-4.63,-4.6305,-4.6293,-4.6299,-4.6304,-4.6307,-4.6308,-4.6308,-4.6308,-4.6308,-4.6308,-4.6308,-4.6308,-4.6308,-4.6308,0.0,0.0,0.0,0.0,0.0,0.0,0.0,0.0,0.0,0.0,0.0,0.0,0.0,0.0,0.0,0.0,0.0,0.0,-3.4908,-3.4926,-3.4991,-3.5096,-3.5171,-3.5296,-3.5502,-3.5727,-3.5911,-3.6013,-3.6226,-3.6342,-3.6342,-3.6342,-3.6288,-3.6183,-3.6183,-3.6164,-3.6131,-3.6151,-3.6168,-3.6178,0.0,-3.5999,-3.6012,0.0,0.0,0.0,0.0,-3.5908,-3.5908,-3.5908,-3.5921,-3.5977,-3.5984,-3.6448,-3.7009,-3.7223,-3.818,-3.9253,-3.9683,-4.0268,-4.0816,-4.1031,-4.1109,-4.1109,-4.1109,-4.1109,-4.1109,-4.1109,-4.1109,-4.1109,-4.1109,-4.1285,0.0,-4.2591,-4.3469,0.0,-4.5207,-4.589,0.0,-4.63,-4.63,-4.63,-4.63,-4.6885,0.0,0.0,-4.7276,-4.7627,-4.8447,-4.8486,-4.8584,-4.8798,-4.8798,-4.8701,-4.8505,-4.7899,-4.7159,-4.63,-4.63,-4.63,-4.63,-4.63,-4.6302,-4.6305,-4.6293,-4.6299,-4.6304,-4.6307,-4.6308,-4.6308,-4.6308,-4.6308,-4.6308,-4.6308,-4.6308,-4.6308,0.0,0.0,0.0,0.0,0.0,0.0,0.0,0.0,0.0,0.0,0.0,0.0,0.0,0.0,0.0,0.0,0.0,0.0,0.0,-3.4908,-3.4926,-3.5009,-3.507,-3.5171,-3.5319,-3.5388,-3.5443,-3.5522,-3.5522,-3.5522,-3.5522,-3.5554,-3.5534,-3.5456,-3.5457,-3.5443,-3.5402,-3.5405,0.0,0.0,0.0,0.0,0.0,0.0,0.0,0.0,-3.5908,-3.5908,-3.5908,-3.5908,-3.5946,-3.6005,-3.6005,-3.6604,-3.7379,-3.775,-3.8785,-3.9878,-4.0268,-4.0738,-4.1109,-4.1109,-4.1109,-4.1109,-4.1109,-4.1109,-4.1109,-4.1109,-4.1109,-4.1109,-4.1109,-4.1109,-4.1382,0.0,0.0,0.0,-4.4875,-4.5753,-4.63,0.0,-4.63,0.0,-4.6827,-4.7313,-4.7918,0.0,-4.8347,-4.8486,-4.9325,-4.9364,-4.956,-4.993,-4.993,-4.9579,-4.8818,-4.7998,-4.7159,-4.63,-4.63,-4.63,-4.63,-4.63,-4.63,-4.6302,0.0,-4.6296,-4.6302,-4.6306,-4.6308,-4.6308,-4.6308,-4.6308,-4.6308,-4.6308,-4.6308,-4.6308,0.0,0.0,0.0,0.0,0.0,0.0,0.0,0.0,0.0,0.0,0.0,0.0,0.0,0.0,0.0,0.0,0.0,0.0,0.0,0.0,0.0,-3.4908,-3.5009,-3.5088,-3.5113,-3.5211,-3.53,-3.5304,-3.5323,-3.5304,-3.5311,-3.536,-3.5405,-3.5391,-3.5395,-3.539,0.0,0.0,0.0,0.0,0.0,0.0,0.0,0.0,0.0,0.0,-3.5886,-3.5908,-3.5908,-3.5908,-3.5946,-3.5984,-3.6003,-3.6662,-3.7612,-3.8376,-3.9255,-4.0132,-4.0894,-4.1109,-4.1109,-4.1109,-4.1109,-4.1109,-4.1109,-4.1012,-4.0934,-4.0934,-4.0836,-4.0797,-4.0914,-4.0934,-4.1205,-4.2084,0.0,-4.3957,-4.4719,-4.5675,-4.63,-4.63,-4.6397,-4.6768,-4.7528,-4.7801,-4.8523,-4.9987,-4.9501,-4.9481,-5.0221,-5.026,-5.0612,-5.1375,-5.1394,-5.0555,-4.8818,-4.8115,-4.7276,-4.63,-4.63,-4.63,-4.63,-4.63,-4.63,-4.6302,0.0,0.0,-4.6302,-4.6305,-4.6308,-4.6308,-4.6308,-4.6308,-4.6308,-4.6308,-4.6308,-4.6308,0.0,0.0,0.0,0.0,0.0,0.0,0.0,0.0,0.0,0.0,-3.4908,-3.4908,0.0,0.0,0.0,0.0,0.0,0.0,0.0,0.0,0.0,0.0,-3.4917,-3.5,-3.5174,-3.5138,-3.5227,-3.5378,-3.5374,-3.5374,-3.5378,-3.5385,-3.5374,-3.5308,-3.5316,-3.5285,-3.522,0.0,0.0,0.0,0.0,0.0,0.0,0.0,0.0,0.0,-3.5852,-3.5908,-3.5908,-3.5908,-3.5919,-3.5934,-3.5981,-3.7047,-3.8326,-3.8531,-3.9684,-4.0914,-4.1051,-4.1109,-4.1109,-4.1109,-4.1109,-4.1109,-4.1109,-4.0542,-4.0034,-4.0034,-3.9509,-3.9235,-3.9897,-4.0034,-4.0307,-4.1187,-4.2651,-4.3743,-4.3899,-4.5304,-4.63,0.0,-4.6944,-4.743,-4.7586,-4.8855,0.0,0.0,0.0,-5.1023,-5.118,-5.118,-5.1238,-5.1394,-5.1394,-5.0555,-4.8818,-4.8662,-4.7822,-4.63,-4.63,-4.63,-4.63,-4.63,-4.63,-4.63,-4.6302,0.0,-4.6301,-4.6302,-4.6306,-4.6308,-4.6308,-4.6308,-4.6308,-4.6308,-4.6308,-4.6308,0.0,0.0,0.0,0.0,0.0,0.0,0.0,-3.5038,-3.4992,-3.4955,-3.4927,-3.4908,-3.4908,-3.4908,0.0,0.0,0.0,0.0,0.0,0.0,0.0,0.0,0.0,0.0,0.0,-3.5117,-3.5141,-3.5235,0.0,-3.5242,-3.5235,-3.527,-3.5285,-3.5248,-3.5245,-3.5237,-3.5196,-3.5196,0.0,0.0,0.0,0.0,0.0,0.0,0.0,0.0,0.0,-3.5908,-3.5908,-3.5908,-3.5894,-3.5902,-3.5934,-3.6829,-3.7954,-3.8426,-3.9445,-4.0522,-4.0973,-4.1109,-4.1109,-4.1109,-4.1109,-4.1109,-4.1109,-4.0424,-3.98,-3.98,-3.9156,-3.8728,-3.9099,-3.9527,-3.9937,-4.0366,-4.1888,-4.3177,-4.3647,-4.4816,-4.5792,-4.6241,-4.6671,-4.7276,-4.8135,-4.8954,-4.9794,0.0,0.0,-5.1394,-5.1394,-5.1394,-5.1394,-5.1394,-5.0965,-5.0106,-4.8818,-4.8388,-4.7549,-4.63,-4.63,-4.63,-4.63,-4.63,-4.63,-4.63,-4.63,0.0,-4.6297,-4.6301,-4.6305,-4.6308,-4.6308,-4.6308,-4.6308,-4.6308,-4.6308,-4.6308,0.0,0.0,0.0,0.0,0.0,0.0,0.0,-3.5092,-3.5011,-3.5001,-3.4936,-3.4908,-3.4908,-3.4908,-3.4908,0.0,0.0,0.0,0.0,0.0,0.0,0.0,0.0,0.0,0.0,0.0,0.0,-3.5119,-3.511,0.0,0.0,0.0,0.0,0.0,-3.5193,-3.5209,-3.5209,-3.5209,-3.5209,0.0,0.0,0.0,0.0,0.0,0.0,0.0,0.0,-3.5878,-3.5908,-3.5908,-3.5908,-3.5892,-3.5902,-3.6525,-3.7402,-3.8048,-3.8972,-3.9954,-4.0639,-4.0953,-4.1109,-4.1109,-4.0953,-4.0816,-4.0816,-4.0015,-3.9253,-3.9253,-3.8609,-3.8103,-3.8298,-3.898,-3.9605,-3.9761,-4.1264,-4.2708,-4.3587,-4.4445,-4.5324,-4.6202,-4.6456,0.0,-4.8662,-4.8974,0.0,0.0,0.0,0.0,-5.1394,-5.1394,-5.1394,-5.1394,-5.0553,-4.9675,-4.8818,-4.7998,-4.7159,-4.63,-4.63,-4.63,-4.63,-4.63,-4.63,-4.63,-4.63,0.0,0.0,-4.63,-4.6304,-4.6307,-4.6308,-4.6308,-4.6308,-4.6308,-4.6308,-4.6308,0.0,0.0,0.0,0.0,0.0,0.0,0.0,-3.5138,-3.5075,-3.5011,-3.4936,-3.4908,-3.4908,-3.4908,-3.4908,0.0,0.0,0.0,0.0,0.0,0.0,0.0,0.0,0.0,0.0,0.0,0.0,-3.5193,-3.5198,0.0,0.0,0.0,0.0,0.0,0.0,-3.5209,-3.5209,-3.5209,0.0,0.0,0.0,0.0,0.0,0.0,0.0,0.0,0.0,-3.5797,-3.5908,-3.5908,-3.5908,-3.5908,-3.5892,-3.6509,-3.7247,-3.7363,-3.8539,-3.9809,-3.9896,-4.0503,-4.1109,-4.1109,-4.0503,-3.9917,-3.9917,-3.8687,-3.7536,-3.7536,-3.6833,-3.648,-3.7262,-3.8123,-3.8942,-3.9683,-4.1264,-4.2708,-4.3587,-4.4445,-4.5324,-4.6202,0.0,0.0,-4.8701,-4.952,0.0,0.0,0.0,0.0,-5.1394,-5.1394,-5.1394,-5.1394,-5.0553,-4.9675,-4.8818,-4.7998,-4.7159,-4.63,-4.63,-4.63,-4.63,-4.63,-4.63,-4.63,-4.63,0.0,0.0,-4.63,-4.6304,-4.6307,-4.6308,-4.6308,-4.6308,-4.6308,-4.6308,-4.6308,0.0,0.0,0.0,0.0,0.0,0.0,-3.5204,-3.5181,-3.5138,-3.5075,-3.5001,-3.4945,-3.4889,-3.4908,-3.4908,0.0,0.0,0.0,0.0,0.0,0.0,0.0,0.0,0.0,0.0,0.0,-3.5168,-3.5209,-3.5212,0.0,0.0,0.0,0.0,0.0,0.0,-3.5209,-3.5209,0.0,0.0,0.0,0.0,0.0,0.0,0.0,0.0,0.0,0.0,0.0,-3.5794,-3.5878,-3.5908,-3.5908,-3.5908,-3.6148,-3.6528,-3.7074,-3.7749,-3.8403,-3.8894,-3.9309,-3.9606,-3.9606,-3.9333,-3.9079,-3.9079,-3.816,-3.7301,-3.7301,-3.6617,-3.6109,-3.6441,-3.7223,-3.8084,-3.8942,-4.0073,-4.1518,-4.343,-4.3997,-4.4738,-4.6124,-4.6612,0.0,0.0,0.0,0.0,0.0,0.0,0.0,-5.0651,-5.1102,-5.116,-5.0631,-4.9774,-4.8915,-4.8096,-4.7237,-4.6632,-4.63,-4.63,-4.63,-4.63,-4.63,-4.63,-4.63,-4.63,0.0,0.0,-4.6299,-4.6302,-4.6305,-4.6308,-4.6308,-4.6308,-4.6308,-4.6308,-4.6308,0.0,0.0,0.0,0.0,0.0,-3.5209,-3.5209,-3.5206,-3.5191,-3.5138,-3.5075,-3.5011,-3.4955,-3.4955,-3.4955,-3.4955,0.0,0.0,0.0,0.0,0.0,0.0,0.0,0.0,0.0,0.0,-3.5209,-3.5209,-3.5209,-3.5209,0.0,0.0,-3.5209,-3.5209,0.0,0.0,0.0,0.0,0.0,0.0,0.0,0.0,0.0,0.0,0.0,0.0,0.0,0.0,0.0,0.0,0.0,-3.5908,-3.5908,-3.5908,-3.6028,-3.665,-3.7039,-3.7404,-3.7991,-3.8369,-3.8591,-3.8591,-3.8415,-3.822,-3.822,-3.7536,-3.6911,-3.6911,-3.6422,-3.5992,-3.5992,-3.6716,-3.7594,-3.8454,-3.9273,-4.062,-4.2982,-4.3548,-4.425,-4.5734,0.0,-4.6632,0.0,-4.833,0.0,0.0,0.0,0.0,0.0,-5.0301,-5.036,-4.9733,-4.8896,-4.8174,-4.7606,-4.6749,-4.63,-4.63,-4.63,-4.63,-4.63,-4.63,-4.63,-4.63,0.0,0.0,0.0,-4.6295,-4.6301,-4.6302,-4.6307,-4.6308,-4.6308,-4.6308,-4.6308,-4.6308,0.0,0.0,0.0,0.0,0.0,0.0,-3.5209,-3.5206,-3.52,-3.52,-3.5138,-3.5092,-3.5092,-3.5092,-3.5092,-3.5092,0.0,0.0,0.0,0.0,0.0,0.0,0.0,0.0,0.0,0.0,-3.5209,-3.5209,-3.5209,-3.5209,-3.5209,-3.5209,-3.5209,-3.5209,0.0,0.0,0.0,0.0,0.0,0.0,0.0,0.0,0.0,0.0,0.0,0.0,0.0,0.0,0.0,0.0,0.0,0.0,0.0,-3.5908,-3.5892,-3.5904,-3.6523,-3.7219,-3.7287,-3.7941,-3.8591,-3.8591,-3.7947,-3.7301,-3.7301,-3.6636,-3.6012,-3.6012,-3.6012,-3.5992,-3.5992,-3.6716,-3.7594,-3.8454,-3.9273,-4.0405,-4.2162,-4.3157,-4.4036,0.0,0.0,-4.6632,-4.7528,0.0,0.0,0.0,0.0,0.0,0.0,-4.8818,-4.8818,-4.8818,-4.8037,-4.7606,-4.7606,-4.6749,-4.63,-4.63,-4.63,-4.63,-4.63,-4.63,-4.63,0.0,0.0,0.0,0.0,-4.6309,-4.6296,-4.6302,-4.6306,-4.6308,-4.6308,-4.6308,-4.6308,-4.6308,0.0,0.0,0.0,0.0,0.0,0.0,0.0,-3.5237,-3.5196,-3.5208,-3.5191,-3.5147,-3.512,-3.5092,-3.5129,-3.5155,0.0,0.0,0.0,0.0,0.0,0.0,0.0,0.0,0.0,0.0,-3.5266,-3.527,-3.5266,-3.5269,-3.5269,-3.5218,-3.5209,-3.5209,-3.5209,0.0,0.0,0.0,0.0,0.0,0.0,0.0,0.0,0.0,0.0,0.0,0.0,0.0,0.0,0.0,0.0,0.0,0.0,0.0,0.0,-3.5894,-3.6102,-3.6326,-3.635,-3.6573,-3.6815,-3.6815,-3.6625,-3.6414,-3.6414,-3.6204,-3.5992,-3.5992,-3.5992,-3.5992,-3.5992,-3.6226,-3.6891,-3.8357,-3.8806,-3.978,-4.2084,0.0,0.0,-4.4903,-4.5763,-4.6622,0.0,0.0,0.0,0.0,0.0,0.0,0.0,-4.7908,-4.7908,-4.7908,-4.7701,-4.7311,-4.672,-4.6433,-4.63,-4.63,-4.63,-4.63,-4.63,-4.63,0.0,0.0,0.0,0.0,0.0,-4.6309,-4.6294,-4.6296,-4.6302,-4.6305,-4.6306,-4.6307,-4.6308,-4.6308,0.0,0.0,0.0,0.0,0.0,0.0,0.0,-3.5269,-3.5237,-3.5196,-3.5206,-3.5179,-3.5145,-3.5145,-3.5153,-3.5206,0.0,0.0,0.0,0.0,0.0,0.0,0.0,0.0,0.0,-3.53,-3.5304,-3.5308,-3.5304,-3.53,-3.5312,-3.5258,-3.5215,-3.5209,-3.5226,0.0,0.0,0.0,0.0,0.0,0.0,0.0,-3.5209,0.0,0.0,0.0,0.0,0.0,0.0,0.0,0.0,0.0,0.0,0.0,0.0,0.0,-3.5897,-3.5902,-3.5907,-3.5958,-3.6005,-3.6005,-3.6009,-3.5994,-3.5994,-3.5999,-3.6002,-3.6002,-3.6002,-3.6002,-3.6002,-3.6002,-3.657,-3.8289,-3.8564,-3.9346,-4.1585,0.0,0.0,-4.5302,0.0,0.0,0.0,0.0,0.0,0.0,0.0,0.0,0.0,-4.7018,-4.7016,-4.7011,-4.7067,-4.6856,-4.6303,-4.6296,-4.63,-4.63,-4.63,-4.63,-4.63,-4.63,0.0,0.0,0.0,0.0,0.0,-4.6306,-4.629,-4.6294,-4.6297,-4.63,-4.6302,-4.6306,-4.6092,-4.5819,0.0,0.0,0.0,0.0,0.0,0.0,0.0,0.0,-3.5277,-3.5218,-3.5209,-3.5209,-3.5209,-3.5209,-3.5209,-3.5209,0.0,0.0,0.0,0.0,0.0,0.0,0.0,0.0,0.0,-3.5293,-3.5315,-3.5315,-3.5315,-3.5293,-3.5293,-3.5293,-3.527,-3.5209,-3.5269,0.0,0.0,0.0,0.0,0.0,0.0,0.0,0.0,0.0,0.0,0.0,0.0,0.0,0.0,0.0,0.0,0.0,0.0,0.0,0.0,0.0,0.0,0.0,0.0,-3.5955,-3.5984,-3.5984,-3.5984,-3.5984,-3.5984,-3.5981,0.0,-3.5979,-3.5977,-3.5977,-3.5979,-3.5979,-3.6547,-3.8229,-3.8491,-3.9117,0.0,-4.2607,0.0,0.0,-4.6206,0.0,0.0,0.0,0.0,0.0,0.0,0.0,0.0,-4.6206,-4.6198,-4.6203,-4.627,-4.6282,-4.6284,-4.6294,-4.63,-4.63,-4.63,-4.63,-4.63,-4.63,0.0,0.0,0.0,0.0,0.0,-4.63,-4.6305,-4.6293,-4.6293,-4.6257,-4.6204,-4.6208,-4.5662,-4.4901,0.0,0.0,0.0,0.0,0.0,0.0,0.0,0.0,0.0,0.0,-3.5226,-3.5209,-3.5209,-3.5209,-3.5209,0.0,0.0,0.0,0.0,0.0,0.0,0.0,0.0,0.0,0.0,-3.535,-3.5405,-3.5453,-3.5405,-3.535,-3.5293,-3.53,-3.5285,-3.5277,-3.5285,0.0,0.0,0.0,0.0,0.0,0.0,0.0,0.0,0.0,0.0,0.0,-3.5319,-3.5371,0.0,0.0,0.0,0.0,0.0,0.0,0.0,0.0,-3.5908,0.0,-3.5894,0.0,-3.5919,-3.5919,-3.5926,-3.5914,0.0,-3.5872,-3.5846,-3.5846,-3.576,-3.5737,-3.5837,-3.5846,-3.6429,-3.8205,-3.8504,-3.9109,-4.084,-4.2551,0.0,-4.5994,-4.6189,-4.6189,0.0,0.0,0.0,0.0,0.0,0.0,0.0,-4.6189,-4.6203,-4.6206,-4.6225,-4.622,-4.6211,-4.6264,-4.6292,-4.63,-4.63,-4.63,-4.63,-4.63,0.0,0.0,0.0,0.0,-4.63,-4.63,-4.6302,-4.6303,-4.6303,-4.5895,-4.5311,-4.5319,-4.4757,-4.4018,0.0,0.0,0.0,0.0,0.0,0.0,0.0,0.0,0.0,0.0,0.0,0.0,0.0,0.0,0.0,0.0,0.0,0.0,0.0,0.0,0.0,0.0,0.0,0.0,-3.5304,-3.5342,-3.5372,-3.5412,-3.5372,-3.5342,-3.5304,-3.5335,-3.5327,-3.5312,-3.5312,0.0,0.0,0.0,0.0,0.0,-3.5209,0.0,0.0,0.0,0.0,0.0,-3.5274,-3.5311,0.0,-3.5464,-3.5529,-3.557,0.0,0.0,0.0,0.0,-3.5753,-3.5753,-3.5753,-3.5779,-3.5804,-3.5804,-3.5787,-3.5768,-3.5768,-3.5721,-3.5715,-3.5715,-3.5655,-3.5611,-3.5687,-3.6064,-3.6771,-3.8097,-3.8766,-3.9838,0.0,0.0,-4.4689,-4.6037,-4.6193,0.0,0.0,0.0,0.0,0.0,0.0,0.0,0.0,-4.6193,-4.6209,-4.6199,-4.6206,-4.62,-4.6198,-4.6277,-4.6308,-4.6294,-4.6298,-4.6298,-4.6294,-4.6298,-4.6298,0.0,0.0,0.0,-4.63,-4.63,-4.6066,-4.5695,-4.5695,-4.5168,-4.4408,-4.4396,-4.3856,-4.3099,0.0,0.0,0.0,0.0,0.0,0.0,0.0,0.0,0.0,0.0,0.0,0.0,0.0,0.0,0.0,0.0,0.0,0.0,0.0,0.0,0.0,0.0,0.0,-3.5312,-3.5312,-3.5304,-3.5308,-3.5308,-3.5308,-3.5293,-3.53,-3.5376,-3.5369,-3.53,-3.5293,-3.5269,0.0,0.0,0.0,0.0,-3.5209,0.0,0.0,0.0,0.0,0.0,0.0,0.0,0.0,-3.534,-3.5378,-3.5418,-3.5531,0.0,0.0,0.0,0.0,0.0,-3.5607,-3.5621,-3.5659,-3.5672,-3.5636,-3.5607,-3.5607,-3.5577,-3.556,-3.556,-3.5548,-3.5556,-3.5579,-3.6323,-3.7211,-3.7978,0.0,0.0,-4.3273,-4.4355,-4.5225,-4.6102,0.0,0.0,0.0,0.0,0.0,0.0,0.0,0.0,0.0,-4.6199,-4.6199,-4.6199,-4.6199,-4.6206,-4.62,-4.627,-4.6282,-4.6282,-4.6294,-4.6294,-4.6306,-4.6294,-4.6294,0.0,0.0,0.0,-4.6105,-4.6105,-4.5597,-4.4797,-4.4797,-4.427,-4.3491,-4.3498,-4.2956,-4.22,0.0,0.0,0.0,0.0,0.0,0.0,0.0,0.0,0.0,0.0,0.0,0.0,0.0,0.0,0.0,0.0,0.0,0.0,0.0,0.0,0.0,0.0,-3.5269,-3.5312,-3.5312,-3.5304,-3.5308,-3.5308,-3.5308,-3.5308,-3.53,-3.5364,-3.5364,-3.53,-3.53,-3.5269,-3.5209,0.0,0.0,0.0,0.0,0.0,0.0,0.0,0.0,0.0,0.0,0.0,0.0,-3.5215,-3.5304,-3.5405,-3.5425,0.0,0.0,0.0,0.0,0.0,-3.5607,-3.5531,-3.547,-3.5588,-3.5599,-3.5607,-3.5607,-3.5507,-3.5432,-3.5432,-3.5348,-3.5289,-3.5405,-3.6157,-3.7045,-3.7949,0.0,-4.219,0.0,0.0,-4.5225,-4.6102,0.0,0.0,0.0,0.0,0.0,0.0,0.0,0.0,0.0,-4.6199,-4.6199,-4.6199,-4.6199,-4.6199,-4.6203,-4.6215,-4.6211,-4.6211,-4.6262,-4.6306,-4.6303,-4.6306,-4.6292,0.0,0.0,-4.587,-4.5207,-4.5207,-4.4699,-4.3899,-4.3899,-4.3372,-4.2591,-4.2593,-4.2051,-4.1297,0.0,0.0,0.0,0.0,0.0,0.0,0.0,0.0,0.0,0.0,0.0,0.0,0.0,0.0,0.0,0.0,0.0,0.0,0.0,0.0,0.0,-3.5209,-3.5226,-3.5253,-3.5253,-3.525,-3.5246,-3.5246,-3.5246,-3.5246,-3.5246,-3.5304,-3.5331,-3.5297,-3.53,-3.5269,-3.5209,-3.5209,0.0,0.0,0.0,0.0,0.0,0.0,0.0,0.0,0.0,0.0,0.0,0.0,-3.5239,-3.5289,-3.5289,0.0,0.0,0.0,0.0,0.0,-3.5371,-3.534,-3.5304,-3.5376,-3.5371,-3.5371,-3.5371,-3.534,-3.5289,-3.5289,-3.5246,-3.5368,-3.5906,-3.6745,-3.7841,-3.937,0.0,-4.2985,-4.3513,-4.4754,-4.5751,0.0,0.0,0.0,0.0,0.0,0.0,0.0,0.0,0.0,0.0,0.0,-4.6199,-4.6199,-4.6199,-4.6199,-4.6199,-4.6203,-4.6195,-4.6195,-4.6231,-4.6253,-4.6245,-4.6279,-4.6011,-4.554,0.0,-4.5109,-4.4309,-4.4309,-4.3782,-4.3001,-4.3001,-4.2454,-4.1695,-4.1698,-4.1447,-4.11,0.0,0.0,0.0,0.0,0.0,0.0,0.0,0.0,0.0,0.0,0.0,0.0,0.0,0.0,0.0,0.0,0.0,0.0,0.0,0.0,-3.5215,-3.5218,-3.5218,-3.5218,-3.5209,-3.5209,-3.5209,-3.5209,-3.5209,-3.5209,-3.5226,-3.5277,-3.5312,-3.5304,-3.5277,-3.5253,-3.5209,-3.5209,-3.5209,0.0,0.0,0.0,0.0,0.0,0.0,0.0,0.0,0.0,0.0,0.0,0.0,0.0,0.0,0.0,0.0,-3.5209,-3.5209,-3.5209,-3.5209,-3.5209,-3.5209,-3.5209,-3.5209,-3.5209,-3.5209,-3.5209,-3.5209,-3.5209,-3.5354,-3.5698,-3.6385,-3.7236,-3.85,-4.0474,-4.2039,-4.314,-4.3506,-4.506,0.0,0.0,0.0,0.0,0.0,0.0,0.0,0.0,0.0,0.0,0.0,0.0,-4.6199,-4.6199,-4.6199,-4.6199,-4.6199,-4.5998,-4.6005,-4.62,-4.6195,-4.6098,-4.5894,-4.5958,-4.5475,-4.4612,-4.4671,-4.4192,-4.3391,-4.3391,-4.2884,-4.2103,-4.2103,-4.1693,-4.1109,-4.1095,-4.1098,-4.11,0.0,0.0,0.0,0.0,0.0,0.0,0.0,0.0,0.0,0.0,0.0,0.0,0.0,0.0,0.0,0.0,0.0,0.0,0.0,0.0,-3.5285,-3.5285,-3.5285,-3.5269,-3.5209,-3.5209,-3.5209,-3.5209,-3.5209,-3.5226,-3.5285,-3.5304,-3.5312,-3.5304,-3.5226,-3.5209,-3.5209,-3.5209,-3.5209,-3.5209,0.0,0.0,0.0,0.0,0.0,0.0,0.0,0.0,0.0,0.0,0.0,0.0,0.0,0.0,-3.5209,-3.5209,-3.5209,-3.5209,-3.5209,-3.5209,-3.5209,-3.5209,-3.5209,-3.5209,-3.5209,-3.5209,-3.5209,-3.5209,-3.5832,-3.6424,-3.6481,-3.7167,-3.8342,-4.0215,-4.1255,-4.2193,-4.3267,0.0,0.0,0.0,0.0,0.0,0.0,0.0,0.0,0.0,0.0,0.0,0.0,0.0,0.0,-4.6199,-4.6199,-4.6199,-4.6199,-4.54,-4.54,-4.6199,-4.62,-4.5777,-4.4997,-4.4991,-4.4556,-4.3786,-4.3798,-4.3294,-4.2494,-4.2494,-4.1986,-4.1187,-4.1187,-4.1168,-4.1109,-4.1109,-4.1094,-4.1099,0.0,0.0,0.0,0.0,0.0,0.0,0.0,0.0,0.0,0.0,0.0,0.0,0.0,0.0,0.0,0.0,0.0,0.0,0.0,0.0,-3.5293,-3.5293,-3.5312,-3.5269,-3.5209,-3.5209,-3.5209,-3.5209,-3.5209,-3.5218,-3.5253,-3.5253,-3.5253,-3.5253,-3.5209,-3.5209,-3.5209,-3.5209,-3.5209,-3.5209,-3.5209,-3.5209,0.0,0.0,0.0,0.0,0.0,0.0,0.0,0.0,-3.5209,-3.5209,-3.5209,-3.5209,-3.5209,-3.5209,-3.5209,-3.5209,-3.5209,-3.5204,-3.5196,-3.5201,-3.5204,-3.5206,-3.5206,-3.5206,-3.534,-3.5827,-3.6192,-3.6717,-3.7792,-3.8344,-3.8861,-3.9577,-4.0477,-4.139,0.0,0.0,0.0,0.0,0.0,0.0,0.0,0.0,0.0,0.0,0.0,0.0,0.0,0.0,0.0,-4.5263,-4.4826,-4.4579,-4.4579,-4.4267,-4.4267,-4.4579,-4.4585,-4.4413,-4.4082,-4.4081,-4.3646,-4.29,-4.2891,-4.2393,-4.1596,-4.1596,-4.1402,-4.1109,-4.1109,-4.1109,-4.1109,-4.1109,-4.1091,-4.1094,0.0,0.0,0.0,0.0,0.0,0.0,0.0,0.0,0.0,0.0,0.0,0.0,0.0,0.0,0.0,0.0,0.0,0.0,0.0,-3.5398,-3.5342,-3.5289,-3.5308,-3.5266,-3.5209,-3.5209,-3.5209,-3.5209,-3.5209,-3.5209,-3.5209,-3.5209,-3.5209,-3.5209,-3.5209,-3.5209,-3.5209,-3.5209,-3.5209,-3.5209,-3.5209,-3.5209,0.0,0.0,0.0,0.0,0.0,0.0,0.0,0.0,-3.5209,-3.5209,-3.5209,-3.5209,-3.5209,-3.5209,-3.5193,-3.5204,-3.5204,-3.517,-3.5164,-3.5179,-3.5162,-3.5155,-3.5138,-3.5164,-3.542,-3.6203,-3.6748,-3.7443,-3.8642,-3.8769,-3.8679,0.0,-3.9265,0.0,0.0,0.0,0.0,0.0,0.0,0.0,0.0,0.0,0.0,0.0,0.0,0.0,0.0,0.0,0.0,0.0,-4.3808,-4.356,-4.3601,-4.3328,-4.3192,-4.3192,-4.2939,-4.2939,-4.3192,-4.3214,-4.278,-4.1988,-4.1983,-4.1659,-4.1099,-4.1103,-4.1106,-4.1109,-4.1109,-4.1109,-4.1109,-4.1109,-4.1109,-4.1109,0.0,0.0,0.0,0.0,0.0,0.0,0.0,0.0,0.0,0.0,0.0,0.0,0.0,0.0,0.0,0.0,0.0,0.0,-3.55,-3.55,-3.5446,-3.5315,-3.5308,-3.527,-3.5209,-3.5209,-3.5209,-3.5209,-3.5209,-3.5209,-3.5209,-3.5209,-3.5209,-3.5209,-3.5209,-3.5209,-3.5209,-3.5209,-3.5209,-3.5209,-3.5209,-3.5209,-3.5209,0.0,0.0,0.0,0.0,0.0,0.0,0.0,-3.5209,-3.5209,-3.5209,-3.5209,-3.5209,-3.5209,-3.5196,-3.52,-3.52,-3.5147,-3.5092,-3.5092,-3.5092,-3.5084,-3.5011,-3.5111,-3.5412,-3.6167,-3.7652,-3.8813,-3.8794,-3.8137,0.0,-3.7585,-3.7585,0.0,0.0,0.0,0.0,0.0,0.0,0.0,0.0,0.0,0.0,0.0,0.0,0.0,0.0,0.0,0.0,0.0,-4.3379,-4.3445,-4.3559,-4.2724,-4.2296,-4.2276,-4.1477,-4.1516,-4.2296,-4.2353,-4.1914,-4.1098,-4.1108,-4.1093,-4.1093,-4.1107,-4.1099,-4.1109,-4.1109,-4.1109,-4.1109,-4.1109,-4.1109,-4.1109,0.0,0.0,0.0,0.0,0.0,0.0,0.0,0.0,0.0,0.0,0.0,0.0,0.0,0.0,0.0,0.0,0.0,0.0,-3.55,-3.55,-3.5446,-3.5315,-3.5308,-3.527,-3.5209,-3.5209,-3.5209,-3.5209,-3.5209,-3.5209,-3.5209,-3.5209,-3.5209,-3.5209,-3.5209,-3.5209,-3.5209,-3.5209,-3.5209,-3.5209,-3.5209,-3.5209,-3.5209,0.0,0.0,0.0,0.0,0.0,0.0,0.0,0.0,0.0,-3.5209,-3.5209,-3.5209,-3.5209,-3.5201,-3.5204,-3.5208,-3.5147,-3.5092,-3.5092,-3.5066,-3.502,-3.5001,-3.5504,-3.6359,-3.7716,-3.8906,-3.9526,-3.8906,-3.8127,0.0,-3.6786,-3.6691,0.0,0.0,0.0,0.0,0.0,0.0,0.0,0.0,0.0,0.0,0.0,0.0,0.0,0.0,0.0,0.0,0.0,-4.1751,-4.1571,-4.1706,-4.1434,-4.1369,-4.1458,-4.1205,-4.1224,-4.1458,-4.1484,-4.1337,-4.1095,-4.11,-4.1106,-4.1093,-4.1107,-4.1099,-4.1109,-4.1109,-4.1109,-4.1109,-4.1109,-4.1109,-4.1109,0.0,0.0,0.0,0.0,0.0,0.0,0.0,0.0,0.0,0.0,-3.55,-3.55,0.0,0.0,0.0,0.0,0.0,0.0,0.0,0.0,-3.5446,-3.5315,-3.5308,-3.527,-3.5209,-3.5209,-3.5209,-3.5209,-3.5209,-3.5209,-3.5209,-3.5209,-3.5209,-3.5209,-3.5209,-3.5209,-3.5209,-3.5209,-3.5209,-3.5209,-3.5209,-3.5209,-3.5209,0.0,0.0,0.0,0.0,0.0,0.0,0.0,0.0,0.0,-3.5209,-3.5209,-3.5201,-3.5204,-3.5187,-3.5143,-3.5138,-3.5075,-3.502,-3.502,-3.4992,-3.505,-3.5391,-3.6131,-3.7108,-3.8435,-3.9395,-3.9768,-3.8912,-3.8363,0.0,-3.6445,0.0,0.0,0.0,0.0,0.0,0.0,0.0,0.0,0.0,0.0,0.0,0.0,0.0,0.0,0.0,0.0,0.0,0.0,-4.0644,-4.0681,-4.0823,-4.0823,-4.0898,-4.1027,-4.1027,-4.1041,-4.1107,-4.1107,-4.1094,-4.1106,-4.1106,-4.1095,-4.1108,-4.11,-4.1094,-4.1103,-4.1108,-4.1109,-4.1109,-4.1109,-4.1109,-4.1109,0.0,0.0,0.0,0.0,0.0,0.0,0.0,0.0,0.0,0.0,-3.55,-3.55,0.0,0.0,0.0,0.0,0.0,0.0,0.0,0.0,-3.5446,-3.5315,-3.5281,-3.5262,-3.5209,-3.5209,-3.5209,-3.5209,-3.5209,-3.5209,-3.5209,-3.5209,-3.5209,-3.5209,-3.5209,-3.5209,-3.5209,-3.5209,-3.5209,-3.5209,-3.5209,-3.5209,-3.5209,-3.5209,0.0,0.0,0.0,0.0,0.0,0.0,0.0,0.0,-3.5209,-3.5209,-3.5201,-3.5198,-3.5155,-3.5092,-3.502,-3.4955,-3.4917,-3.4908,-3.4908,-3.5135,-3.5998,-3.6775,-3.7571,-3.85,-3.9342,-3.9654,-3.886,-3.869,-3.8178,0.0,0.0,0.0,0.0,0.0,0.0,0.0,0.0,0.0,0.0,0.0,0.0,0.0,0.0,0.0,0.0,0.0,0.0,-3.9285,-4.0069,-4.0549,-4.0675,-4.0681,-4.0742,0.0,-4.0874,-4.0958,-4.1052,-4.1085,-4.1107,-4.1107,-4.1107,-4.11,-4.1098,-4.1108,-4.11,-4.1094,-4.1104,-4.1109,-4.1109,-4.1109,-4.1109,-4.1109,0.0,0.0,0.0,0.0,0.0,0.0,0.0,0.0,0.0,0.0,0.0,0.0,0.0,0.0,0.0,0.0,0.0,0.0,0.0,0.0,-3.5446,-3.5315,-3.5246,-3.5207,-3.5209,-3.5209,-3.5209,-3.5209,-3.5209,-3.5209,-3.5209,-3.5209,-3.5209,-3.5209,-3.5209,-3.5209,-3.5209,-3.5209,-3.5209,-3.5209,-3.5209,-3.5209,-3.5209,-3.5209,-3.5209,0.0,0.0,0.0,0.0,0.0,0.0,0.0,-3.5209,-3.5209,-3.5201,-3.5193,-3.5179,-3.5155,-3.5092,-3.502,-3.4974,-3.4917,-3.4908,-3.5135,-3.5998,-3.6339,-3.6889,-3.8386,-3.9342,-3.9654,-3.886,-3.869,-3.8367,0.0,0.0,0.0,0.0,0.0,0.0,0.0,0.0,0.0,0.0,0.0,0.0,0.0,0.0,0.0,0.0,0.0,0.0,-4.0059,-4.0251,-4.0405,-4.0542,-4.0549,-4.0602,0.0,-4.0736,-4.0754,-4.0782,-4.0996,-4.1107,-4.1107,-4.1107,-4.11,-4.1098,-4.1108,-4.11,-4.1094,-4.1104,-4.1109,-4.1109,-4.1109,-4.1109,-4.1109,0.0,0.0,0.0,0.0,0.0,0.0,0.0,0.0,0.0,0.0,0.0,0.0,0.0,0.0,0.0,0.0,0.0,0.0,0.0,0.0,0.0,-3.5357,-3.5281,-3.5253,-3.5253,-3.5218,-3.5209,-3.5209,-3.5209,-3.5209,-3.5209,-3.5209,-3.5209,-3.5209,-3.5209,-3.5209,-3.5209,-3.5209,-3.5209,-3.5209,-3.5209,-3.5209,-3.5209,-3.5209,-3.5209,-3.5209,0.0,0.0,0.0,0.0,0.0,0.0,0.0,0.0,-3.5201,-3.5204,-3.5181,-3.5138,-3.5075,-3.5001,-3.4945,-3.4917,-3.4908,-3.5022,-3.5476,-3.5893,-3.6453,-3.7325,-3.8471,-3.9323,-3.9286,-3.9267,0.0,0.0,0.0,0.0,0.0,0.0,0.0,0.0,0.0,0.0,0.0,0.0,0.0,0.0,0.0,0.0,0.0,-3.9527,-3.9566,-3.9624,-4.0024,-4.0291,-4.0351,-4.0396,-4.0476,-4.0595,-4.0595,-4.0636,-4.0706,-4.0917,-4.1038,-4.1107,-4.1107,-4.1094,-4.1103,-4.11,-4.1111,-4.1098,-4.1095,-4.1099,-4.1095,-4.1099,-4.1099,-4.1095,0.0,0.0,0.0,0.0,0.0,0.0,0.0,0.0,0.0,0.0,0.0,0.0,0.0,0.0,0.0,0.0,0.0,0.0,0.0,0.0,0.0,0.0,-3.5331,-3.5312,-3.5312,-3.5226,0.0,-3.5209,-3.5209,-3.5209,-3.5209,-3.5209,-3.5209,-3.5209,-3.5209,-3.5209,-3.5209,-3.5209,-3.5209,-3.5209,-3.5209,-3.5209,-3.5209,-3.5209,-3.5209,-3.5209,-3.5209,0.0,0.0,0.0,0.0,0.0,0.0,0.0,-3.5201,-3.5206,-3.5164,-3.5092,-3.5048,-3.4955,-3.4908,-3.4908,-3.4908,-3.4908,-3.4908,-3.5457,-3.6017,-3.6168,-3.742,-3.8727,-3.954,0.0,0.0,0.0,0.0,0.0,0.0,0.0,0.0,0.0,0.0,0.0,0.0,0.0,0.0,0.0,0.0,0.0,-3.9012,-3.901,-3.904,-3.9128,-3.9814,-4.0196,-4.0196,-4.0263,-4.0345,-4.046,-4.0468,-4.0534,-4.0668,-4.0771,-4.0921,-4.1071,-4.1071,-4.1078,-4.1091,-4.1109,-4.1095,-4.1098,-4.1103,-4.1103,-4.1096,-4.1107,-4.1103,-4.1096,0.0,0.0,0.0,0.0,0.0,0.0,0.0,0.0,0.0,0.0,-3.5089,-3.5037,0.0,0.0,0.0,0.0,0.0,0.0,0.0,0.0,0.0,0.0,-3.5331,-3.5312,-3.5312,-3.5226,-3.5209,-3.5209,-3.5209,-3.5209,-3.5209,-3.5209,-3.5209,-3.5209,-3.5209,-3.5209,-3.5209,-3.5209,-3.5209,-3.5209,-3.5209,-3.5209,-3.5209,-3.5209,-3.5209,-3.5209,-3.5209,0.0,0.0,0.0,-3.5209,0.0,0.0,0.0,-3.5201,-3.5201,-3.5187,-3.5164,-3.5092,-3.5001,-3.4908,-3.4908,-3.4908,-3.4908,-3.4908,-3.4984,-3.5287,-3.6036,-3.6927,-3.7837,-3.8709,0.0,0.0,0.0,0.0,0.0,0.0,0.0,0.0,0.0,0.0,0.0,0.0,0.0,0.0,0.0,-3.9816,-3.9792,-3.9836,-3.9844,-3.9896,-4.0024,-4.0139,-4.0196,-4.0196,-4.0263,-4.0282,-4.0234,-4.031,-4.0388,-4.0527,-4.0549,-4.0687,-4.0926,-4.0926,-4.0992,-4.1091,-4.1109,-4.1095,-4.1098,-4.1091,-4.1096,-4.1093,-4.1096,-4.1096,-4.1093,0.0,0.0,0.0,0.0,0.0,0.0,0.0,0.0,0.0,0.0,0.0,-3.5226,0.0,0.0,0.0,0.0,0.0,0.0,0.0,0.0,0.0,-3.546,-3.5361,-3.5304,-3.5304,-3.5223,-3.5209,-3.5209,-3.5209,-3.5209,-3.5209,-3.5209,-3.5209,-3.5209,-3.5209,-3.5209,-3.5209,-3.5209,-3.5209,-3.5209,-3.5209,-3.5193,-3.5206,-3.5206,-3.5206,-3.5206,-3.5206,0.0,0.0,0.0,-3.5204,-3.5201,-3.5196,0.0,0.0,0.0,-3.5181,-3.5129,-3.5011,-3.4945,-3.4908,-3.4908,-3.4908,-3.4908,-3.4908,-3.4908,-3.5003,-3.5382,-3.5742,-3.6405,0.0,0.0,0.0,0.0,0.0,0.0,0.0,0.0,0.0,0.0,0.0,0.0,0.0,0.0,0.0,0.0,-3.99,-3.9933,-3.9996,-3.9965,-3.9986,-4.0087,-4.0087,-4.0098,-4.0147,-4.0206,-4.0253,-4.0253,-4.0291,-4.0328,-4.0398,-4.0398,-4.0534,-4.0796,-4.0796,-4.0828,-4.0874,-4.096,-4.0984,-4.0984,-4.0986,-4.1029,-4.1087,-4.1023,-4.1049,-4.1092,0.0,0.0,0.0,0.0,0.0,0.0,0.0,0.0,0.0,0.0,0.0,0.0,0.0,0.0,0.0,0.0,0.0,0.0,0.0,0.0,0.0,-3.55,-3.5372,-3.5308,-3.5308,-3.5231,-3.5209,-3.5209,-3.5209,-3.5209,-3.5209,-3.5209,-3.5209,-3.5209,-3.5209,-3.5209,-3.5209,-3.5209,-3.5209,-3.5201,-3.5193,-3.5187,-3.52,-3.5191,-3.5164,-3.5164,-3.5164,0.0,0.0,0.0,0.0,0.0,0.0,0.0,0.0,0.0,0.0,-3.5057,-3.4945,-3.4917,-3.4908,-3.4908,-3.4908,-3.4908,-3.4908,-3.4889,-3.487,0.0,-3.485,-3.5209,0.0,0.0,0.0,0.0,0.0,0.0,0.0,0.0,0.0,0.0,0.0,0.0,0.0,0.0,0.0,0.0,-3.99,-3.9922,-3.9965,-3.9922,-3.9933,-3.9996,-3.9996,-4.0017,-4.0067,-4.0147,-4.0225,-4.0301,-4.0301,-4.0301,-4.0301,-4.0301,-4.0405,-4.0607,-4.0629,-4.0662,-4.0706,-4.0812,-4.0849,-4.0849,-4.0854,-4.0911,-4.0988,-4.0882,-4.0928,-4.1045,0.0,0.0,0.0,0.0,0.0,0.0,0.0,0.0,0.0,0.0,0.0,0.0,0.0,0.0,-3.5209,-3.5209,0.0,0.0,0.0,0.0,0.0,-3.5493,-3.5372,0.0,-3.5308,-3.5231,-3.5209,-3.5209,-3.5209,-3.5209,-3.5209,-3.5209,-3.5209,-3.5209,-3.5209,-3.5209,-3.5209,-3.5209,-3.5209,-3.5201,-3.5198,-3.52,-3.52,-3.5129,0.0,0.0,0.0,0.0,0.0,0.0,0.0,0.0,0.0,0.0,0.0,0.0,0.0,0.0,-3.5001,-3.4945,-3.4908,-3.4908,-3.4908,-3.4908,-3.4908,-3.4849,-3.4798,-3.4798,-3.4697,0.0,0.0,0.0,0.0,0.0,0.0,0.0,0.0,0.0,0.0,0.0,0.0,0.0,0.0,0.0,0.0,0.0,-3.99,-3.99,-3.99,-3.99,-3.9933,-3.9996,-3.9996,-3.9996,-3.9996,-4.0067,-4.0166,-4.0301,-4.0301,-4.0301,-4.0301,-4.0301,-4.032,-4.0328,-4.0452,-4.0574,-4.07,-4.0706,-4.0706,-4.0706,-4.0706,-4.0712,-4.0718,-4.0712,-4.0807,-4.0917,0.0,0.0,0.0,0.0,0.0,0.0,0.0,0.0,0.0,0.0,0.0,0.0,0.0,-3.5209,-3.5141,-3.5028,-3.501,0.0,0.0,0.0,0.0,-3.5107,-3.4981,-3.4916,-3.4916,-3.4813,-3.4745,-3.4745,-3.4917,-3.501,-3.5019,-3.5132,-3.5209,-3.5201,-3.5196,-3.5206,-3.5206,-3.5153,-3.5145,-3.5136,-3.5147,-3.512,-3.5075,-3.5038,0.0,0.0,0.0,0.0,0.0,0.0,0.0,0.0,0.0,0.0,0.0,-3.5057,-3.4992,-3.4936,-3.4936,-3.4831,-3.474,-3.4879,-3.4811,-3.473,-3.482,-3.4819,-3.4778,-3.4687,-3.4634,0.0,0.0,0.0,0.0,0.0,0.0,0.0,0.0,0.0,0.0,0.0,0.0,0.0,0.0,0.0,0.0,0.0,0.0,-3.9134,-3.9134,-3.9616,-3.9911,-3.9933,-3.9933,-3.9954,-3.9996,-4.0067,-4.0147,-4.0244,-4.0244,-4.0253,-4.0301,-4.0301,-4.0301,-4.031,-4.0345,-4.0396,-4.0444,-4.0534,-4.0559,-4.0559,-4.0559,-4.0615,-4.0687,-4.0595,-4.0655,-4.0765,0.0,0.0,0.0,0.0,0.0,0.0,0.0,0.0,0.0,0.0,0.0,0.0,0.0,0.0,-3.5019,-3.4821,-3.4722,-3.4711,-3.4782,-3.4801,-3.484,-3.4908,-3.4773,-3.4694,-3.4694,-3.4653,-3.4643,-3.4643,-3.487,-3.501,-3.501,-3.5132,-3.5209,-3.5201,-3.5198,-3.5208,-3.5198,-3.5155,-3.529,-3.551,-3.5198,-3.5371,-3.5818,0.0,0.0,0.0,0.0,0.0,0.0,0.0,0.0,0.0,0.0,0.0,0.0,0.0,-3.4936,-3.4908,-3.4908,-3.4761,-3.4626,-3.4771,-3.4699,-3.4623,-3.4708,-3.4768,-3.4768,-3.4634,-3.4561,0.0,0.0,0.0,0.0,0.0,0.0,0.0,0.0,0.0,0.0,0.0,0.0,0.0,0.0,0.0,0.0,0.0,0.0,0.0,-3.8671,-3.921,-3.9616,-3.99,-3.99,-3.9933,-3.9996,-4.0046,-4.0098,-4.0166,-4.0166,-4.0196,-4.0263,-4.0263,-4.0291,-4.0301,-4.0301,-4.0301,-4.031,-4.0388,-4.0427,-4.0427,-4.0427,-4.0492,-4.0557,-4.0468,-4.0512,-4.0629,0.0,0.0,0.0,0.0,0.0,0.0,0.0,0.0,0.0,0.0,0.0,0.0,0.0,0.0,0.0,-3.4612,-3.434,-3.4305,-3.4561,-3.4602,-3.4678,-3.486,0.0,0.0,0.0,-3.4821,-3.487,-3.487,-3.5081,-3.5174,-3.5201,-3.5201,-3.5209,-3.5201,-3.5198,-3.5206,-3.5239,-3.5236,-3.5677,-3.6326,0.0,-3.6046,-3.7413,0.0,0.0,0.0,-3.6529,-3.6255,0.0,-3.5249,0.0,0.0,0.0,0.0,0.0,0.0,0.0,0.0,0.0,0.0,0.0,-3.4591,-3.4572,-3.4572,-3.4583,0.0,-3.4747,-3.4634,0.0,0.0,0.0,0.0,0.0,0.0,0.0,0.0,0.0,0.0,0.0,0.0,0.0,0.0,0.0,0.0,0.0,0.0,-3.7363,-3.7742,-3.8576,-3.8671,-3.9058,-3.9843,-3.99,-3.9933,-3.9996,-3.9996,-4.0036,-4.0106,-4.0106,-4.0137,-4.0196,-4.0196,-4.0234,-4.0301,-4.0301,-4.0301,-4.0301,-4.0301,-4.0301,-4.0301,-4.0301,-4.0301,-4.0301,-4.0301,-4.037,-4.0489,0.0,0.0,0.0,0.0,0.0,0.0,0.0,0.0,0.0,0.0,0.0,0.0,-3.4908,-3.4771,-3.4594,-3.4328,-3.4245,-3.4233,-3.4305,-3.4305,-3.434,-3.439,-3.4446,-3.439,-3.4203,-3.4321,-3.439,-3.439,-3.4601,0.0,0.0,0.0,0.0,-3.5209,-3.5193,-3.5556,-3.6137,-3.6041,-3.6119,-3.6358,-3.6682,-3.7091,0.0,0.0,0.0,0.0,0.0,-3.6709,-3.6188,0.0,-3.5429,-3.4927,0.0,0.0,0.0,0.0,0.0,0.0,-3.4678,0.0,0.0,0.0,0.0,0.0,0.0,0.0,-3.4416,-3.458,0.0,0.0,0.0,0.0,0.0,0.0,0.0,0.0,0.0,0.0,0.0,0.0,0.0,0.0,0.0,0.0,0.0,0.0,-3.6178,-3.6642,-3.6889,-3.8045,-3.8803,-3.902,-3.9597,-3.9911,-3.9922,-3.9922,-3.9954,-4.0036,-4.0036,-4.0067,-4.0137,-4.0137,-4.0137,-4.0157,-4.0157,-4.0157,-4.0157,-4.0215,-4.0196,-4.0157,-4.0215,-4.0234,-4.0225,-4.0272,-4.0319,-4.0345,0.0,0.0,0.0,0.0,0.0,0.0,0.0,0.0,0.0,0.0,0.0,0.0,-3.4811,-3.4564,-3.4363,-3.4209,-3.4197,-3.4197,-3.4197,-3.4197,-3.4197,-3.4197,-3.4221,-3.4161,-3.3998,-3.4136,0.0,0.0,0.0,0.0,0.0,0.0,0.0,0.0,-3.5736,-3.6214,-3.7016,-3.7306,-3.7394,0.0,-3.7452,0.0,0.0,-3.8093,-3.8148,0.0,0.0,0.0,-3.7125,-3.6314,-3.5461,0.0,0.0,0.0,0.0,0.0,0.0,0.0,0.0,0.0,0.0,0.0,0.0,0.0,-3.4233,-3.434,-3.4416,0.0,0.0,0.0,0.0,0.0,0.0,0.0,0.0,0.0,0.0,0.0,0.0,0.0,0.0,0.0,0.0,-3.4908,-3.4908,-3.4908,-3.5363,-3.5817,-3.6187,-3.7438,-3.8329,-3.869,-3.9153,-3.9559,-3.99,-3.99,-3.9922,-3.9954,-3.9954,-3.9986,-4.0057,-4.0057,-4.0067,-4.0106,-4.0106,-4.0077,-4.0057,-4.0098,-4.0108,-4.0087,-4.0147,-4.0176,-4.0196,-4.0215,-4.0234,-4.0253,0.0,0.0,0.0,0.0,0.0,0.0,0.0,0.0,0.0,0.0,0.0,0.0,-3.4636,0.0,0.0,0.0,-3.4314,-3.4363,-3.4358,-3.442,-3.4476,-3.4476,-3.4297,-3.4166,-3.4146,-3.4192,0.0,0.0,0.0,0.0,0.0,0.0,0.0,0.0,0.0,0.0,-3.7903,-3.8667,0.0,-3.8889,-3.8108,-3.8636,0.0,0.0,-3.9286,-3.9805,-3.9056,-3.8723,-3.835,-3.6404,-3.5282,0.0,0.0,0.0,0.0,0.0,-3.487,0.0,0.0,0.0,0.0,0.0,0.0,0.0,-3.4099,-3.4328,-3.4495,0.0,0.0,0.0,0.0,0.0,0.0,0.0,0.0,0.0,0.0,0.0,0.0,0.0,0.0,0.0,-3.4879,-3.4898,-3.4908,-3.4889,-3.4889,-3.5239,-3.6007,-3.6832,-3.7628,-3.8405,-3.8595,-3.9039,-3.9767,-3.9862,-3.99,-3.99,-3.99,-3.9933,-3.9986,-3.9986,-4.0026,-4.0086,-4.0086,-4.0046,-3.9986,-3.9986,-4.0007,-4.0067,-4.0096,-4.0137,-4.0176,-4.0127,-4.0147,-4.0176,0.0,0.0,0.0,0.0,0.0,0.0,0.0,0.0,0.0,0.0,0.0,-3.4689,-3.4612,-3.471,0.0,0.0,-3.5002,-3.5418,-3.5262,-3.5863,-3.6216,-3.6216,-3.5658,-3.5274,-3.5058,-3.4538,-3.4257,0.0,0.0,0.0,0.0,0.0,0.0,0.0,0.0,0.0,-3.8763,0.0,0.0,-3.9821,-3.9659,0.0,-3.9956,-3.9751,-3.9767,-3.9859,-3.9489,-3.8879,-3.8005,-3.6124,-3.5374,-3.5168,0.0,0.0,0.0,-3.4841,0.0,0.0,0.0,0.0,0.0,0.0,0.0,0.0,-3.382,-3.3847,-3.3868,0.0,0.0,0.0,0.0,0.0,0.0,0.0,0.0,0.0,0.0,0.0,0.0,0.0,0.0,0.0,-3.4819,-3.486,-3.4879,-3.481,-3.4829,-3.4915,-3.5135,-3.5969,-3.651,-3.668,-3.8007,-3.8784,-3.8936,-3.9578,-3.99,-3.99,-3.99,-3.9911,-3.9922,-3.9922,-3.9922,-3.9933,-3.9933,-3.9933,-3.9922,-3.9922,-3.9922,-3.9943,-3.9996,-4.0036,-4.0038,-4.0077,-4.0117,-4.0117,0.0,0.0,0.0,0.0,0.0,0.0,0.0,0.0,0.0,-3.5054,-3.522,-3.5344,-3.5344,-3.5625,0.0,0.0,0.0,0.0,0.0,-3.6495,-3.6699,-3.6699,-3.6341,-3.6073,-3.59,-3.5541,-3.5319,-3.5254,0.0,0.0,0.0,0.0,0.0,0.0,0.0,0.0,0.0,0.0,-3.9843,-4.0147,-4.0098,0.0,-3.9943,-3.9911,-3.99,-3.9878,-3.9747,-3.8994,-3.7903,-3.6935,-3.6326,0.0,0.0,-3.5083,-3.5119,0.0,-3.4509,-3.4397,0.0,0.0,0.0,-3.3629,0.0,0.0,0.0,-3.3753,-3.3748,-3.3961,-3.3954,0.0,0.0,0.0,0.0,0.0,0.0,0.0,0.0,0.0,0.0,0.0,0.0,0.0,-3.4798,-3.482,-3.483,-3.4798,-3.482,-3.486,-3.4908,-3.5306,-3.5742,-3.6187,-3.7021,-3.7856,-3.869,-3.9096,-3.9513,-3.99,-3.99,-3.99,-3.99,-3.99,-3.99,-3.99,-3.99,-3.99,-3.99,-3.99,-3.99,-3.99,-3.9933,-3.9965,-3.9996,-4.0005,-4.0026,-4.0046,-3.55,-3.55,0.0,0.0,0.0,0.0,0.0,0.0,0.0,-3.5333,-3.5913,-3.6257,-3.6224,-3.6543,-3.6751,-3.6699,0.0,0.0,0.0,-3.7076,-3.7164,-3.7164,-3.6936,-3.6813,-3.6717,-3.65,-3.6374,-3.6303,0.0,0.0,0.0,0.0,0.0,0.0,0.0,0.0,-3.9914,0.0,0.0,-4.0098,0.0,-3.9994,-3.9933,-3.9922,-3.9922,-3.99,-3.9762,-3.8965,-3.7928,-3.7734,-3.7257,-3.6634,-3.588,-3.5683,0.0,0.0,0.0,0.0,0.0,0.0,0.0,0.0,0.0,-3.3452,0.0,0.0,0.0,0.0,0.0,0.0,0.0,0.0,0.0,0.0,0.0,0.0,0.0,0.0,0.0,0.0,0.0,0.0,0.0,-3.4666,-3.4708,-3.4819,-3.4801,-3.4812,-3.4908,-3.4889,-3.5211,-3.5931,-3.6092,-3.6831,-3.8216,-3.8517,-3.8988,-3.9621,-3.9769,-3.9845,-3.9867,-3.9867,-3.9878,-3.99,-3.99,-3.99,-3.99,-3.99,-3.9889,-3.9848,-3.9889,-3.9933,-3.9975,-3.9922,-3.9933,-3.9975,-3.55,-3.55,-3.55,0.0,0.0,0.0,0.0,0.0,0.0,-3.5951,-3.6516,-3.6831,-3.6652,-3.6832,-3.69,-3.6712,-3.7524,0.0,-3.7777,-3.8432,-3.8822,-3.8822,-3.8072,-3.7632,-3.7581,-3.6795,-3.6374,-3.6303,0.0,0.0,0.0,0.0,0.0,0.0,-3.9425,-3.9611,-3.9903,0.0,-3.9881,0.0,-3.9751,-3.987,0.0,-4.0007,-3.9986,-3.9903,-3.932,-3.8704,-3.8053,0.0,-3.7229,-3.7275,0.0,-3.6037,-3.5551,-3.5585,0.0,0.0,0.0,0.0,0.0,0.0,-3.3466,0.0,0.0,0.0,-3.3437,-3.3396,0.0,0.0,0.0,0.0,0.0,0.0,0.0,0.0,0.0,0.0,0.0,0.0,0.0,0.0,0.0,-3.4185,-3.4386,-3.4841,-3.4575,-3.4513,-3.487,-3.484,-3.4877,-3.504,-3.5671,-3.6163,-3.6491,-3.7845,-3.8565,-3.8678,-3.926,-3.9611,-3.9717,-3.9717,-3.9792,-3.99,-3.99,-3.99,-3.99,-3.99,-3.9826,-3.9728,-3.9848,-3.99,-3.9911,-3.99,-3.99,-3.9911,-3.5692,-3.55,-3.55,0.0,0.0,0.0,0.0,0.0,0.0,-3.6605,-3.7257,-3.7659,-3.7586,-3.7965,-3.818,-3.8093,-3.8471,-3.8702,0.0,0.0,0.0,-3.9101,-3.8702,-3.8465,-3.8393,-3.8007,-3.7768,-3.7698,-3.8184,0.0,0.0,0.0,0.0,0.0,-3.9439,-3.9489,-3.9464,0.0,-3.9881,0.0,0.0,0.0,0.0,-3.9531,-3.9421,-3.9371,-3.8915,-3.8612,-3.8362,0.0,-3.789,0.0,0.0,0.0,0.0,0.0,0.0,0.0,0.0,0.0,0.0,0.0,0.0,0.0,-3.3393,0.0,-3.3378,0.0,0.0,0.0,0.0,0.0,0.0,0.0,0.0,0.0,0.0,0.0,0.0,0.0,0.0,0.0,0.0,0.0,0.0,0.0,-3.455,-3.4487,-3.483,-3.4739,-3.4697,-3.473,-3.5028,-3.5442,-3.5966,-3.661,-3.7416,-3.8395,-3.8655,-3.9069,-3.9568,-3.9568,-3.9658,-3.9792,-3.9792,-3.9826,-3.9889,-3.9815,-3.9739,-3.9705,-3.967,-3.9724,-3.9792,-3.9792,-3.9792,-3.9792,-3.6423,-3.6192,-3.6192,-3.6192,0.0,0.0,-3.6472,-3.6996,-3.7419,-3.7338,-3.8051,-3.8533,-3.8446,-3.8838,-3.9101,-3.9101,-3.9101,-3.9101,0.0,0.0,-3.9087,-3.9073,-3.9007,-3.8935,-3.8862,-3.8807,-3.875,-3.8707,-3.8877,0.0,0.0,0.0,0.0,0.0,0.0,-3.9187,-3.9064,0.0,-3.9651,-3.9585,-3.9488,-3.9383,-3.9269,-3.9085,-3.8966,-3.8857,-3.8673,-3.8538,-3.8428,-3.802,-3.8202,0.0,-3.7437,0.0,0.0,0.0,0.0,0.0,-3.3904,0.0,0.0,0.0,0.0,0.0,0.0,0.0,0.0,0.0,0.0,0.0,0.0,0.0,0.0,0.0,0.0,0.0,0.0,0.0,0.0,0.0,0.0,0.0,0.0,0.0,0.0,-3.4645,-3.4386,-3.4374,-3.4737,-3.4623,-3.4561,-3.4602,-3.4561,-3.4843,-3.5476,-3.5604,-3.6269,-3.7479,-3.791,-3.8434,-3.9052,-3.9327,-3.9526,-3.9647,-3.9647,-3.9693,-3.9781,-3.9682,-3.9635,-3.9587,-3.9471,-3.9495,-3.958,-3.9635,-3.9647,-3.9647,-3.793,-3.7911,-3.7911,-3.7911,-3.7726,-3.7498,-3.7285,-3.7993,-3.8447,-3.8206,-3.8926,-3.9364,-3.9105,-3.9082,-3.9101,-3.9101,0.0,-3.9101,-3.9101,0.0,-3.9059,0.0,0.0,-3.8862,-3.8807,-3.8735,-3.8707,-3.8707,-3.8707,0.0,0.0,0.0,0.0,0.0,-3.8719,-3.8785,-3.891,-3.905,-3.9008,-3.8828,-3.8814,-3.86,-3.8305,0.0,-3.89,-3.8615,-3.86,0.0,0.0,-3.7303,-3.7791,0.0,0.0,0.0,0.0,0.0,0.0,0.0,0.0,0.0,0.0,-3.3577,0.0,0.0,0.0,0.0,-3.3393,0.0,0.0,0.0,0.0,0.0,0.0,0.0,0.0,0.0,0.0,0.0,0.0,0.0,0.0,0.0,0.0,0.0,0.0,-3.4269,-3.3943,-3.3993,-3.4572,-3.4484,-3.4473,-3.4602,-3.4473,-3.4473,-3.4639,-3.5088,-3.5347,-3.5421,-3.6897,-3.7701,-3.789,-3.8859,-3.9389,-3.9514,-3.9514,-3.9514,-3.9495,-3.9514,-3.9439,-3.9311,-3.9311,-3.9311,-3.9337,-3.9464,-3.9514,-3.9514,-3.965,-3.965,-3.9246,-3.7967,-3.814,-3.8566,-3.8909,-3.9086,-3.9166,-3.907,-3.915,-3.9192,-3.9115,-3.9101,-3.9101,0.0,0.0,-3.9101,-3.9101,-3.9064,0.0,0.0,0.0,-3.8822,0.0,0.0,-3.8707,-3.8707,-3.8707,-3.8707,-3.8707,-3.8707,0.0,0.0,0.0,-3.8735,0.0,0.0,0.0,0.0,0.0,-3.864,-3.8336,0.0,0.0,-3.8338,-3.8338,-3.829,0.0,-3.7267,-3.7255,-3.7421,-3.6591,-3.6744,-3.697,-3.5548,-3.5287,0.0,0.0,0.0,-3.3408,-3.3452,0.0,0.0,0.0,0.0,0.0,0.0,0.0,0.0,0.0,0.0,0.0,0.0,0.0,0.0,0.0,0.0,0.0,0.0,0.0,0.0,0.0,0.0,0.0,-3.4006,-3.3698,-3.3648,-3.3993,-3.3915,-3.3881,-3.3934,-3.3895,-3.3895,-3.3934,-3.4091,-3.444,-3.4972,-3.6047,-3.685,-3.7441,-3.8309,-3.8865,-3.9165,-3.9165,-3.9279,-3.9483,-3.9395,-3.935,-3.9298,-3.9192,-3.9183,-3.9178,-3.9324,-3.9376,-3.9363,-4.0496,-4.0496,-4.0092,-3.8857,-3.8955,-3.9325,-3.9633,-3.9501,-3.9363,-3.9363,-3.9485,0.0,-3.9547,0.0,-3.9993,0.0,-3.9733,-3.9533,-3.9486,-3.9188,0.0,-3.8921,-3.8851,-3.8792,0.0,0.0,0.0,0.0,0.0,-3.8707,-3.8707,-3.8707,-3.8707,-3.8707,0.0,-3.8673,-3.864,-3.8862,-3.8917,0.0,0.0,-3.8597,0.0,0.0,-3.8225,-3.8242,0.0,-3.8225,-3.8028,-3.6941,-3.6759,-3.6814,-3.5729,-3.596,-3.6442,-3.5346,-3.5217,-3.5208,-3.4114,-3.3628,0.0,-3.3422,-3.3408,0.0,-3.3422,0.0,0.0,0.0,0.0,0.0,0.0,0.0,0.0,0.0,0.0,0.0,0.0,-3.29,0.0,0.0,0.0,0.0,0.0,0.0,-3.3386,-3.3634,-3.3455,-3.343,0.0,0.0,-3.3605,-3.3605,-3.3605,-3.3605,-3.3605,-3.3502,-3.3713,-3.4236,-3.5345,-3.6126,-3.6669,-3.7874,-3.8541,-3.8781,-3.8888,-3.9059,-3.9259,-3.9232,-3.9232,-3.9219,-3.9124,-3.9101,-3.9115,-3.9192,-3.9232,-3.9219,-4.0496,-4.0489,-4.0481,-4.0473,-4.0101,-3.972,0.0,0.0,-3.9184,0.0,-3.9932,-4.0471,-4.0471,-4.1126,-4.159,-4.159,-4.0903,-4.0395,-4.027,-3.9497,0.0,0.0,-3.8825,-3.878,-3.8707,0.0,0.0,0.0,0.0,0.0,-3.8707,-3.8707,-3.8707,-3.8707,-3.8707,0.0,-3.8525,-3.8658,-3.8624,-3.851,-3.843,-3.8399,-3.8382,-3.8274,-3.8241,-3.8307,-3.8307,-3.8257,-3.7955,-3.6345,-3.6309,-3.6669,-3.5059,-3.508,-3.5731,-3.5695,-3.5188,-3.4627,-3.457,-3.4009,-3.3462,-3.3481,0.0,0.0,0.0,0.0,-3.3393,0.0,0.0,0.0,0.0,0.0,0.0,0.0,0.0,0.0,0.0,0.0,0.0,0.0,0.0,0.0,0.0,-3.29,-3.2977,-3.3175,-3.319,-3.3294,0.0,0.0,-3.3577,-3.3577,-3.3577,-3.3577,-3.3577,-3.3309,-3.319,-3.3208,-3.481,-3.5584,-3.5638,-3.7507,-3.8366,-3.8399,-3.8652,-3.8773,-3.8822,-3.9003,-3.9101,-3.9101,-3.9101,-3.9101,-3.9087,-3.9101,-3.9101,-3.9101,-4.0496,-4.0372,-4.0213,-4.0004,-3.9882,-3.972,0.0,0.0,0.0,0.0,-4.0878,-4.1293,-4.1293,-4.1479,-4.159,-4.159,-4.1364,0.0,0.0,0.0,0.0,-3.9694,-3.9062,-3.8723,-3.8707,-3.8707,0.0,-3.8707,0.0,0.0,-3.8707,-3.8707,-3.8707,-3.8707,0.0,-3.8673,-3.8658,-3.8692,-3.8673,-3.8643,-3.8528,-3.8478,0.0,0.0,-3.8338,-3.829,-3.8241,-3.8259,-3.8021,-3.6361,-3.5931,-3.5838,-3.4226,-3.4262,-3.479,-3.419,-3.4718,-3.5225,-3.4027,-3.3991,-3.4154,-3.3571,-3.3408,-3.3393,0.0,0.0,0.0,0.0,0.0,0.0,0.0,0.0,0.0,0.0,0.0,0.0,0.0,0.0,0.0,-3.29,0.0,0.0,0.0,-3.29,-3.2932,-3.2961,-3.2977,0.0,0.0,0.0,0.0,-3.307,-3.307,-3.307,-3.307,-3.3008,-3.2977,-3.2995,-3.4554,-3.5305,-3.5359,-3.7039,-3.7915,-3.8119,-3.832,-3.8578,-3.8822,-3.8964,-3.9064,-3.9101,-3.9101,-3.9003,-3.8892,-3.9045,-3.9101,-3.9101,-4.04,-4.0565,-4.0606,-4.0265,0.0,0.0,-4.0102,-4.0338,0.0,-4.1062,-4.1692,0.0,-4.211,-4.2445,-4.2634,-4.2622,-4.2245,0.0,-4.1899,0.0,0.0,-3.9963,-3.9491,-3.9056,-3.8707,-3.8707,0.0,-3.8707,0.0,0.0,-3.8707,-3.8707,-3.8707,-3.8707,0.0,-3.8505,-3.8175,-3.8175,-3.8175,-3.8193,-3.8413,0.0,0.0,-3.8401,-3.8354,-3.8302,-3.7842,-3.7716,-3.7533,-3.6236,-3.5569,-3.5062,-3.381,-3.3719,-3.4063,-3.3954,-3.4317,-3.4643,-3.4081,-3.4009,-3.3973,-3.352,-3.3393,-3.3393,-3.3393,-3.3393,-3.3382,0.0,0.0,0.0,0.0,0.0,0.0,0.0,0.0,0.0,0.0,0.0,0.0,0.0,-3.29,0.0,0.0,-3.29,-3.29,-3.29,-3.29,0.0,0.0,0.0,0.0,-3.29,-3.29,-3.29,-3.29,-3.29,-3.29,-3.2918,-3.437,-3.5118,-3.5258,-3.6664,-3.7466,-3.7685,-3.7845,-3.8069,-3.8316,-3.8541,-3.8676,-3.8796,-3.8855,-3.8766,-3.86,-3.8718,-3.8763,-3.8796,-4.0558,-4.1084,-4.1421,0.0,0.0,0.0,0.0,-4.0831,0.0,-4.1664,0.0,-4.2946,-4.2949,-4.3562,-4.3958,-4.3881,0.0,-4.2746,-4.2582,-4.1795,-4.1009,-4.0265,-4.001,-3.957,-3.8872,-3.8762,-3.8707,0.0,0.0,0.0,-3.8707,-3.8707,-3.8652,-3.8542,0.0,0.0,0.0,-3.7492,-3.7547,-3.7683,-3.8251,-3.8478,-3.8462,-3.8229,-3.8158,-3.8113,-3.717,-3.6904,-3.6884,-3.5946,-3.517,-3.4461,-3.3647,-3.3393,-3.3538,-3.4244,-3.4027,-3.3701,-3.428,-3.4009,-3.3538,-3.3429,-3.3393,-3.3393,-3.3393,-3.3378,-3.3367,-3.3292,-3.3165,-3.3073,0.0,0.0,0.0,0.0,0.0,0.0,0.0,0.0,0.0,0.0,0.0,0.0,0.0,0.0,0.0,0.0,0.0,0.0,0.0,0.0,0.0,-3.29,-3.2884,-3.2868,-3.2868,0.0,-3.2818,-3.2854,-3.4216,-3.496,-3.5189,-3.644,-3.7105,-3.7259,-3.7338,-3.7486,-3.7685,-3.7931,-3.8133,-3.8316,-3.8442,-3.836,-3.8178,-3.8178,-3.8198,-3.8234,-4.223,-4.2292,-4.2226,0.0,0.0,-4.2069,-4.2377,-4.24,-4.2426,-4.2575,-4.328,-4.3769,-4.3725,-4.382,-4.3899,-4.382,-4.3588,0.0,0.0,0.0,0.0,-4.1882,-4.0598,-3.9827,-3.968,-3.9038,-3.8707,0.0,0.0,0.0,0.0,0.0,0.0,0.0,0.0,0.0,-3.7492,-3.7492,0.0,-3.8324,-3.8392,-3.8385,-3.8249,-3.7497,-3.7245,-3.7152,-3.6306,-3.6483,-3.684,-3.531,-3.4718,-3.4461,-3.3647,-3.3393,-3.3429,-3.3574,-3.3991,-3.428,-3.3755,-3.3991,-3.4244,-3.3574,-3.3393,-3.3393,-3.3393,-3.3352,-3.3292,-3.3165,-3.3073,-3.2995,-3.2932,0.0,0.0,0.0,0.0,0.0,0.0,0.0,0.0,0.0,0.0,-3.2655,0.0,0.0,0.0,0.0,0.0,0.0,0.0,0.0,0.0,0.0,-3.2737,0.0,0.0,0.0,-3.2403,-3.2421,-3.3987,-3.4744,-3.4851,-3.6306,-3.7027,-3.7066,-3.7186,-3.732,-3.745,-3.7614,-3.7737,-3.7823,-3.7857,-3.772,-3.7578,-3.7578,-3.7431,-3.73,-4.2408,-4.2701,-4.2875,-4.2403,0.0,0.0,0.0,-4.3367,-4.3367,-4.3367,-4.3719,-4.3929,-4.3851,-4.3851,-4.3802,-4.3719,-4.3634,-4.3582,-4.3548,-4.3147,-4.2745,-4.2323,-4.1167,-4.0322,-3.9916,-3.9111,-3.8707,-3.8707,0.0,0.0,0.0,0.0,0.0,-3.7474,0.0,-3.6839,0.0,0.0,0.0,-3.7241,-3.7614,-3.7496,-3.6999,-3.6585,-3.6411,-3.6272,-3.5476,-3.5437,-3.5667,-3.486,-3.4317,-3.3918,-3.352,-3.3393,-3.3393,-3.3393,-3.3665,-3.39,-3.3502,-3.3683,-3.3882,-3.3502,-3.3393,-3.3393,-3.3393,-3.3352,-3.3262,-3.3135,-3.288,-3.267,-3.2588,-3.2606,0.0,0.0,0.0,0.0,0.0,0.0,0.0,0.0,0.0,0.0,0.0,0.0,0.0,0.0,0.0,0.0,0.0,0.0,0.0,0.0,0.0,0.0,0.0,0.0,0.0,-3.295,-3.3999,-3.477,-3.5302,-3.6227,-3.671,-3.6829,-3.6774,-3.6856,-3.7048,-3.7225,-3.7321,-3.7378,-3.7433,-3.7285,-3.7038,-3.7113,-3.6935,-3.6713,-4.2777,-4.3221,0.0,0.0,-4.3707,0.0,-4.3913,-4.3883,-4.3883,-4.3883,-4.3883,-4.3851,-4.3771,-4.3771,-4.3719,-4.3582,-4.3582,-4.3548,-4.3496,-4.3515,-4.3222,-4.258,-4.1791,-4.0983,-4.0175,-3.9368,-3.8872,0.0,0.0,0.0,0.0,0.0,0.0,0.0,0.0,0.0,0.0,0.0,-3.6459,-3.6033,-3.6656,-3.65,-3.5856,-3.5693,-3.5592,-3.5442,-3.4643,-3.4353,-3.4353,-3.4353,-3.3918,-3.3393,-3.3393,-3.3393,-3.3393,-3.3393,-3.3393,-3.3393,-3.3393,-3.3393,-3.3393,-3.3393,-3.3396,-3.3382,-3.3382,-3.3307,-3.3216,-3.3104,-3.2719,-3.2352,-3.2197,-3.2437,0.0,0.0,0.0,0.0,0.0,0.0,0.0,0.0,0.0,0.0,0.0,0.0,0.0,0.0,0.0,-3.2589,-3.2538,-3.2386,-3.2301,0.0,0.0,-3.2266,-3.2266,0.0,-3.2581,0.0,-3.3951,-3.4716,-3.5636,-3.606,-3.636,-3.6541,-3.6339,-3.636,-3.662,-3.6788,-3.6853,-3.6913,-3.6974,-3.6821,-3.662,-3.6701,-3.6553,-3.6343,0.0,0.0,0.0,0.0,0.0,0.0,-4.3851,-4.3804,-4.3804,-4.3804,-4.3804,-4.3753,-4.3615,-4.3615,-4.36,-4.3532,-4.3515,-4.3515,-4.3515,-4.3515,-4.3478,-4.3404,-4.2616,-4.1809,-4.1003,-4.0194,-3.9423,0.0,0.0,0.0,0.0,0.0,0.0,0.0,0.0,0.0,0.0,-3.5312,-3.5377,-3.5921,-3.5978,-3.595,-3.5729,-3.5005,-3.4715,-3.4624,-3.381,-3.352,-3.352,-3.352,-3.3465,-3.3393,-3.3393,-3.3393,-3.3393,-3.3393,-3.3393,-3.3393,-3.3393,-3.3393,-3.3393,-3.3393,-3.3352,-3.3307,-3.3307,-3.3152,-3.3011,-3.3011,-3.2639,-3.2197,-3.1823,-3.1804,-3.186,0.0,0.0,0.0,0.0,0.0,0.0,-3.1317,0.0,0.0,0.0,-3.202,0.0,0.0,-3.2453,-3.2505,-3.2335,-3.2318,-3.2301,-3.2301,0.0,-3.2126,-3.2126,-3.1929,-3.2218,-3.2961,-3.3621,-3.4338,-3.5115,-3.5741,-3.6041,-3.6062,-3.6041,-3.6122,-3.6251,-3.6339,-3.6339,-3.6272,-3.6293,-3.6272,-3.6251,-3.6251,-3.6229,-3.6208,0.0,0.0,0.0,0.0,0.0,0.0,0.0,-4.3667,-4.3686,-4.3635,-4.3651,-4.3634,-4.3566,-4.3531,-4.3513,-4.3496,-4.3515,-4.3515,-4.3515,-4.3515,-4.3515,-4.3515,-4.2727,-4.2158,-4.1827,-4.0561,-3.9735,0.0,0.0,0.0,0.0,0.0,0.0,0.0,0.0,-3.5137,-3.5226,-3.5387,-3.5324,-3.5123,-3.5123,-3.4818,-3.432,-3.4009,-3.3882,-3.3846,-3.352,-3.3393,-3.3393,-3.3393,-3.3393,-3.3393,-3.3393,-3.3393,-3.3393,-3.3393,-3.3393,-3.3393,-3.3393,-3.3393,-3.3393,-3.3393,-3.3352,-3.331,-3.331,-3.3137,-3.2995,-3.2995,-3.2639,-3.2091,-3.1452,-3.164,-3.175,0.0,0.0,0.0,0.0,0.0,0.0,0.0,0.0,-3.0928,0.0,0.0,0.0,0.0,0.0,-3.2301,-3.2301,-3.2109,-3.1984,-3.1984,0.0,-3.1874,-3.1802,-3.1727,-3.2254,-3.3379,-3.3648,-3.4415,-3.5617,-3.5882,-3.5997,-3.5997,-3.5997,-3.6019,-3.6062,-3.6105,-3.6062,-3.5971,-3.6058,-3.6036,-3.5971,-3.6058,-3.6079,-3.6079,-4.417,0.0,-4.3876,0.0,-4.3599,-4.3582,-4.3565,-4.3565,-4.3548,-4.3515,-4.3531,-4.3548,-4.3515,-4.3515,-4.3515,-4.3515,-4.3515,-4.3515,-4.3515,-4.3515,-4.3515,-4.3515,-4.2947,0.0,-4.2304,-4.1185,-4.0359,-3.99,-3.8759,0.0,0.0,0.0,0.0,0.0,-3.5152,-3.5045,-3.4682,-3.5024,-3.4812,-3.4262,-3.4262,-3.3918,-3.3393,-3.3393,-3.3393,-3.3393,-3.3393,-3.3393,-3.3393,-3.3393,-3.3393,-3.3393,-3.3393,-3.3393,-3.3393,-3.3393,-3.3393,-3.3393,-3.3393,-3.3396,-3.3367,-3.3367,-3.3292,-3.3216,-3.3216,-3.3091,-3.29,-3.2654,-3.2352,-3.1877,-3.1044,-3.1338,-3.149,-3.0825,0.0,0.0,0.0,0.0,0.0,0.0,-3.0405,-3.0435,-3.0118,-3.0645,0.0,0.0,0.0,0.0,-3.2073,-3.1857,0.0,0.0,0.0,0.0,0.0,-3.18,-3.2498,-3.3704,-3.3902,-3.4665,-3.5932,-3.5888,-3.5888,-3.5888,-3.591,-3.5932,-3.5932,-3.5975,-3.591,-3.5817,-3.5888,-3.5866,-3.5817,-3.5905,-3.5932,-3.5932,-4.4091,-4.3828,-4.3599,-4.3599,-4.3599,-4.3565,-4.3515,-4.3515,-4.3515,-4.3515,-4.3515,-4.3515,-4.3515,-4.3515,-4.3515,-4.3515,-4.3515,-4.3515,-4.3515,-4.3515,-4.3515,0.0,0.0,-4.3112,-4.2323,-4.2286,-4.1497,-3.99,0.0,0.0,-3.7456,0.0,-3.4877,-3.4758,-3.3902,-3.3938,-3.4552,-3.3755,-3.3429,-3.3411,-3.3411,-3.3411,-3.3393,-3.3393,-3.3393,-3.3393,-3.3393,-3.3393,-3.3393,-3.3393,-3.3393,-3.3393,-3.3393,-3.3393,-3.3393,-3.3393,-3.3393,-3.3393,-3.3393,-3.3352,-3.331,-3.331,-3.3137,-3.2995,-3.2995,-3.2948,-3.2688,-3.1878,-3.1714,-3.1433,-3.0568,-3.0736,-3.0902,-3.0551,0.0,0.0,0.0,0.0,0.0,0.0,-3.0992,-3.0938,-3.0335,0.0,0.0,0.0,0.0,0.0,0.0,0.0,0.0,-3.1498,-3.1498,0.0,-3.1498,-3.2215,-3.2969,-3.37,-3.438,-3.5081,-3.5795,-3.5667,-3.56,-3.5622,-3.5734,-3.5795,-3.5817,-3.5949,-3.591,-3.5795,-3.5795,-3.5795,-3.5795,-3.5795,-3.5795,-3.5795,-4.3812,-4.3682,-4.3582,-4.3531,-4.3531,-4.3513,-4.3496,-4.3515,-4.3515,-4.3515,-4.3515,-4.3515,-4.3515,-4.3515,-4.3515,0.0,-4.3515,-4.3515,0.0,-4.3515,-4.3515,-4.3515,-4.3515,-4.3386,-4.3112,-4.258,-4.2047,-4.1534,0.0,0.0,0.0,-3.51,-3.4809,-3.4717,-3.4392,-3.4078,-3.3773,-3.352,-3.3393,-3.3393,-3.3393,-3.3393,-3.3393,-3.3393,-3.3393,-3.3393,-3.3393,-3.3393,-3.3393,-3.3393,-3.3393,-3.3378,-3.3352,-3.3367,-3.3396,-3.3352,-3.3322,-3.3322,-3.3211,-3.318,-3.3165,-3.3165,-3.3073,-3.2995,-3.2995,-3.2948,-3.2654,-3.186,-3.1695,-3.1433,-3.0551,-3.063,-3.0654,-3.0231,-3.0305,0.0,0.0,0.0,0.0,0.0,-2.981,-2.9633,0.0,-2.9673,0.0,0.0,0.0,0.0,0.0,0.0,0.0,0.0,-3.1498,0.0,-3.1351,-3.2134,-3.2859,-3.3511,-3.4215,-3.4939,-3.5667,-3.5622,-3.56,-3.56,-3.5644,-3.5667,-3.5667,-3.5711,-3.5711,-3.5667,-3.5667,-3.5667,-3.5667,-3.5667,-3.5667,-3.5644,-4.3649,-4.3565,-4.3548,-4.3515,-4.3515,-4.3515,-4.3515,-4.3515,-4.3515,-4.3515,-4.3515,-4.3515,-4.3515,-4.3515,0.0,-4.3515,-4.3515,-4.3515,-4.3515,-4.3515,-4.3515,-4.3515,-4.3515,-4.3515,-4.3515,0.0,0.0,-4.1864,-3.8912,-3.674,-3.5316,-3.4936,-3.4571,-3.4251,-3.418,-3.3882,-3.3393,-3.3393,-3.3393,-3.3393,-3.3393,-3.3393,-3.3393,-3.3393,-3.3393,-3.3393,-3.3393,-3.3393,-3.3393,-3.3393,-3.3364,-3.3337,-3.3137,-3.3088,-3.3088,-3.306,-3.3044,-3.2979,-3.2734,-3.275,-3.2848,-3.2848,-3.313,-3.3412,-3.3412,-3.338,-3.3044,-3.1929,-3.166,-3.1359,-3.0489,-3.038,-3.0338,-2.9995,-3.0065,-3.0087,-2.9924,0.0,0.0,0.0,0.0,0.0,0.0,-2.9196,0.0,0.0,0.0,0.0,0.0,0.0,0.0,-3.1134,-3.1117,0.0,-3.1661,-3.2442,-3.3164,-3.3829,-3.4556,-3.5143,-3.5571,-3.5571,-3.5526,-3.5503,-3.5549,-3.5571,-3.5571,-3.5577,-3.56,-3.56,-3.56,-3.56,-3.56,-3.56,-3.56,-3.5577,-4.3582,-4.3515,0.0,0.0,-4.3515,0.0,-4.3515,-4.3515,-4.3515,-4.3515,-4.3515,-4.3515,-4.3515,-4.3515,-4.3515,-4.3515,0.0,0.0,0.0,-4.3515,-4.3515,-4.3515,-4.3515,-4.3461,-4.3406,-4.3406,-4.2581,-4.0914,-3.8538,-3.6888,-3.5903,-3.5023,-3.4215,-3.3495,-3.3422,-3.3393,-3.3393,-3.3393,-3.3393,-3.3393,-3.3364,-3.3364,-3.3364,-3.3364,-3.3349,-3.3334,-3.3378,-3.3378,-3.3364,-3.3396,-3.3337,-3.3183,-3.28,-3.2621,-3.2538,-3.2538,-3.2538,-3.2471,-3.2074,-3.2162,-3.2351,-3.2351,-3.3207,-3.4064,-3.4081,-3.4081,-3.3631,-3.2102,-3.1603,-3.1191,-3.0342,-3.0081,-2.9973,-2.988,-2.9896,-2.9896,-2.9852,0.0,0.0,0.0,0.0,0.0,0.0,-2.9044,-2.8897,0.0,0.0,0.0,0.0,0.0,-3.0481,-3.0456,-3.0468,-3.1041,-3.2232,-3.3005,-3.3782,-3.4551,-3.5239,-3.5549,-3.5492,-3.5492,-3.5423,-3.5314,-3.5446,-3.5492,-3.5492,-3.5571,-3.56,-3.56,-3.56,-3.56,-3.56,-3.56,-3.5577,-3.5554,0.0,0.0,-4.3515,-4.3515,-4.3515,-4.3515,-4.3515,-4.3515,-4.3515,-4.3515,-4.3515,-4.3515,-4.3515,-4.3515,-4.3515,-4.3515,-4.3515,-4.3515,-4.3515,-4.3515,-4.3515,-4.3515,-4.3515,-4.3187,-4.2513,-4.2513,-4.1362,-3.9031,-3.7846,-3.6471,-3.4978,-3.4178,-3.3662,-3.3422,-3.3411,-3.3393,-3.3393,-3.3393,-3.3393,-3.3364,-3.3068,-3.2939,-3.2939,-3.2939,-3.2781,-3.2619,-3.3211,-3.3193,-3.2972,-3.3244,-3.3104,-3.28,-3.2554,-3.2248,-3.2003,-3.2003,-3.2003,-3.1968,-3.1805,-3.1823,-3.186,-3.186,-3.2756,-3.3723,-3.4031,-3.3861,-3.3424,-3.2629,-3.175,-3.0888,-3.0172,-3.0017,-2.9908,-2.9643,-2.977,-2.9748,-2.9366,-2.9236,0.0,0.0,-2.8771,-2.8621,-2.8573,-2.8573,-2.8653,0.0,0.0,0.0,0.0,-2.9166,-2.9467,-2.9805,-3.0212,-3.0809,-3.1601,-3.2745,-3.3925,-3.5115,-3.5299,-3.536,-3.5354,-3.5354,-3.5314,-3.5291,-3.5314,-3.5423,-3.5492,-3.5514,-3.5549,-3.56,-3.56,-3.5571,-3.552,-3.552,-3.5452,-3.536,-4.3565,-4.3515,-4.3515,-4.3515,-4.3515,-4.3515,-4.3515,-4.3515,-4.3515,-4.3515,-4.3515,-4.3515,-4.3515,-4.3515,-4.3515,-4.3515,-4.3515,-4.3515,-4.3515,-4.3515,-4.3332,-4.2965,-4.2913,-4.2512,-4.1673,-4.1584,-4.0694,-3.8899,-3.7553,-3.6293,-3.5178,-3.4192,-3.3617,-3.3393,-3.3393,-3.3393,-3.3393,-3.3393,-3.3393,-3.3364,-3.2972,-3.2795,-3.2779,-3.2634,-3.2452,-3.2351,-3.275,-3.2716,-3.2501,-3.2684,-3.2553,-3.2248,-3.1968,-3.1696,-3.1454,-3.1264,-3.134,-3.1435,-3.1203,-3.1298,-3.1557,-3.2107,-3.2987,-3.3839,-3.427,-3.4302,-3.3946,-3.2915,-3.2021,-3.1103,-3.0174,-2.9973,-2.9842,-2.9538,-2.9621,-2.9576,-2.9144,-2.8982,0.0,-2.8708,-2.8525,-2.8411,-2.8411,-2.8411,-2.8517,-2.8756,0.0,0.0,-2.859,-2.8764,-2.9112,-2.9633,-2.9927,-3.0672,-3.1902,-3.3174,-3.431,-3.5291,-3.5291,-3.5135,-3.4818,-3.5088,-3.5041,-3.478,-3.5081,-3.5245,-3.5314,-3.5377,-3.5452,-3.5566,-3.5481,-3.5475,-3.5492,-3.5446,-3.5377,-3.5268,-4.3548,-4.3515,-4.3515,-4.3515,-4.3515,-4.3515,-4.3515,-4.3515,-4.3515,-4.3515,-4.3515,-4.3515,-4.3515,-4.3515,-4.3515,-4.3515,-4.3515,-4.3515,-4.3515,-4.3387,-4.2985,-4.2306,-4.2092,-4.162,-4.0781,-4.0533,-4.0012,-3.9203,-3.7377,-3.6232,-3.577,-3.4489,-3.372,-3.3406,-3.3325,-3.3319,-3.3319,-3.3319,-3.3319,-3.3271,-3.2813,-3.2634,-3.2601,-3.2317,-3.2179,-3.2144,-3.2266,-3.2179,-3.2039,-3.2074,-3.1933,-3.1661,-3.1374,-3.1142,-3.0945,-3.0593,-3.074,-3.0925,-3.0593,-3.074,-3.1275,-3.2353,-3.3274,-3.4027,-3.4486,-3.4772,-3.46,-3.3203,-3.2313,-3.143,-3.0337,-3.0005,-2.9814,-2.9538,-2.9493,-2.938,-2.9075,0.0,-2.8685,-2.8653,-2.8501,-2.8411,-2.8411,-2.8411,-2.8387,-2.8372,-2.8367,-2.8339,-2.829,-2.8702,-2.921,-2.9788,-2.9813,-3.0685,-3.2466,-3.3753,-3.4617,-3.5128,-3.5198,-3.4883,-3.4226,-3.4794,-3.4732,-3.4126,-3.4804,-3.5065,-3.5105,-3.5222,-3.5354,-3.5469,-3.5337,-3.5377,-3.5423,-3.5314,-3.5268,-3.5222,-4.3515,-4.3515,-4.3515,-4.3515,-4.3515,-4.3515,-4.3515,-4.3515,-4.3515,-4.3515,-4.3515,-4.3515,-4.3515,-4.3515,-4.3515,-4.3515,-4.3515,-4.3515,-4.3515,-4.2822,-4.2366,-4.2221,-4.1441,-4.0607,-3.9756,-3.8982,-3.8343,-3.7811,-3.6827,-3.6114,-3.568,-3.4181,-3.3459,-3.3389,-3.3033,-3.2892,-3.2892,-3.2892,-3.2892,-3.2844,-3.2144,-3.186,-3.1878,-3.1805,-3.1637,-3.1447,-3.2074,-3.2021,-3.1714,-3.195,-3.1732,-3.1336,-3.1181,-3.0865,-3.0572,-3.0526,-3.0531,-3.0572,-3.0526,-3.0568,-3.0712,-3.1238,-3.2445,-3.3605,-3.4007,-3.4267,-3.4322,-3.3943,-3.2459,-3.1126,-3.0826,-3.0285,-2.9814,-2.9538,-2.9493,-2.9335,-2.8826,0.0,-2.8629,-2.8468,-2.842,-2.8411,-2.8411,-2.8411,-2.8348,-2.8235,-2.8746,-2.8951,-2.8722,-2.9309,-2.9858,-3.037,-3.0385,-3.1022,-3.2404,-3.3617,-3.4251,-3.43,-3.4756,-3.4667,-3.4134,-3.4691,-3.4618,-3.4126,-3.4691,-3.4994,-3.5088,-3.5128,-3.5222,-3.5331,-3.5314,-3.5245,-3.5175,-3.5152,-3.5065,-3.497,-4.3515,-4.3515,-4.3515,-4.3515,-4.3515,-4.3515,-4.3515,-4.3515,-4.3515,-4.3515,-4.3515,-4.3515,-4.3515,-4.3515,-4.348,-4.3464,-4.3446,-4.3227,-4.2717,-4.2387,-4.1784,-4.0838,-4.0352,-3.9686,-3.882,-3.8407,-3.7967,-3.7505,-3.6911,-3.6316,-3.5668,-3.4338,-3.3607,-3.3371,-3.2788,-3.2535,-3.2535,-3.2535,-3.2535,-3.2485,-3.1914,-3.1695,-3.1677,-3.1506,-3.1293,-3.1134,-3.1487,-3.1393,-3.114,-3.1259,-3.1103,-3.0861,-3.0801,-3.0654,-3.0506,-3.0506,-3.0506,-3.0506,-3.0506,-3.0506,-3.0531,-3.072,-3.1905,-3.3122,-3.3502,-3.4061,-3.4422,-3.4046,-3.3034,-3.1957,-3.1056,-3.0555,-3.0041,-2.9391,-2.9152,0.0,0.0,-2.8549,-2.8501,-2.8396,-2.8411,-2.8411,-2.8411,-2.8735,-2.8885,-2.8746,-2.9271,-2.9538,-2.9343,-2.9865,-3.0278,-3.0492,-3.0838,-3.1479,-3.2398,-3.2949,-3.3517,-3.4101,-3.4002,-3.386,-3.362,-3.386,-3.3834,-3.3646,-3.4234,-3.4667,-3.4994,-3.4994,-3.5065,-3.5198,-3.5111,-3.5088,-3.5088,-3.5018,-3.4947,-3.4899,-4.3515,-4.3515,-4.3515,-4.3515,-4.3515,-4.3515,-4.3515,-4.3515,-4.3515,-4.3515,-4.3515,-4.3515,-4.3515,-4.348,-4.3464,-4.3394,-4.3194,-4.2665,-4.1756,-4.1625,-4.0985,-3.9642,-3.934,-3.8874,-3.8209,-3.8209,-3.7915,-3.7377,-3.7055,-3.6484,-3.5655,-3.4416,-3.3694,-3.3359,-3.2528,-3.2162,-3.2162,-3.2162,-3.2162,-3.2127,-3.1749,-3.1582,-3.1545,-3.1271,-3.1092,-3.0995,-3.0975,-3.0855,-3.0692,-3.0692,-3.0609,-3.0506,-3.0506,-3.0506,-3.0506,-3.0506,-3.0506,-3.0506,-3.0506,-3.0506,-3.0506,-3.0506,-3.1487,-3.2547,-3.2959,-3.3742,-3.4312,-3.4054,-3.3569,-3.2804,-3.1514,-3.1044,-3.0496,-2.9508,0.0,0.0,0.0,-2.842,-2.8473,-2.8611,-2.8642,-2.8704,-2.8858,-2.9285,-2.9541,-2.9399,-2.9867,-3.0102,-2.9967,-3.0458,-3.0746,-3.0746,-3.1227,-3.171,-3.2176,-3.2342,-3.2846,-3.3704,-3.3371,-3.3145,-3.3013,-3.3145,-3.3145,-3.3039,-3.379,-3.4325,-3.4715,-3.4851,-3.497,-3.5041,-3.4947,-3.497,-3.5041,-3.4947,-3.4899,-3.4899,-4.3515,-4.3515,-4.3515,-4.3515,-4.3515,-4.3515,-4.3515,-4.3515,-4.3515,-4.3515,-4.3515,-4.3515,-4.3515,-4.3446,-4.3412,-4.3394,-4.2592,-4.1738,-4.085,-4.0104,-3.9631,-3.9522,-3.8731,-3.8263,-3.8209,-3.8209,-3.7792,-3.6939,-3.6919,-3.646,-3.5593,-3.4109,-3.3435,-3.3358,-3.2235,-3.1732,-3.1732,-3.1732,-3.1732,-3.1714,-3.137,-3.1249,-3.123,-3.1055,-3.0995,-3.0995,-3.0932,-3.0831,-3.0692,-3.0692,-3.0609,-3.0506,-3.0506,-3.0506,-3.0506,-3.0506,-3.0506,-3.0506,-3.0506,-3.0506,-3.0506,-3.0506,-3.1101,-3.1824,-3.2419,-3.304,-3.3638,-3.4162,-3.364,-3.2975,-3.256,-3.1958,-3.119,-3.0188,0.0,0.0,-2.8794,-2.8525,-2.8642,-2.9233,-2.9335,-2.9556,-3.0186,-3.0175,-3.0101,-2.9943,-3.0389,-3.0586,-3.0475,-3.1062,-3.1436,-3.1436,-3.1481,-3.1524,-3.1553,-3.212,-3.2437,-3.252,-3.2986,-3.2949,-3.2465,-3.296,-3.2922,-3.252,-3.361,-3.4126,-3.4201,-3.4707,-3.4899,-3.4923,-3.4899,-3.4899,-3.4923,-3.4899,-3.4899,-3.4899,-4.3515,-4.3515,-4.3515,-4.3515,-4.3515,-4.3515,-4.3515,-4.3515,-4.3515,-4.3515,-4.3515,-4.348,-4.3446,-4.3429,-4.3359,-4.3233,-4.2432,-4.1559,-4.0636,-3.9856,-3.922,-3.8712,-3.8389,-3.8209,-3.8209,-3.7897,-3.7487,-3.69,-3.6658,-3.622,-3.5583,-3.4556,-3.3846,-3.3355,-3.2468,-3.1815,-3.1389,-3.1389,-3.1389,-3.137,-3.1249,-3.119,-3.119,-3.1055,-3.0975,-3.0932,-3.0814,-3.0692,-3.0589,-3.0589,-3.0547,-3.0506,-3.0506,-3.0506,-3.0506,-3.0506,-3.0506,-3.0506,-3.0506,-3.0506,-3.0506,-3.0506,-3.1026,-3.1687,-3.2245,-3.2852,-3.3445,-3.4054,-3.3915,-3.3492,-3.2743,-3.2281,-3.1709,-3.071,0.0,-3.0078,-2.9799,-2.9693,-2.9725,-2.9986,-3.0017,-3.0125,-3.0371,-3.065,-3.0762,-3.0615,-3.1099,-3.1308,-3.115,-3.1361,-3.1511,-3.1511,-3.1511,-3.1511,-3.1511,-3.1726,-3.2035,-3.2398,-3.2216,-3.2244,-3.2398,-3.2216,-3.2244,-3.2425,-3.2846,-3.3455,-3.4126,-3.4325,-3.4546,-3.4787,-3.4875,-3.4643,-3.4325,-3.4756,-3.4691,-3.4448,-4.3515,-4.3515,-4.3515,-4.3515,-4.3515,-4.3515,-4.3515,-4.348,-4.3463,-4.3463,-4.3428,-4.3393,-4.334,-4.3323,-4.3251,-4.3104,-4.2087,-4.1198,-4.0546,-3.9568,-3.8788,-3.8227,-3.8209,-3.8123,-3.7984,-3.7667,-3.7246,-3.6719,-3.643,-3.6067,-3.5583,-3.4844,-3.4117,-3.3372,-3.2632,-3.1904,-3.1207,-3.1464,-3.1565,-3.1562,-3.1742,-3.1692,-3.1469,-3.1308,-3.1093,-3.0831,-3.0692,-3.0589,-3.0506,-3.0506,-3.0506,-3.0506,-3.0506,-3.0506,-3.0506,-3.0506,-3.0506,-3.0506,-3.0506,-3.0468,-3.0464,-3.0464,-3.0802,-3.1342,-3.2099,-3.2588,-3.3112,-3.3931,-3.4025,-3.3754,-3.2953,-3.2633,-3.2154,-3.1151,-3.0835,-3.0632,-3.0432,-3.0402,-3.0479,-3.0705,-3.072,-3.0786,-3.0948,-3.1243,-3.1381,-3.1258,-3.1513,-3.167,-3.1511,-3.1511,-3.1511,-3.1511,-3.1511,-3.1511,-3.1511,-3.1511,-3.1726,-3.212,-3.1697,-3.1726,-3.2092,-3.1697,-3.1726,-3.212,-3.2315,-3.2846,-3.3585,-3.3933,-3.425,-3.4546,-3.4804,-3.4521,-3.4025,-3.4472,-3.4308,-3.3892,-4.3515,-4.3515,-4.3515,-4.3515,-4.3515,-4.3515,-4.3515,-4.3446,-4.3394,-4.3394,-4.3269,-4.3214,-4.3214,-4.3142,-4.3104,-4.3104,-4.1506,-4.0492,-4.0474,-3.9043,-3.8209,-3.8209,-3.8209,-3.7967,-3.7505,-3.7505,-3.7113,-3.6301,-3.6301,-3.6067,-3.5583,-3.4844,-3.4117,-3.3372,-3.2649,-3.1904,-3.1258,-3.2005,-3.231,-3.2357,-3.2959,-3.2765,-3.2088,-3.1875,-3.1341,-3.0688,-3.0547,-3.0506,-3.0506,-3.0506,-3.0506,-3.0506,-3.0506,-3.0506,-3.0506,-3.0506,-3.0506,-3.0506,-3.0506,-3.0443,-3.0396,-3.0396,-3.0396,-3.0711,-3.1926,-3.2199,-3.2543,-3.3834,-3.3873,-3.3633,-3.3361,-3.3085,-3.2555,-3.1559,-3.1424,-3.1166,-3.0509,-3.0417,-3.0674,-3.1347,-3.1424,-3.1605,-3.2158,-3.2066,-3.194,-3.1813,-3.1597,-3.1511,-3.1511,-3.1511,-3.1511,-3.1511,-3.1511,-3.1511,-3.1511,-3.1511,-3.1511,-3.1511,-3.1511,-3.1511,-3.1511,-3.1511,-3.1511,-3.1524,-3.212,-3.2398,-3.2508,-3.3626,-3.4101,-3.4151,-3.4667,-3.4546,-3.4075,-3.4101,-3.3697,-3.3277,-4.3515,-4.3515,-4.3515,-4.3515,-4.3445,-4.3429,-4.3429,-4.3322,-4.3251,-4.3251,-4.3233,-4.3178,-4.3123,-4.3123,-4.2831,-4.2177,-4.1126,-4.0039,-3.8952,-3.8462,-3.8209,-3.8209,-3.8209,-3.7967,-3.7505,-3.7209,-3.6821,-3.6301,-3.598,-3.5734,-3.56,-3.5363,-3.4607,-3.3423,-3.3711,-3.3156,-3.2022,-3.2747,-3.3026,-3.2959,-3.3136,-3.3021,-3.2734,-3.2617,-3.2124,-3.1453,-3.1326,-3.0936,-3.0506,-3.0506,-3.0506,-3.0506,-3.0506,-3.0506,-3.0506,-3.0506,-3.0506,-3.0506,-3.0443,-3.0417,-3.0396,-3.0396,-3.0253,-3.0495,-3.188,-3.2129,-3.24,-3.3574,-3.3761,-3.3555,-3.3096,-3.2951,-3.2711,-3.2191,-3.209,-3.2028,-3.1828,-3.1797,-3.1874,-3.2074,-3.209,-3.2127,-3.2203,-3.2066,-3.194,-3.1813,-3.1597,-3.1511,-3.1511,-3.1511,-3.1511,-3.1511,-3.1511,-3.1511,-3.1511,-3.1511,-3.1511,-3.1511,-3.1511,-3.1511,-3.1511,-3.1511,-3.1511,-3.1511,-3.1697,-3.1923,-3.2228,-3.2711,-3.3033,-3.3214,-3.3475,-3.3145,-3.2614,-3.3135,-3.2949,-3.2528,-4.3515,-4.3515,-4.3497,-4.3481,-4.3429,-4.3394,-4.3323,-4.3233,-4.316,-4.316,-4.3105,-4.3068,-4.303,-4.303,-4.2648,-4.1777,-4.0691,-3.9532,-3.8281,-3.8209,-3.8209,-3.8209,-3.802,-3.7721,-3.7283,-3.686,-3.6454,-3.6023,-3.5739,-3.56,-3.56,-3.5943,-3.5267,-3.388,-3.4607,-3.4117,-3.278,-3.3465,-3.3722,-3.3652,-3.3867,-3.3729,-3.3395,-3.3278,-3.2619,-3.1705,-3.1636,-3.1135,-3.0506,-3.0506,-3.0506,-3.0506,-3.0506,-3.0506,-3.0506,-3.0506,-3.0485,-3.0509,-3.0742,-3.0739,-3.074,-3.1035,-3.0778,-3.0809,-3.2227,-3.248,-3.2708,-3.3673,-3.3771,-3.3581,-3.3123,-3.2978,-3.2773,-3.2453,-3.2398,-3.2398,-3.2398,-3.2398,-3.2398,-3.2398,-3.2398,-3.2315,-3.215,-3.2053,-3.1912,-3.1698,-3.1568,-3.1511,-3.1511,-3.1511,-3.1511,-3.1511,-3.1511,-3.1511,-3.1511,-3.1511,-3.1511,-3.1511,-3.1511,-3.1511,-3.1511,-3.1511,-3.1511,-3.1511,-3.1511,-3.1625,-3.1879,-3.216,-3.2367,-3.2544,-3.2799,-3.2473,-3.1934,-3.2391,-3.2213,-3.1794,-4.3497,-4.3497,-4.3463,-4.3394,-4.3376,-4.3323,-4.3214,-4.3123,-4.3086,-4.3086,-4.2975,-4.2901,-4.2901,-4.2901,-4.2538,-4.1669,-4.0184,-3.8971,-3.8263,-3.8209,-3.8209,-3.8209,-3.7721,-3.7266,-3.69,-3.6512,-3.6067,-3.56,-3.56,-3.5633,-3.5718,-3.6451,-3.6051,-3.4726,-3.5419,-3.4906,-3.3622,-3.4172,-3.4398,-3.4421,-3.4898,-3.4688,-3.4066,-3.3935,-3.3027,-3.1797,-3.1714,-3.1217,-3.0588,-3.0522,-3.0506,-3.0506,-3.0506,-3.0506,-3.0506,-3.0551,-3.0542,-3.0622,-3.1282,-3.1324,-3.1385,-3.2118,-3.1769,-3.1599,-3.2813,-3.308,-3.3275,-3.3905,-3.3822,-3.3581,-3.3266,-3.3016,-3.2746,-3.2453,-3.2398,-3.2398,-3.2398,-3.2398,-3.2398,-3.2398,-3.2398,-3.2287,-3.2025,-3.1968,-3.1826,-3.1524,-3.1511,-3.1511,-3.1511,-3.1511,-3.1511,-3.1511,-3.1511,-3.1511,-3.1511,-3.1511,-3.1511,-3.1511,-3.1511,-3.1511,-3.1511,-3.1511,-3.1511,-3.1511,-3.1511,-3.1482,-3.1496,-3.1851,-3.2005,-3.2018,-3.2403,-3.2223,-3.1806,-3.1806,-3.148,-3.1161,-4.3429,-4.3411,-4.3376,-4.3269,-4.3196,-4.316,-4.3141,-4.3012,-4.2938,-4.2938,-4.2919,-4.2901,-4.2901,-4.2901,-4.2321,-4.089,-3.9351,-3.839,-3.8209,-3.8209,-3.8209,-3.8209,-3.745,-3.6997,-3.69,-3.6512,-3.6067,-3.56,-3.56,-3.5926,-3.6535,-3.6728,-3.6626,-3.6321,-3.6474,-3.5982,-3.5065,-3.5194,-3.5109,-3.4925,-3.5045,-3.4941,-3.4698,-3.4674,-3.4104,-3.3243,-3.2663,-3.2,-3.1267,-3.0688,-3.0506,-3.0506,-3.0506,-3.0506,-3.0584,-3.1056,-3.1177,-3.1314,-3.1873,-3.2001,-3.2111,-3.2748,-3.2789,-3.2756,-3.304,-3.308,-3.3177,-3.3411,-3.3424,-3.3224,-3.2699,-3.2535,-3.248,-3.2425,-3.2398,-3.2398,-3.2398,-3.2398,-3.2398,-3.2398,-3.2398,-3.2287,-3.2025,-3.1769,-3.1597,-3.1511,-3.1511,-3.1511,-3.1511,-3.1511,-3.1511,-3.1511,-3.1511,-3.1511,-3.1511,-3.1511,-3.1511,-3.1511,-3.1511,-3.1511,-3.1511,-3.1511,-3.1511,-3.1511,-3.138,-3.1263,-3.119,-3.1263,-3.1219,-3.1102,-3.1175,-3.1146,-3.1029,-3.1029,-3.0955,-3.0881,-4.3323,-4.3286,-4.3269,-4.3178,-4.3105,-4.3086,-4.3012,-4.2938,-4.2901,-4.2901,-4.2901,-4.2901,-4.2901,-4.2901,-4.2248,-4.0637,-3.9097,-3.8209,-3.8209,-3.8209,-3.8106,-3.788,-3.7414,-3.7017,-3.6618,-3.6755,-3.6598,-3.618,-3.618,-3.6569,-3.733,-3.7669,-3.7652,-3.733,-3.7614,-3.7111,-3.6013,-3.5897,-3.5539,-3.5088,-3.5018,-3.497,-3.4899,-3.4899,-3.4435,-3.369,-3.2967,-3.2,-3.1019,-3.0621,-3.0506,-3.0506,-3.0506,-3.0695,-3.0995,-3.1309,-3.1582,-3.1913,-3.2499,-3.264,-3.2788,-3.3413,-3.3566,-3.3542,-3.3433,-3.3408,-3.3379,-3.3308,-3.3309,-3.316,-3.273,-3.2648,-3.2578,-3.2425,-3.2398,-3.2398,-3.2398,-3.2398,-3.2398,-3.2398,-3.2342,-3.2191,-3.194,-3.1655,-3.1511,-3.1511,-3.1511,-3.1511,-3.1511,-3.1511,-3.1511,-3.1511,-3.1511,-3.1511,-3.1511,-3.1511,-3.1511,-3.1511,-3.1511,-3.1511,-3.1511,-3.1511,-3.1467,-3.1409,-3.1322,-3.1234,-3.1087,-3.0984,-3.0895,-3.0791,-3.0732,-3.0702,-3.0702,-3.0702,-3.0702,-3.0702,-4.3196,-4.3178,-4.316,-4.3068,-4.3067,-4.303,-4.2919,-4.2901,-4.2901,-4.2901,-4.2901,-4.2901,-4.2901,-4.2647,-4.194,-4.0619,-3.9097,-3.8209,-3.8209,-3.8209,-3.8037,-3.7632,-3.7487,-3.7147,-3.6599,-3.7051,-3.7131,-3.6795,-3.6931,-3.7364,-3.8108,-3.8693,-3.8727,-3.8263,-3.8605,-3.8068,-3.6867,-3.64,-3.583,-3.5224,-3.4996,-3.4899,-3.4899,-3.4899,-3.4518,-3.3856,-3.3017,-3.1752,-3.0506,-3.0506,-3.0506,-3.0522,-3.0617,-3.0995,-3.1451,-3.1654,-3.2027,-3.2508,-3.3185,-3.3299,-3.3388,-3.3955,-3.4101,-3.4025,-3.3745,-3.3694,-3.3607,-3.3309,-3.3229,-3.315,-3.287,-3.2816,-3.2718,-3.2453,-3.2398,-3.2398,-3.2398,-3.2398,-3.2398,-3.2398,-3.2274,-3.2066,-3.1813,-3.1626,-3.1511,-3.1511,-3.1511,-3.1511,-3.1511,-3.1511,-3.1511,-3.1511,-3.1511,-3.1511,-3.1511,-3.1511,-3.1511,-3.1511,-3.1511,-3.1511,-3.1511,-3.1511,-3.1438,-3.1307,-3.1292,-3.1176,-3.1014,-3.0821,-3.0762,-3.0762,-3.0642,-3.0598,-3.0598,-3.0598,-3.0598,-3.0598,-4.3141,-4.3123,-4.3068,-4.2938,-4.2938,-4.2919,-4.2901,-4.2901,-4.2901,-4.2901,-4.2901,-4.2901,-4.2901,-4.1651,-4.0727,-4.051,-3.9097,-3.8209,-3.8209,-3.8209,-3.8157,-3.8106,-3.7376,-3.7235,-3.7764,-3.7173,-3.6864,-3.6795,-3.7432,-3.8125,-3.8853,-3.8831,-3.9118,-3.9606,-3.8916,-3.8438,-3.8078,-3.6761,-3.6081,-3.5818,-3.5148,-3.4899,-3.4899,-3.4899,-3.4833,-3.4568,-3.3199,-3.1752,-3.0506,-3.0506,-3.0506,-3.0584,-3.1122,-3.1342,-3.1605,-3.2651,-3.3021,-3.3217,-3.381,-3.398,-3.3987,-3.4084,-3.4101,-3.4025,-3.3745,-3.3694,-3.3555,-3.3058,-3.2951,-3.2854,-3.2523,-3.2453,-3.2453,-3.2425,-3.2398,-3.2398,-3.2398,-3.2398,-3.2398,-3.2398,-3.2163,-3.1968,-3.1813,-3.1626,-3.1511,-3.1511,-3.1511,-3.1511,-3.1511,-3.1511,-3.1511,-3.1511,-3.1511,-3.1511,-3.1511,-3.1511,-3.1511,-3.1511,-3.1511,-3.1511,-3.1511,-3.1511,-3.1438,-3.1278,-3.119,-3.1014,-3.0821,-3.0702,-3.0642,-3.0642,-3.0598,-3.0598,-3.0598,-3.0598,-3.0598,-3.0598,-4.3012,-4.2994,-4.2975,-4.2901,-4.2901,-4.2901,-4.2901,-4.2901,-4.2901,-4.2901,-4.2901,-4.2901,-4.2901,-4.147,-4.0492,-4.0492,-3.9097,-3.8209,-3.8209,-3.795,-3.8007,-3.8456,-3.811,-3.804,-3.8334,-3.8611,-3.8471,-3.7904,-3.8314,-3.8837,-3.9514,-3.9438,-3.9547,-3.9781,-3.9308,-3.8837,-3.8335,-3.7643,-3.6821,-3.5976,-3.5644,-3.5263,-3.4899,-3.4899,-3.4899,-3.47,-3.3226,-3.1752,-3.0555,-3.0986,-3.1075,-3.1127,-3.1808,-3.219,-3.2511,-3.3053,-3.3429,-3.377,-3.4045,-3.4101,-3.4101,-3.4101,-3.4101,-3.4,-3.3581,-3.3477,-3.3388,-3.2978,-3.2746,-3.2578,-3.2425,-3.2398,-3.2398,-3.2398,-3.2398,-3.2398,-3.2398,-3.2398,-3.2342,-3.2191,-3.2066,-3.1912,-3.167,-3.1539,-3.1511,-3.1511,-3.1511,-3.1511,-3.1511,-3.1511,-3.1511,-3.1511,-3.1511,-3.1511,-3.1511,-3.1511,-3.1511,-3.1511,-3.1511,-3.1511,-3.1511,-3.1511,-3.1395,-3.1176,-3.1132,-3.0955,-3.0672,-3.0612,-3.0598,-3.0598,-3.0598,-3.0598,-3.0598,-3.0598,-3.0598,-3.0598]},{"header":{"parameterUnit":"m.s-1","parameterCategory":1,"la1":30.6,"la2":28.766,"lo1":-90.7593,"lo2":-88.6598,"dy":0.0162,"dx":0.0183,"nx":116,"ny":114,"refTime":"2023-03-07T18:00:00:Z","depth":0,"parameterNumber":3,"parameterNumberName":"V-component_of_WINDS"},"data":[0.0,0.0,0.0,0.0,0.0,0.0,0.0,0.0,0.0,0.0,0.0,0.0,0.0,0.0,0.0,0.0,0.0,0.0,0.0,0.0,0.0,0.0,0.0,0.0,0.0,0.0,0.0,0.0,0.0,0.0,0.0,0.0,0.0,0.0,0.0,0.0,0.0,0.0,0.0,0.0,0.0,0.0,0.0,0.0,0.0,0.0,0.0,0.0,0.0,0.0,0.0,0.0,0.0,0.0,0.0,0.0,0.0,0.0,0.0,0.0,0.0,0.0,0.0,0.0,0.0,0.0,0.0,0.0,0.0,0.0,0.0,0.0,0.0,0.0,0.0,0.0,0.0,0.0,0.0,0.0,0.0,0.0,0.0,0.0,0.0,0.0,0.0,0.0,0.0,0.0,0.0,0.0,0.0,0.0,0.0,0.0,0.0,0.0,0.0,0.0,0.0,0.0,0.0,0.0,0.0,0.0,0.0,0.0,0.0,0.0,0.0,0.0,0.0,0.0,0.0,0.0,0.0,0.0,0.0,0.0,0.0,0.0,0.0,0.0,0.0,0.0,0.0,0.0,0.0,0.0,0.0,0.0,0.0,0.0,0.0,0.0,0.0,0.0,0.0,0.0,0.0,0.0,0.0,0.0,0.0,0.0,0.0,0.0,0.0,0.0,0.0,0.0,0.0,0.0,0.0,0.0,0.0,0.0,0.0,0.0,0.0,0.0,0.0,0.0,0.0,0.0,0.0,0.0,0.0,0.0,0.0,0.0,0.0,0.0,0.0,0.0,0.0,0.0,0.0,0.0,0.0,0.0,0.0,0.0,0.0,0.0,0.0,0.0,0.0,0.0,0.0,0.0,0.0,0.0,0.0,0.0,0.0,0.0,0.0,0.0,0.0,0.0,0.0,0.0,0.0,0.0,0.0,0.0,0.0,0.0,0.0,0.0,0.0,0.0,0.0,0.0,0.0,0.0,0.0,0.0,0.0,0.0,0.0,0.0,0.0,0.0,0.0,0.0,0.0,0.0,0.0,0.0,0.0,0.0,0.0,0.0,0.0,0.0,0.0,0.0,0.0,0.0,0.0,0.0,0.0,0.0,0.0,0.0,0.0,0.0,0.0,0.0,0.0,0.0,0.0,0.0,0.0,0.0,0.0,0.0,0.0,0.0,0.0,0.0,0.0,0.0,0.0,0.0,0.0,0.0,0.0,0.0,0.0,0.0,0.0,0.0,0.0,0.0,0.0,0.0,0.0,0.0,0.0,0.0,0.0,0.0,0.0,0.0,0.0,0.0,0.0,0.0,0.0,0.0,0.0,0.0,0.0,0.0,0.0,0.0,0.0,0.0,0.0,0.0,0.0,0.0,0.0,0.0,0.0,0.0,0.0,0.0,0.0,0.0,0.0,0.0,0.0,0.0,0.0,0.0,0.0,0.0,0.0,0.0,0.0,0.0,0.0,0.0,0.0,0.0,0.0,0.0,0.0,0.0,0.0,0.0,0.0,0.0,0.0,0.0,0.0,0.0,0.0,0.0,0.0,0.0,0.0,0.0,0.0,0.0,0.0,0.0,0.0,0.0,0.0,0.0,0.0,0.0,0.0,0.0,0.0,0.0,0.0,0.0,0.0,0.0,0.0,0.0,0.0,0.0,0.0,0.0,0.0,0.0,0.0,0.0,0.0,0.0,0.0,0.0,0.0,0.0,0.0,0.0,0.0,0.0,0.0,0.0,0.0,0.0,0.0,0.0,0.0,0.0,0.0,0.0,0.0,0.0,0.0,0.0,0.0,0.0,0.0,0.0,0.0,0.0,0.0,0.0,0.0,0.0,0.0,0.0,0.0,0.0,0.0,0.0,0.0,0.0,0.0,0.0,0.0,0.0,0.0,0.0,0.0,0.0,0.0,0.0,0.0,0.0,0.0,0.0,0.0,0.0,0.0,0.0,0.0,0.0,0.0,0.0,0.0,0.0,0.0,0.0,0.0,0.0,0.0,0.0,0.0,0.0,0.0,0.0,0.0,0.0,0.0,0.0,0.0,0.0,0.0,0.0,0.0,0.0,0.0,0.0,0.0,0.0,0.0,0.0,0.0,0.0,0.0,0.0,0.0,0.0,0.0,0.0,0.0,0.0,0.0,0.0,0.0,0.0,0.0,0.0,0.0,0.0,0.0,0.0,0.0,0.0,0.0,0.0,0.0,0.0,0.0,0.0,0.0,0.0,0.0,0.0,0.0,0.0,0.0,0.0,0.0,0.0,0.0,0.0,0.0,0.0,0.0,0.0,0.0,0.0,0.0,0.0,0.0,0.0,0.0,0.0,0.0,0.0,0.0,0.0,0.0,0.0,0.0,0.0,0.0,0.0,0.0,0.0,0.0,0.0,0.0,0.0,0.0,0.0,0.0,0.0,0.0,0.0,0.0,0.0,0.0,0.0,0.0,0.0,0.0,0.0,0.0,0.0,0.0,0.0,0.0,0.0,0.0,0.0,0.0,0.0,0.0,0.0,0.0,0.0,0.0,0.0,0.0,0.0,0.0,0.0,0.0,0.0,0.0,0.0,0.0,0.0,0.0,0.0,0.0,0.0,0.0,0.0,0.0,0.0,0.0,0.0,0.0,0.0,0.0,0.0,0.0,0.0,0.0,0.0,0.0,0.0,0.0,0.0,0.0,0.0,0.0,0.0,0.0,0.0,0.0,0.0,0.0,0.0,0.0,0.0,0.0,0.0,0.0,0.0,0.0,0.0,0.0,0.0,0.0,0.0,0.0,0.0,0.0,0.0,0.0,0.0,0.0,0.0,0.0,0.0,0.0,0.0,0.0,0.0,0.0,0.0,0.0,0.0,0.0,0.0,0.0,0.0,0.0,0.0,0.0,0.0,0.0,0.0,0.0,0.0,0.0,0.0,0.0,0.0,0.0,0.0,0.0,0.0,0.0,0.0,0.0,0.0,0.0,0.0,0.0,0.0,0.0,0.0,0.0,0.0,0.0,0.0,0.0,0.0,0.0,0.0,0.0,0.0,0.0,0.0,0.0,0.0,0.0,0.0,0.0,0.0,0.0,0.0,0.0,0.0,0.0,0.0,0.0,0.0,0.0,0.0,0.0,0.0,0.0,0.0,0.0,0.0,0.0,0.0,0.0,0.0,0.0,0.0,0.0,0.0,0.0,0.0,0.0,0.0,0.0,0.0,0.0,0.0,0.0,0.0,0.0,0.0,0.0,0.0,0.0,0.0,0.0,0.0,0.0,0.0,0.0,0.0,0.0,0.0,0.0,0.0,0.0,0.0,0.0,0.0,0.0,0.0,0.0,0.0,0.0,0.0,0.0,0.0,0.0,0.0,0.0,0.0,0.0,0.0,0.0,0.0,0.0,0.0,0.0,0.0,0.0,0.0,0.0,0.0,0.0,0.0,0.0,0.0,0.0,0.0,0.0,0.0,0.0,0.0,0.0,0.0,0.0,0.0,0.0,0.0,0.0,0.0,0.0,0.0,0.0,0.0,0.0,0.0,0.0,0.0,0.0,0.0,0.0,0.0,0.0,0.0,0.0,0.0,0.0,0.0,0.0,0.0,0.0,0.0,0.0,0.0,0.0,0.0,0.0,0.0,0.0,0.0,0.0,0.0,0.0,0.0,0.0,0.0,0.0,0.0,0.0,0.0,0.0,0.0,0.0,0.0,0.0,0.0,0.0,0.0,0.0,0.0,0.0,0.0,0.0,0.0,0.0,0.0,0.0,0.0,0.0,0.0,0.0,0.0,0.0,0.0,0.0,0.0,0.0,0.0,0.0,0.0,0.0,0.0,0.0,0.0,0.0,0.0,0.0,0.0,0.0,0.0,0.0,0.0,0.0,0.0,0.0,0.0,0.0,0.0,0.0,0.0,0.0,0.0,0.0,0.0,0.0,0.0,0.0,0.0,0.0,0.0,0.0,0.0,0.0,0.0,0.0,0.0,0.0,0.0,0.0,0.0,0.0,0.0,0.0,0.0,0.0,0.0,0.0,0.0,0.0,0.0,0.0,0.0,0.0,0.0,0.0,0.0,0.0,0.0,0.0,0.0,0.0,0.0,0.0,0.0,0.0,0.0,0.0,0.0,0.0,0.0,0.0,0.0,0.0,0.0,0.0,0.0,0.0,0.0,0.0,0.0,0.0,0.0,0.0,0.0,0.0,0.0,0.0,0.0,0.0,0.0,0.0,0.0,0.0,0.0,0.0,0.0,0.0,0.0,0.0,0.0,0.0,0.0,0.0,0.0,0.0,0.0,0.0,0.0,0.0,0.0,0.0,0.0,0.0,0.0,0.0,0.0,0.0,0.0,0.0,0.0,0.0,0.0,0.0,0.0,0.0,0.0,0.0,0.0,0.0,0.0,0.0,0.0,0.0,0.0,0.0,0.0,0.0,0.0,0.0,0.0,0.0,0.0,0.0,0.0,0.0,0.0,0.0,0.0,0.0,0.0,0.0,0.0,0.0,0.0,0.0,0.0,0.0,0.0,0.0,0.0,0.0,0.0,0.0,0.0,0.0,0.0,0.0,0.0,0.0,0.0,0.0,0.0,0.0,0.0,0.0,0.0,0.0,0.0,0.0,0.0,0.0,0.0,0.0,0.0,0.0,0.0,0.0,0.0,0.0,0.0,0.0,0.0,0.0,0.0,0.0,0.0,0.0,0.0,0.0,0.0,0.0,0.0,0.0,0.0,0.0,0.0,0.0,0.0,0.0,0.0,0.0,0.0,0.0,0.0,0.0,0.0,0.0,0.0,0.0,0.0,0.0,0.0,0.0,0.0,0.0,0.0,0.0,0.0,0.0,0.0,0.0,0.0,0.0,0.0,0.0,0.0,0.0,0.0,0.0,0.0,0.0,0.0,0.0,0.0,0.0,0.0,0.0,0.0,0.0,0.0,0.0,0.0,0.0,0.0,0.0,0.0,0.0,0.0,0.0,0.0,0.0,0.0,0.0,0.0,0.0,0.0,0.0,0.0,0.0,0.0,0.0,0.0,0.0,0.0,0.0,0.0,0.0,0.0,0.0,0.0,0.0,0.0,0.0,0.0,0.0,0.0,0.0,0.0,0.0,0.0,0.0,0.0,0.0,0.0,0.0,0.0,0.0,0.0,0.0,0.0,0.0,0.0,0.0,0.0,0.0,0.0,0.0,0.0,0.0,0.0,0.0,0.0,0.0,0.0,0.0,0.0,0.0,0.0,0.0,0.0,0.0,0.0,0.0,0.0,0.0,0.0,0.0,0.0,0.0,0.0,0.0,0.0,0.0,0.0,0.0,0.0,0.0,0.0,0.0,0.0,0.0,0.0,0.0,0.0,0.0,0.0,0.0,0.0,0.0,0.0,0.0,0.0,0.0,0.0,0.0,0.0,0.0,0.0,0.0,0.0,0.0,0.0,0.0,0.0,0.0,0.0,0.0,0.0,0.0,0.0,0.0,0.0,0.0,0.0,0.0,0.0,0.0,0.0,0.0,0.0,0.0,0.0,0.0,0.0,0.0,0.0,0.0,0.0,0.0,0.0,0.0,0.0,0.0,0.0,0.0,0.0,0.0,0.0,0.0,0.0,0.0,0.0,0.0,0.0,0.0,0.0,0.0,0.0,0.0,0.0,0.0,0.0,0.0,0.0,0.0,0.0,0.0,0.0,0.0,0.0,0.0,0.0,0.0,0.0,0.0,0.0,0.0,0.0,0.0,0.0,0.0,0.0,0.0,0.0,0.0,0.0,0.0,0.0,0.0,0.0,0.0,0.0,0.0,0.0,0.0,0.0,0.0,0.0,0.0,0.0,0.0,0.0,0.0,0.0,0.0,0.0,0.0,0.0,0.0,0.0,0.0,0.0,0.0,0.0,0.0,0.0,0.0,0.0,0.0,0.0,0.0,0.0,0.0,0.0,0.0,0.0,0.0,0.0,0.0,0.0,0.0,0.0,0.0,0.0,0.0,0.0,0.0,0.0,0.0,0.0,0.0,0.0,0.0,0.0,0.0,0.0,0.0,0.0,0.0,0.0,0.0,0.0,0.0,0.0,0.0,0.0,0.0,0.0,0.0,0.0,0.0,0.0,0.0,0.0,0.0,0.0,0.0,0.0,0.0,0.0,0.0,0.0,0.0,0.0,0.0,0.0,0.0,0.0,0.0101,0.0,0.0,0.0,0.0,0.0,0.0,0.0,0.0,0.0,0.0,0.0,0.0,0.0,0.0,0.0,0.0,0.0,0.0,0.0,0.0,0.0,0.0,0.0,0.0,0.0,0.0,0.0,0.0,0.0,0.0,0.0,0.0,0.0,0.0,0.0,0.0,0.0,0.0,0.0,0.7092,0.6668,0.6321,0.6903,0.7173,0.7173,0.0,0.0,0.0,0.0,0.0,0.0,0.0,0.0,0.0,0.0,0.0,0.0,0.0,0.0,0.0,0.0,0.0,0.0,0.0,0.0,0.0,0.0,0.0,0.0,0.0,0.0,0.0,0.0,0.0,0.0,0.0,0.0,0.0,0.0,0.0,0.0,0.0,0.0,0.0,0.0,0.0,0.0,0.0,0.0,0.0,0.0,0.0,0.0,0.0,0.0,0.0,0.0,0.0,0.0,0.0,0.0,0.0,0.0,0.0,0.0,0.0,0.0,0.0,0.0,0.0,0.0,0.0,0.0,0.0,0.0,0.0,0.0,0.0,0.0,0.0,0.0,0.0,0.0,0.0,0.0,0.0,0.0,0.0,0.0,0.0,0.0,0.0,0.0,0.0,0.0,0.0,0.0,0.0,0.0,0.0,0.0,0.0,0.0,0.0,0.0,0.0,0.0,0.0,0.0,0.0,0.0,0.0,0.7365,0.7288,0.7288,0.6395,0.5661,0.5043,0.6433,0.7057,0.7057,0.718,0.0,0.0,0.0,0.0,0.0,0.0,0.0,0.0,0.0,0.0,0.0,0.0,0.0,0.0,0.0,0.0,0.0,0.0,0.0,0.0,0.0,0.0,0.0,0.0,0.0,0.0,0.0,0.0,0.0,0.0,0.0,0.0,0.0,0.0,0.0,0.0,0.0,0.0,0.0,0.0,0.0,0.0,0.0,0.0,0.0,0.0,0.0,0.0,0.0,0.0,0.0,0.0,0.0,0.0,0.0,0.0,0.0,0.0,0.0,0.0,0.0,0.0,0.0,0.0146,0.0036,0.0,0.0036,0.0036,0.0,0.0,0.0,0.0,0.0,0.0,0.0,0.0,0.0,0.0,0.0,0.0,0.0,0.0,0.0,0.0,0.0,0.0,0.0,0.0,0.0,0.0,0.0,0.0,0.0,0.0,0.0,0.0,0.0,0.0,0.0,0.0,0.0,0.0,0.0,0.0,0.0,0.7484,0.6745,0.6356,0.6356,0.5544,0.5118,0.5004,0.5234,0.5315,0.5389,0.6822,0.7446,0.7446,0.0,0.0,0.0,0.0,0.0,0.0,0.0,0.0,0.0,0.0,0.0,0.0,0.0,0.0,0.0,0.0,0.0,0.0,0.0,0.0,0.0,0.0,0.0,0.0,0.0,0.0,0.0,0.0,0.0,0.0,0.0,0.0,0.0,0.0,0.0,0.0,0.0,0.0,0.0,0.0,0.0,0.3416,0.3416,0.0,0.0,0.0,0.0,0.0,0.0,0.0,0.0,0.0,0.0,0.0,0.0,0.0,0.0948,0.0656,0.0583,0.0474,0.0291,0.0255,0.0182,0.0,0.0182,0.0182,0.0,0.0,0.0,0.0,0.0,0.0,0.0,0.0,0.0,0.0,0.0,0.0,0.0,0.0,0.0,0.0,0.0,0.0,0.0,0.0,0.0,0.0,0.0,0.0,0.0,0.0,0.0,0.0,0.0,0.0,0.0,0.0,0.0,0.0,0.0,0.0,0.7557,0.6934,0.6822,0.6244,0.5196,0.5273,0.4763,0.3675,0.4629,0.4785,0.4386,0.5616,0.6126,0.6089,0.5896,0.0,0.0,0.0,0.0,0.0,0.0,0.0,0.0,0.0,0.0,0.0,0.0,0.0,0.0,0.0,0.0,0.0,0.0,0.0,0.0,0.0,0.0,0.0,0.0,0.0,0.0,0.0,0.0,0.0,0.0,0.0,0.0,0.0,0.0,0.0,0.0,0.0,0.0,0.0,0.3211,0.3161,0.2726,0.3052,0.3125,0.0,0.0,0.0,0.0,0.0,0.0,0.0,0.0,0.0,0.0913,0.0875,0.0837,0.0761,0.0646,0.0494,0.0304,0.0304,0.019,0.0,0.0076,0.0076,0.0,0.0,0.0,0.0,0.0,-0.0182,-0.0437,0.0,0.0,0.0,0.0,-0.0911,-0.1021,0.0,0.0,0.0,0.0,0.0,0.0,0.0,0.0,0.0,0.0,0.0,0.0,0.0,0.0,0.0,0.8703,0.0,0.0,0.0,0.0,0.0,0.0,0.0,0.713,0.6426,0.6553,0.5799,0.4108,0.4815,0.4276,0.2665,0.4132,0.4374,0.3557,0.4333,0.4786,0.5004,0.4963,0.5273,0.5738,0.0,0.0,0.0,0.0,0.0,0.0,0.0,0.0,0.0,0.0,0.0,0.0,0.0,0.0,0.0,0.0,0.0,0.0,0.0,0.0,0.0,0.0,0.0,0.0,0.0,0.0,0.0,0.0,0.0,0.0,0.0,0.0,0.0,0.0,0.0,0.0,0.0,0.2548,0.2595,0.2041,0.2449,0.256,0.0,0.0,0.0,0.0,0.0,0.0,0.102,0.1021,0.1021,0.1021,0.0864,0.0867,0.0991,0.0793,0.0596,0.04,0.036,0.02,0.0,0.0,0.0,0.0,0.0,0.0,0.0,0.0,-0.0111,-0.0297,-0.0297,-0.0409,-0.052,-0.0595,-0.0743,-0.0892,0.0,0.0,0.0,0.0,0.0,0.0,0.0,0.0,0.0,0.0,0.0,0.0,0.0,0.0,0.8703,0.8703,0.8703,0.8627,0.0,0.0,0.0,0.7261,0.6282,0.5893,0.6202,0.5506,0.4508,0.3239,0.3728,0.3529,0.273,0.3688,0.3646,0.2771,0.3271,0.4044,0.5004,0.4805,0.4727,0.4727,0.43,0.0,0.0,0.0,0.0,0.0,0.0,0.0,0.0,0.0,0.0,0.0,0.0,0.0,0.0,0.0,0.0,0.0,0.0,0.0,0.0,0.0,0.0,0.0,0.0,0.0,0.0,0.0,0.0,0.0,0.0,0.0,0.0,0.0,0.0,0.0,0.0,0.0,0.0,0.133,0.1369,0.0,0.0,0.0,0.0,0.1294,0.1294,0.1295,0.1296,0.1296,0.1296,0.1296,0.1257,0.1271,0.13,0.1097,0.0863,0.0672,0.0504,0.0252,0.0,0.0,0.0,0.0,0.0,0.0,0.0,0.0,-0.0117,-0.0313,-0.0313,-0.0431,-0.0626,-0.0822,-0.09,-0.0939,0.0,0.0,0.0,0.0,0.0,0.0,0.0,0.0,0.0,0.0,0.0,0.0,0.0,0.8703,0.8703,0.8703,0.8703,0.8513,0.8055,0.0,0.0,0.7022,0.6633,0.6321,0.6012,0.5162,0.4543,0.4097,0.4326,0.4156,0.3646,0.3688,0.3519,0.3219,0.3092,0.3209,0.3522,0.3388,0.3651,0.4064,0.3209,0.3015,0.0,0.0,0.0,0.0,0.0,0.0,0.0,0.0,0.0,0.0,0.0,0.0,0.0,0.0,0.0,0.0,0.0,0.0,0.0,0.0,0.0,0.0,0.0,0.0,0.0,0.0,0.0,0.0,0.0,0.0,0.0,0.0,0.0,0.0,0.0,0.0,0.0,0.1296,0.1296,0.0,0.1296,0.1296,0.1296,0.1296,0.1296,0.1305,0.1286,0.1286,0.1295,0.1315,0.1316,0.128,0.129,0.1249,0.1086,0.0884,0.0674,0.0463,0.0253,0.0084,0.0,0.0,0.0,0.0,0.0,0.0,-0.0041,-0.012,-0.0118,-0.0157,-0.0236,-0.0275,-0.0393,-0.055,0.0,0.0,0.0,0.0,0.0,0.0,0.0,0.0,0.0,0.0,0.0,0.8703,0.8703,0.8703,0.8703,0.8703,0.8508,0.8241,0.7821,0.0,0.0,0.6595,0.6363,0.5999,0.546,0.5028,0.4742,0.4651,0.4888,0.4739,0.4299,0.4299,0.4049,0.363,0.3454,0.3181,0.2751,0.271,0.2961,0.3328,0.2538,0.2527,0.2901,0.0,0.0,0.0,0.0,0.0,0.0,0.0,0.0,0.0,0.0,0.0,0.0,0.0,0.0,0.0,0.0,0.0,0.0,0.0,0.0,0.0,0.0,0.0,0.0,0.0,0.0,0.0,0.0,0.0,0.0,0.0,0.0,0.0,0.0,0.0,0.1296,0.1296,0.1296,0.1301,0.1311,0.1312,0.1317,0.1287,0.1288,0.1296,0.1317,0.1318,0.1286,0.1305,0.1305,0.131,0.1319,0.1319,0.1239,0.1033,0.0818,0.0602,0.0387,0.0129,0.0,0.0,0.0,0.0,0.0,0.0,0.0,0.0,0.0,0.0,0.0,-0.008,-0.0199,-0.0357,0.0,0.0,0.0,0.0,0.0,0.0,0.0,0.0,0.0,0.0,0.8703,0.8703,0.8703,0.8703,0.8699,0.8665,0.8127,0.7783,0.7744,0.6595,0.0,0.5864,0.5323,0.4875,0.4622,0.499,0.5061,0.4817,0.5297,0.5193,0.4574,0.5448,0.5178,0.3949,0.4379,0.3966,0.2925,0.2922,0.2774,0.2609,0.2399,0.2284,0.2238,0.0,0.0,0.0,0.0,0.0,0.0,0.0,0.0,0.0,0.0,0.0,0.0,0.0,0.0,0.0,0.0,0.0,0.0,0.0,0.0,0.0,0.0,0.0,0.0,0.0,0.0,0.0,0.0,0.0,0.0,0.0,0.0,0.0,0.1296,0.1297,0.1298,0.1298,0.1298,0.1311,0.1301,0.1304,0.1316,0.1304,0.1305,0.1306,0.1307,0.1307,0.1307,0.1309,0.1309,0.1323,0.1393,0.1394,0.1321,0.1123,0.0854,0.0629,0.0404,0.0135,0.0,0.0,0.0,0.0,0.0,0.0,0.0,0.0,0.0,0.0,-0.0042,-0.0205,-0.0285,-0.0365,0.0,0.0,0.0,0.0,0.0,0.0,0.0,0.0,0.0,0.0,0.8703,0.8703,0.8703,0.8703,0.8508,0.8089,0.7897,0.7399,0.6479,0.0,0.0,0.5287,0.5093,0.4993,0.5023,0.5232,0.5354,0.5292,0.5633,0.5703,0.5491,0.5528,0.5112,0.4381,0.4188,0.3691,0.3044,0.3,0.2928,0.2788,0.2613,0.2912,0.3407,0.0,0.0,0.0,0.0,0.0,0.0,0.0,0.0,0.0,0.0,0.0,0.0,0.0,0.0,0.0,0.0,0.0,0.0,0.0,0.0,0.0,0.0,0.0,0.0,0.0,0.0,0.0,0.0,0.0,0.0,0.0,0.0,0.1282,0.13,0.1316,0.129,0.129,0.1309,0.1285,0.1293,0.1294,0.1297,0.1305,0.1305,0.1314,0.1378,0.1378,0.1388,0.1366,0.1433,0.1448,0.1455,0.1478,0.1446,0.1407,0.1173,0.0938,0.0703,0.0422,0.0188,0.0,0.0,0.0,0.0,0.0,0.0,0.0,0.0,0.0,0.0,-0.0042,-0.0167,-0.0333,0.0,0.0,0.0,0.0,0.0,0.0,0.0,0.0,0.0,0.0,0.8703,0.8703,0.8703,0.8703,0.847,0.7859,0.7783,0.7246,0.5977,0.0,0.5362,0.5018,0.5061,0.5143,0.526,0.5382,0.5529,0.5653,0.5836,0.5956,0.6056,0.5892,0.5514,0.4973,0.4485,0.398,0.342,0.3144,0.3218,0.3482,0.294,0.3019,0.3367,0.265,0.2349,0.2346,0.2088,0.2042,0.2003,0.1807,0.0,0.0,0.0,0.0,0.0,0.0,0.0,0.0,0.0,0.0,0.0,0.0,0.0,0.0,0.0,0.0,0.0,0.0,0.0,0.0,0.0,0.0,0.0,0.0,0.1291,0.1301,0.1296,0.1311,0.128,0.128,0.1296,0.131,0.1322,0.1323,0.1333,0.1401,0.1403,0.1416,0.1445,0.1447,0.1455,0.1426,0.1491,0.15,0.15,0.1517,0.1478,0.1478,0.1287,0.1049,0.0811,0.0524,0.0238,0.0,0.0,0.0,0.0,0.0,0.0,0.0,0.0,0.0,0.0,0.0,-0.0085,-0.021,0.0,0.0,0.0,0.0,0.0,0.0,0.0,0.0,0.0,0.0,0.0,0.8703,0.8703,0.8703,0.8432,0.7744,0.7706,0.7169,0.0,0.0,0.5023,0.5034,0.5132,0.5249,0.5388,0.5451,0.5621,0.5904,0.5918,0.6043,0.6317,0.6331,0.6044,0.5584,0.5035,0.4491,0.3882,0.3338,0.3554,0.4171,0.327,0.2898,0.2863,0.2676,0.2608,0.2554,0.234,0.224,0.2196,0.2004,0.0,0.0,0.0,0.0,0.0,0.0,0.0,0.0,0.0,0.0,0.0,0.0,0.0,0.0,0.0,0.0,0.0,0.0,0.0,0.0,0.0,0.0,0.0,0.0,0.131,0.1323,0.1311,0.1318,0.1319,0.1315,0.1318,0.1331,0.1402,0.1406,0.1427,0.1482,0.1486,0.1498,0.1477,0.0,0.0,0.0,0.0,0.1531,0.1531,0.1534,0.1488,0.1488,0.1344,0.1104,0.0816,0.0576,0.0288,0.0048,0.0,0.0,0.0,0.0,0.0,0.0,0.0,0.0,0.0,0.0,0.0,-0.0085,0.0,0.0,0.0,0.0,0.0,0.0,0.0,0.0,0.0,0.8703,0.8703,0.8703,0.8703,0.8703,0.8241,0.7169,0.7092,0.6518,0.0,0.5057,0.5059,0.5148,0.5175,0.529,0.5467,0.5494,0.5621,0.5904,0.6002,0.6124,0.632,0.6361,0.6116,0.5584,0.5035,0.4474,0.3957,0.3357,0.3174,0.3334,0.3078,0.3361,0.3828,0.2991,0.2644,0.26,0.2547,0.2472,0.2392,0.2196,0.2157,0.2119,0.1964,0.1887,0.0,0.0,0.0,0.0,0.0,0.0,0.0,0.0,0.0,0.0,0.0,0.0,0.0,0.0,0.0,0.0,0.0,0.0,0.0,0.1292,0.1358,0.1384,0.137,0.144,0.1446,0.1377,0.144,0.1467,0.1497,0.15,0.1505,0.1516,0.1517,0.152,0.1478,0.1478,0.0,0.1478,0.155,0.1563,0.1563,0.1587,0.1599,0.1599,0.0,0.0,0.11,0.0849,0.06,0.03,0.01,0.0,0.0,0.0,0.0,0.0,0.0,0.0,0.0,0.0,0.0,-0.0089,0.0,0.0,0.0,0.0,0.0,0.0,0.0,0.0,0.0,0.0,0.8703,0.8703,0.8703,0.8703,0.8318,0.7437,0.6784,0.0,0.598,0.5365,0.5067,0.5181,0.5246,0.5363,0.5502,0.5567,0.5712,0.5994,0.6056,0.6176,0.6352,0.636,0.6237,0.5984,0.5436,0.4885,0.4381,0.3794,0.3364,0.3083,0.3041,0.3272,0.3527,0.2987,0.2719,0.2684,0.2623,0.2582,0.2511,0.2403,0.2353,0.2314,0.2238,0.212,0.2003,0.0,0.0,0.0,0.0,0.0,0.0,0.0,0.0,0.0,0.0,0.0,0.0,0.0,0.0,0.1284,0.0,0.0,0.1293,0.1364,0.1393,0.1423,0.1454,0.1484,0.1498,0.1436,0.1494,0.1509,0.1477,0.1478,0.1532,0.1548,0.1549,0.1555,0.157,0.1571,0.1571,0.1571,0.1586,0.1594,0.1594,0.1609,0.1617,0.1617,0.1617,0.1465,0.1212,0.0909,0.0657,0.0404,0.0101,0.0,0.0,0.0,0.0,0.0,0.0,0.0,0.0,0.0,0.0,-0.0045,0.0,0.0,0.0,0.0,0.0,0.0,0.0,0.0,0.0,0.0,0.8703,0.8703,0.8703,0.8703,0.847,0.0,0.0,0.6286,0.6668,0.5747,0.5185,0.5181,0.5344,0.5426,0.5505,0.5626,0.585,0.6086,0.6086,0.6206,0.6387,0.6387,0.6387,0.6387,0.5834,0.5386,0.4935,0.4284,0.3692,0.3231,0.3122,0.3059,0.2992,0.2873,0.2775,0.2752,0.2654,0.2604,0.2576,0.2527,0.2511,0.2511,0.2511,0.2392,0.2196,0.1964,0.1768,0.0,0.0,0.0,0.0,0.0,0.0,0.0,0.0,0.1301,0.1305,0.1305,0.129,0.1313,0.1318,0.1339,0.1325,0.1401,0.1428,0.1457,0.1493,0.1519,0.1537,0.1495,0.1538,0.1537,0.1495,0.1496,0.1554,0.1579,0.158,0.1591,0.1615,0.1617,0.1617,0.1617,0.1617,0.1617,0.1617,0.1617,0.1617,0.1617,0.1617,0.1465,0.1263,0.101,0.0707,0.0455,0.0152,0.0,0.0,0.0,0.0,0.0,0.0,0.0,0.0,0.0,0.0,-0.0045,0.0,0.0,0.0,0.0,0.0,0.0,0.0,0.0,0.0,0.0,0.0,0.0,0.0,0.0,0.0,0.0,0.0,0.6556,0.6054,0.5864,0.5611,0.5221,0.5344,0.5426,0.5505,0.5626,0.585,0.6086,0.6086,0.6206,0.6387,0.6387,0.6387,0.6387,0.5834,0.5584,0.5436,0.4435,0.3939,0.3767,0.3313,0.3059,0.2992,0.2873,0.2749,0.27,0.2687,0.2613,0.2519,0.2512,0.2511,0.2511,0.2511,0.247,0.2393,0.2004,0.1887,0.1768,0.1415,0.1296,0.1296,0.1296,0.1296,0.1296,0.0,0.1318,0.1297,0.1297,0.128,0.1308,0.1376,0.1383,0.1404,0.1461,0.1473,0.1495,0.1602,0.1613,0.1577,0.1604,0.1583,0.1577,0.1604,0.1607,0.1608,0.1611,0.1611,0.1613,0.1616,0.1617,0.1617,0.1617,0.1617,0.1617,0.1617,0.1617,0.1617,0.1617,0.1617,0.1566,0.1566,0.1263,0.101,0.0707,0.0202,0.0,0.0,0.0,0.0,0.0,0.0,0.0,0.0,0.0,0.0,-0.0046,0.0,0.0,0.0,0.0,0.0,0.0,0.0,0.0,0.0,0.0,0.0,0.0,0.0,0.0,0.0,0.0,0.7783,0.7169,0.6514,0.6131,0.5689,0.5221,0.5235,0.5352,0.5502,0.5559,0.5696,0.5977,0.5977,0.6067,0.6236,0.6304,0.6339,0.6339,0.6093,0.5847,0.5497,0.4704,0.4175,0.3799,0.3256,0.3007,0.2946,0.2815,0.2723,0.2639,0.2639,0.2606,0.0,0.0,0.2511,0.2511,0.2511,0.2511,0.2433,0.2004,0.1887,0.1808,0.1415,0.1296,0.1296,0.1296,0.131,0.1284,0.1284,0.1307,0.1288,0.1288,0.1352,0.1376,0.1388,0.1404,0.143,0.0,0.1495,0.1522,0.1615,0.1587,0.1603,0.1615,0.1606,0.1603,0.1615,0.1617,0.1617,0.1617,0.1617,0.1617,0.1617,0.1617,0.1617,0.1617,0.1617,0.1617,0.1617,0.1617,0.1617,0.1617,0.1617,0.1617,0.1566,0.1314,0.096,0.0556,0.0354,0.0152,0.0,0.0,0.0,0.0,0.0,0.0,0.0,0.0,0.0,-0.0047,0.0,0.0,0.0,0.0,0.0,0.0,0.0,0.0,0.0,0.0,0.0,0.0,0.0,0.0,0.0,0.8703,0.8318,0.7783,0.7169,0.6556,0.5944,0.5411,0.5288,0.5268,0.5405,0.5472,0.5607,0.5855,0.5888,0.5966,0.6086,0.6179,0.6268,0.6268,0.6268,0.5978,0.5439,0.4838,0.4271,0.377,0.3188,0.2946,0.2885,0.2763,0.2679,0.2601,0.2601,0.2591,0.0,0.0,0.2511,0.247,0.2431,0.2431,0.2353,0.1925,0.1768,0.1653,0.1386,0.131,0.1312,0.128,0.1299,0.1315,0.1315,0.1296,0.1317,0.1317,0.1382,0.1402,0.1402,0.1427,0.1457,0.1488,0.1519,0.1549,0.158,0.1603,0.1617,0.1617,0.1617,0.1617,0.1617,0.1617,0.1617,0.1617,0.1617,0.1617,0.1617,0.1617,0.1617,0.1617,0.1617,0.1617,0.1617,0.1617,0.1617,0.1617,0.1617,0.1617,0.1566,0.1314,0.096,0.0505,0.0455,0.0253,0.0,0.0,0.0,0.0,0.0,0.0,0.0,0.0,0.0,-0.0048,0.0,0.0,0.0,0.0,0.0,0.0,0.0,0.0,0.0,0.0,0.0,0.0,0.0,0.0,0.8703,0.8703,0.8699,0.8432,0.7821,0.7207,0.6556,0.5909,0.5442,0.5189,0.5197,0.5389,0.557,0.5694,0.585,0.5966,0.6086,0.6089,0.6092,0.6092,0.6092,0.5855,0.5382,0.481,0.4287,0.3745,0.3127,0.2885,0.2773,0.2653,0.2605,0.2601,0.2601,0.0,0.0,0.0,0.2511,0.247,0.2275,0.2196,0.2118,0.1728,0.1454,0.1303,0.1293,0.1301,0.1308,0.1296,0.1304,0.1304,0.1304,0.1368,0.1388,0.1388,0.1413,0.1389,0.1389,0.1459,0.1489,0.152,0.155,0.1581,0.1611,0.1616,0.1617,0.1617,0.1617,0.1617,0.0,0.1617,0.1617,0.1617,0.1617,0.1617,0.1617,0.1617,0.1617,0.1617,0.1617,0.1617,0.1617,0.1617,0.1617,0.1617,0.1617,0.1617,0.1566,0.1314,0.1061,0.0758,0.0505,0.0253,0.0,0.0,0.0,0.0,0.0,0.0,0.0,0.0,0.0,-0.0049,0.0,0.0,0.0,0.0,0.0,0.0,0.0,0.0,0.0,0.0,0.0,0.0,0.0,0.0,0.0,0.0,0.8703,0.8432,0.7821,0.7629,0.7015,0.5938,0.5749,0.5501,0.5224,0.5265,0.5368,0.5491,0.5532,0.557,0.5657,0.5692,0.5686,0.5686,0.5686,0.5597,0.5413,0.4544,0.4104,0.386,0.3062,0.2717,0.2658,0.2617,0.2576,0.2541,0.0,0.0,0.0,0.0,0.2511,0.247,0.2275,0.2196,0.2118,0.1728,0.1471,0.129,0.13,0.1317,0.1294,0.1304,0.1319,0.1376,0.1376,0.1399,0.142,0.142,0.1383,0.1391,0.1391,0.1399,0.1467,0.147,0.1535,0.1559,0.161,0.1617,0.1617,0.1617,0.1617,0.0,0.0,0.0,0.0,0.1617,0.1617,0.1617,0.1617,0.1617,0.1617,0.1617,0.1617,0.1617,0.1617,0.1617,0.1617,0.1617,0.1617,0.1617,0.1617,0.1516,0.1314,0.1061,0.0758,0.0505,0.0253,0.0051,0.0,0.0,0.0,0.0,0.0,0.0,0.0,0.0,0.0,0.0,0.0,0.0,0.0,0.0,0.0,0.0,0.0,0.0,0.0,0.0,0.0,0.0,0.0,0.0,0.0,0.8551,0.8165,0.7936,0.7437,0.663,0.6131,0.5749,0.5439,0.5285,0.5224,0.5344,0.5391,0.541,0.5413,0.5447,0.5443,0.5443,0.5443,0.5358,0.5182,0.4517,0.4235,0.4147,0.3247,0.2923,0.3002,0.2697,0.2545,0.0,0.0,0.0,0.0,0.0,0.2511,0.247,0.2198,0.2002,0.1808,0.1587,0.1408,0.1307,0.1328,0.1348,0.1323,0.1333,0.1349,0.1406,0.1406,0.1421,0.1391,0.1391,0.1391,0.1391,0.1391,0.1399,0.1468,0.1471,0.1535,0.156,0.161,0.1617,0.1617,0.1617,0.1617,0.1617,0.0,0.0,0.0,0.1617,0.1617,0.1622,0.1633,0.1633,0.1638,0.1647,0.1648,0.1643,0.1633,0.1633,0.1628,0.1617,0.1617,0.1617,0.1617,0.1617,0.1465,0.1162,0.0909,0.0657,0.0404,0.0101,0.0,0.0,0.0,0.0,0.0,0.0,0.0,0.0,0.0,0.0,0.0,0.0,0.0,0.0,0.0,0.0,0.0,0.0,0.0,0.0,0.0,0.0,0.0,0.0,0.0,0.0,0.8703,0.8165,0.7821,0.7783,0.663,0.598,0.5902,0.5476,0.5218,0.5178,0.5336,0.5394,0.5394,0.5394,0.5394,0.5432,0.5432,0.5186,0.4812,0.477,0.4724,0.4582,0.3674,0.348,0.3712,0.2885,0.0,0.0,0.0,0.0,0.2511,0.2511,0.247,0.2393,0.2004,0.1613,0.1305,0.1294,0.1305,0.132,0.1375,0.1391,0.1399,0.1383,0.1391,0.1391,0.1391,0.1391,0.1391,0.1391,0.1391,0.1391,0.1391,0.0,0.1488,0.1519,0.1549,0.158,0.161,0.1615,0.1617,0.0,0.0,0.0,0.0,0.0,0.0,0.162,0.0,0.1633,0.1715,0.1717,0.1677,0.1703,0.1704,0.1691,0.1717,0.1715,0.1647,0.1617,0.1617,0.1617,0.1617,0.1617,0.1465,0.1212,0.096,0.0657,0.0404,0.0152,0.0,0.0,0.0,0.0,0.0,0.0,0.0,0.0,0.0,0.0,0.0,0.0,0.0,0.0,0.0,0.0,0.0,0.0,0.0,0.0,0.0,0.0,0.0,0.0,0.0,0.0,0.8703,0.8546,0.828,0.7821,0.7476,0.6861,0.5941,0.5779,0.5487,0.5061,0.5091,0.5108,0.5108,0.5108,0.5342,0.5771,0.5771,0.589,0.6087,0.5726,0.5486,0.5286,0.0,0.4261,0.3785,0.0,0.0,0.0,0.0,0.2511,0.2511,0.2511,0.2315,0.2043,0.1925,0.1631,0.1292,0.13,0.1333,0.1371,0.1386,0.1406,0.1381,0.1388,0.1391,0.1391,0.1391,0.1391,0.1391,0.1391,0.1391,0.1391,0.1391,0.1397,0.0,0.1487,0.1518,0.0,0.1579,0.1603,0.0,0.1617,0.1617,0.1617,0.1617,0.1637,0.0,0.0,0.1651,0.1663,0.1692,0.1693,0.1697,0.1704,0.1704,0.1701,0.1694,0.1725,0.1647,0.1617,0.1617,0.1617,0.1617,0.1617,0.1566,0.1465,0.1212,0.096,0.0657,0.0404,0.0202,0.0,0.0,0.0,0.0,0.0,0.0,0.0,0.0,0.0,0.0,0.0,0.0,0.0,0.0,0.0,0.0,0.0,0.0,0.0,0.0,0.0,0.0,0.0,0.0,0.0,0.0,0.8703,0.8546,0.8203,0.7936,0.7476,0.6745,0.6479,0.617,0.5825,0.5825,0.5825,0.5825,0.575,0.5867,0.6212,0.6093,0.617,0.6402,0.6163,0.0,0.0,0.0,0.0,0.0,0.0,0.0,0.0,0.2511,0.2511,0.2511,0.2511,0.2238,0.1887,0.1887,0.1638,0.1305,0.1318,0.1354,0.1393,0.1406,0.1378,0.1391,0.1391,0.1391,0.1391,0.1391,0.1391,0.1391,0.1391,0.1391,0.1391,0.1391,0.1391,0.14,0.0,0.0,0.0,0.1567,0.1598,0.1617,0.0,0.1617,0.0,0.1635,0.1704,0.1726,0.0,0.1741,0.1693,0.1722,0.1724,0.1731,0.1744,0.1744,0.1731,0.1705,0.1676,0.1647,0.1617,0.1617,0.1617,0.1617,0.1617,0.1617,0.1566,0.0,0.1061,0.0758,0.0505,0.0253,0.0,0.0,0.0,0.0,0.0,0.0,0.0,0.0,0.0,0.0,0.0,0.0,0.0,0.0,0.0,0.0,0.0,0.0,0.0,0.0,0.0,0.0,0.0,0.0,0.0,0.0,0.0,0.0,0.8703,0.8203,0.7859,0.7744,0.7284,0.6942,0.6822,0.6826,0.6822,0.6784,0.6633,0.6602,0.6679,0.644,0.636,0.0,0.0,0.0,0.0,0.0,0.0,0.0,0.0,0.0,0.0,0.2549,0.2511,0.2511,0.2511,0.2238,0.1925,0.1926,0.1641,0.1355,0.1298,0.1328,0.1401,0.1383,0.1391,0.1391,0.1391,0.1391,0.1391,0.1391,0.1387,0.1385,0.1385,0.1381,0.138,0.1384,0.1385,0.1439,0.147,0.0,0.1535,0.1562,0.1595,0.1617,0.1617,0.162,0.1633,0.1712,0.1721,0.1747,0.18,0.1729,0.1728,0.1809,0.181,0.1823,0.1794,0.1795,0.1765,0.1705,0.168,0.1651,0.1617,0.1617,0.1617,0.1617,0.1617,0.1617,0.1566,0.0,0.0,0.0758,0.0556,0.0253,0.0,0.0,0.0,0.0,0.0,0.0,0.0,0.0,0.0,0.0,0.0,0.0,0.0,0.0,0.0,0.0,0.0,0.8703,0.8703,0.0,0.0,0.0,0.0,0.0,0.0,0.0,0.0,0.0,0.0,0.8585,0.8241,0.7557,0.7629,0.7207,0.6318,0.6556,0.6556,0.6318,0.6279,0.6556,0.7103,0.7065,0.7219,0.7526,0.0,0.0,0.0,0.0,0.0,0.0,0.0,0.0,0.0,0.2743,0.2511,0.2511,0.2511,0.2354,0.2119,0.1964,0.1779,0.159,0.1346,0.1342,0.1384,0.1389,0.1391,0.1391,0.1391,0.1391,0.1391,0.1391,0.1416,0.1398,0.1398,0.1337,0.1327,0.1393,0.1398,0.1408,0.1393,0.1443,0.1528,0.1533,0.1582,0.1617,0.0,0.1639,0.1708,0.1714,0.1759,0.0,0.0,0.0,0.1782,0.1787,0.1787,0.1789,0.1795,0.1795,0.1765,0.1705,0.1699,0.167,0.1617,0.1617,0.1617,0.1617,0.1617,0.1617,0.1617,0.1566,0.0,0.0808,0.0758,0.0455,0.0,0.0,0.0,0.0,0.0,0.0,0.0,0.0,0.0,0.0,0.0,0.0,0.0,0.0,0.825,0.8441,0.8513,0.8627,0.8703,0.8703,0.8703,0.0,0.0,0.0,0.0,0.0,0.0,0.0,0.0,0.0,0.0,0.0,0.7906,0.771,0.7169,0.0,0.733,0.7169,0.7096,0.7219,0.7492,0.7411,0.745,0.7642,0.7642,0.0,0.0,0.0,0.0,0.0,0.0,0.0,0.0,0.0,0.2511,0.2511,0.2511,0.2431,0.2314,0.2119,0.185,0.1616,0.1552,0.1464,0.1415,0.1386,0.1391,0.1391,0.1391,0.1391,0.1391,0.1391,0.1412,0.139,0.139,0.1367,0.131,0.1323,0.138,0.1395,0.141,0.1463,0.1508,0.1477,0.1565,0.1599,0.1615,0.163,0.1651,0.1681,0.171,0.1739,0.0,0.0,0.1795,0.1795,0.1795,0.1795,0.1795,0.178,0.175,0.1705,0.169,0.166,0.1617,0.1617,0.1617,0.1617,0.1617,0.1617,0.1617,0.1617,0.0,0.101,0.0859,0.0556,0.0202,0.0051,0.0,0.0,0.0,0.0,0.0,0.0,0.0,0.0,0.0,0.0,0.0,0.0,0.8102,0.8365,0.8403,0.8589,0.8703,0.8703,0.8703,0.8703,0.0,0.0,0.0,0.0,0.0,0.0,0.0,0.0,0.0,0.0,0.0,0.0,0.7987,0.8025,0.0,0.0,0.0,0.0,0.0,0.7561,0.7484,0.7484,0.7484,0.7484,0.0,0.0,0.0,0.0,0.0,0.0,0.0,0.0,0.2666,0.2511,0.2511,0.2511,0.247,0.2314,0.2034,0.1715,0.1703,0.1574,0.1439,0.1419,0.1385,0.1391,0.1391,0.1385,0.1381,0.1381,0.1397,0.1371,0.1371,0.1348,0.1289,0.1296,0.1361,0.1383,0.1388,0.1441,0.1491,0.1522,0.1552,0.1583,0.1613,0.1622,0.0,0.1699,0.171,0.0,0.0,0.0,0.0,0.1795,0.1795,0.1795,0.1795,0.1821,0.1789,0.1705,0.1676,0.1647,0.1617,0.1617,0.1617,0.1617,0.1617,0.1617,0.1617,0.1617,0.0,0.0,0.0909,0.0657,0.0354,0.0101,0.0,0.0,0.0,0.0,0.0,0.0,0.0,0.0,0.0,0.0,0.0,0.0,0.7991,0.8178,0.8365,0.8589,0.8703,0.8703,0.8703,0.8703,0.0,0.0,0.0,0.0,0.0,0.0,0.0,0.0,0.0,0.0,0.0,0.0,0.7561,0.7723,0.0,0.0,0.0,0.0,0.0,0.0,0.7484,0.7484,0.7484,0.0,0.0,0.0,0.0,0.0,0.0,0.0,0.0,0.0,0.3171,0.2511,0.2511,0.2511,0.2511,0.247,0.2313,0.2074,0.1713,0.1641,0.1651,0.1437,0.1414,0.1391,0.1391,0.1414,0.1394,0.1394,0.1351,0.1311,0.1311,0.1286,0.1314,0.1301,0.129,0.1317,0.1386,0.1441,0.1491,0.1522,0.1552,0.1583,0.1613,0.0,0.0,0.1701,0.1729,0.0,0.0,0.0,0.0,0.1795,0.1795,0.1795,0.1795,0.1821,0.1789,0.1705,0.1676,0.1647,0.1617,0.1617,0.1617,0.1617,0.1617,0.1617,0.1617,0.1617,0.0,0.0,0.0909,0.0657,0.0354,0.0101,0.0,0.0,0.0,0.0,0.0,0.0,0.0,0.0,0.0,0.0,0.0,0.7603,0.7799,0.7991,0.8178,0.8403,0.8551,0.8699,0.8703,0.8703,0.0,0.0,0.0,0.0,0.0,0.0,0.0,0.0,0.0,0.0,0.0,0.7676,0.7484,0.7565,0.0,0.0,0.0,0.0,0.0,0.0,0.7484,0.7484,0.0,0.0,0.0,0.0,0.0,0.0,0.0,0.0,0.0,0.0,0.0,0.321,0.2666,0.2511,0.2511,0.2511,0.2448,0.2314,0.2024,0.1813,0.1635,0.1571,0.1459,0.134,0.134,0.1331,0.1322,0.1322,0.1333,0.1303,0.1303,0.1319,0.13,0.1312,0.13,0.1288,0.1317,0.1399,0.145,0.1517,0.1536,0.1562,0.1611,0.1628,0.0,0.0,0.0,0.0,0.0,0.0,0.0,0.1824,0.1785,0.1787,0.1823,0.1738,0.1708,0.168,0.165,0.1628,0.1617,0.1617,0.1617,0.1617,0.1617,0.1617,0.1617,0.1617,0.0,0.0,0.096,0.0758,0.0606,0.0152,0.0,0.0,0.0,0.0,0.0,0.0,0.0,0.0,0.0,0.0,0.7484,0.7484,0.7684,0.7842,0.7991,0.8178,0.8365,0.8513,0.8513,0.8513,0.8513,0.0,0.0,0.0,0.0,0.0,0.0,0.0,0.0,0.0,0.0,0.7484,0.7484,0.7484,0.7484,0.0,0.0,0.7484,0.7484,0.0,0.0,0.0,0.0,0.0,0.0,0.0,0.0,0.0,0.0,0.0,0.0,0.0,0.0,0.0,0.0,0.0,0.2511,0.2511,0.2511,0.248,0.2242,0.1941,0.1674,0.1659,0.1508,0.1305,0.1305,0.13,0.1293,0.1293,0.1311,0.1289,0.1289,0.1312,0.1296,0.1296,0.1282,0.1313,0.1301,0.1371,0.1418,0.1501,0.1521,0.1545,0.1597,0.0,0.1628,0.0,0.1688,0.0,0.0,0.0,0.0,0.0,0.1757,0.1759,0.1791,0.1707,0.1682,0.1714,0.1633,0.1617,0.1617,0.1617,0.1617,0.1617,0.1617,0.1617,0.1617,0.0,0.0,0.0,0.1111,0.0859,0.0758,0.0303,0.0051,0.0,0.0,0.0,0.0,0.0,0.0,0.0,0.0,0.0,0.0,0.7484,0.7684,0.7804,0.7804,0.7991,0.8102,0.8102,0.8102,0.8102,0.8102,0.0,0.0,0.0,0.0,0.0,0.0,0.0,0.0,0.0,0.0,0.7484,0.7484,0.7484,0.7484,0.7484,0.7484,0.7484,0.7484,0.0,0.0,0.0,0.0,0.0,0.0,0.0,0.0,0.0,0.0,0.0,0.0,0.0,0.0,0.0,0.0,0.0,0.0,0.0,0.2511,0.247,0.2275,0.2074,0.1869,0.1669,0.1449,0.1305,0.1305,0.1284,0.1303,0.1303,0.1319,0.1297,0.1297,0.1297,0.1296,0.1296,0.1282,0.1313,0.1301,0.1371,0.1411,0.1472,0.1507,0.1538,0.0,0.0,0.1628,0.1712,0.0,0.0,0.0,0.0,0.0,0.0,0.1705,0.1705,0.1705,0.1677,0.1714,0.1714,0.1633,0.1617,0.1617,0.1617,0.1617,0.1617,0.1617,0.1617,0.0,0.0,0.0,0.0,0.1314,0.1061,0.0758,0.0505,0.0253,0.0,0.0,0.0,0.0,0.0,0.0,0.0,0.0,0.0,0.0,0.0,0.745,0.7642,0.7765,0.7842,0.7953,0.8068,0.8102,0.803,0.7915,0.0,0.0,0.0,0.0,0.0,0.0,0.0,0.0,0.0,0.0,0.7215,0.7096,0.7215,0.7296,0.7296,0.7446,0.7484,0.7484,0.7484,0.0,0.0,0.0,0.0,0.0,0.0,0.0,0.0,0.0,0.0,0.0,0.0,0.0,0.0,0.0,0.0,0.0,0.0,0.0,0.0,0.2431,0.2248,0.2102,0.2024,0.1877,0.1728,0.1728,0.1599,0.151,0.151,0.1383,0.1296,0.1296,0.1296,0.1296,0.1296,0.1305,0.1288,0.1298,0.1313,0.1389,0.147,0.0,0.0,0.1862,0.1848,0.1883,0.0,0.0,0.0,0.0,0.0,0.0,0.0,0.1987,0.1987,0.1987,0.177,0.1755,0.1887,0.1723,0.1617,0.1617,0.1617,0.1617,0.1617,0.1617,0.0,0.0,0.0,0.0,0.0,0.1314,0.1162,0.1061,0.0758,0.0606,0.0505,0.0354,0.0253,0.0253,0.0,0.0,0.0,0.0,0.0,0.0,0.0,0.7296,0.745,0.7642,0.7684,0.7718,0.7872,0.7872,0.7834,0.7684,0.0,0.0,0.0,0.0,0.0,0.0,0.0,0.0,0.0,0.7142,0.7022,0.6903,0.7022,0.7142,0.7184,0.7253,0.7365,0.7484,0.7407,0.0,0.0,0.0,0.0,0.0,0.0,0.0,0.7484,0.0,0.0,0.0,0.0,0.0,0.0,0.0,0.0,0.0,0.0,0.0,0.0,0.0,0.2392,0.2314,0.2235,0.2042,0.1887,0.1887,0.1808,0.1729,0.1729,0.1611,0.1533,0.1533,0.1533,0.1533,0.1533,0.1533,0.1517,0.1546,0.1515,0.1503,0.1725,0.0,0.0,0.2126,0.0,0.0,0.0,0.0,0.0,0.0,0.0,0.0,0.0,0.2207,0.2258,0.2361,0.2004,0.1892,0.2022,0.1718,0.1617,0.1617,0.1617,0.1617,0.1617,0.1617,0.0,0.0,0.0,0.0,0.0,0.1415,0.1313,0.1162,0.101,0.0909,0.0758,0.0505,0.0402,0.035,0.0,0.0,0.0,0.0,0.0,0.0,0.0,0.0,0.7257,0.7446,0.7484,0.7484,0.7484,0.7484,0.7484,0.7484,0.0,0.0,0.0,0.0,0.0,0.0,0.0,0.0,0.0,0.698,0.6865,0.6865,0.6865,0.698,0.718,0.698,0.7096,0.7484,0.7296,0.0,0.0,0.0,0.0,0.0,0.0,0.0,0.0,0.0,0.0,0.0,0.0,0.0,0.0,0.0,0.0,0.0,0.0,0.0,0.0,0.0,0.0,0.0,0.0,0.2081,0.1925,0.1925,0.1925,0.1925,0.1925,0.1964,0.0,0.2004,0.2043,0.2043,0.2004,0.2004,0.1995,0.2003,0.1849,0.1836,0.0,0.2047,0.0,0.0,0.2422,0.0,0.0,0.0,0.0,0.0,0.0,0.0,0.0,0.2422,0.2573,0.2826,0.2324,0.2071,0.2021,0.1768,0.1617,0.1617,0.1617,0.1617,0.1617,0.1617,0.0,0.0,0.0,0.0,0.0,0.1617,0.1465,0.1212,0.1212,0.106,0.0806,0.0554,0.0448,0.0392,0.0,0.0,0.0,0.0,0.0,0.0,0.0,0.0,0.0,0.0,0.7407,0.7484,0.7484,0.7484,0.7484,0.0,0.0,0.0,0.0,0.0,0.0,0.0,0.0,0.0,0.0,0.6791,0.6602,0.6451,0.6602,0.6791,0.698,0.6942,0.7019,0.7257,0.7219,0.0,0.0,0.0,0.0,0.0,0.0,0.0,0.0,0.0,0.0,0.0,0.6745,0.6356,0.0,0.0,0.0,0.0,0.0,0.0,0.0,0.0,0.2511,0.0,0.2431,0.0,0.2354,0.2354,0.2237,0.2118,0.0,0.2469,0.2821,0.2821,0.3365,0.3599,0.2938,0.2821,0.2627,0.2086,0.1976,0.2007,0.2185,0.237,0.0,0.2712,0.2724,0.2724,0.0,0.0,0.0,0.0,0.0,0.0,0.0,0.2724,0.2826,0.3079,0.2777,0.2523,0.2321,0.202,0.1819,0.1617,0.1617,0.1617,0.1617,0.1617,0.0,0.0,0.0,0.0,0.1617,0.1617,0.1566,0.1516,0.1516,0.1452,0.1384,0.1088,0.0879,0.0672,0.0,0.0,0.0,0.0,0.0,0.0,0.0,0.0,0.0,0.0,0.0,0.0,0.0,0.0,0.0,0.0,0.0,0.0,0.0,0.0,0.0,0.0,0.0,0.0,0.7022,0.683,0.6676,0.6563,0.6676,0.683,0.7022,0.6868,0.6907,0.7184,0.7184,0.0,0.0,0.0,0.0,0.0,0.7484,0.0,0.0,0.0,0.0,0.0,0.6976,0.6784,0.0,0.5815,0.527,0.4841,0.0,0.0,0.0,0.0,0.364,0.364,0.364,0.3366,0.3093,0.3093,0.3288,0.3483,0.3483,0.3754,0.399,0.399,0.4338,0.453,0.4066,0.3671,0.346,0.3543,0.2796,0.2262,0.0,0.0,0.2929,0.2967,0.2977,0.0,0.0,0.0,0.0,0.0,0.0,0.0,0.0,0.2977,0.3029,0.318,0.3079,0.2876,0.2573,0.2172,0.1921,0.1768,0.1667,0.1667,0.1768,0.1667,0.1667,0.0,0.0,0.0,0.1617,0.1617,0.1609,0.1596,0.1596,0.1577,0.1502,0.1259,0.1005,0.0752,0.0,0.0,0.0,0.0,0.0,0.0,0.0,0.0,0.0,0.0,0.0,0.0,0.0,0.0,0.0,0.0,0.0,0.0,0.0,0.0,0.0,0.0,0.0,0.7184,0.7184,0.7022,0.6903,0.6903,0.6903,0.698,0.7142,0.6756,0.6795,0.7142,0.718,0.7296,0.0,0.0,0.0,0.0,0.7484,0.0,0.0,0.0,0.0,0.0,0.0,0.0,0.0,0.663,0.6318,0.6086,0.5389,0.0,0.0,0.0,0.0,0.0,0.5004,0.4611,0.4142,0.4025,0.4494,0.5004,0.5004,0.5079,0.5196,0.5196,0.5273,0.5354,0.5198,0.4661,0.4487,0.5253,0.0,0.0,0.2741,0.2956,0.3113,0.3173,0.0,0.0,0.0,0.0,0.0,0.0,0.0,0.0,0.0,0.318,0.318,0.318,0.318,0.3079,0.2876,0.2324,0.2071,0.2071,0.1768,0.1768,0.1971,0.1768,0.1768,0.0,0.0,0.0,0.161,0.161,0.1592,0.1564,0.1564,0.1546,0.1471,0.1234,0.1031,0.0783,0.0,0.0,0.0,0.0,0.0,0.0,0.0,0.0,0.0,0.0,0.0,0.0,0.0,0.0,0.0,0.0,0.0,0.0,0.0,0.0,0.0,0.0,0.7296,0.7184,0.7184,0.7022,0.6903,0.6903,0.6903,0.6903,0.6942,0.6714,0.6714,0.6942,0.7142,0.7296,0.7484,0.0,0.0,0.0,0.0,0.0,0.0,0.0,0.0,0.0,0.0,0.0,0.0,0.7365,0.6822,0.6163,0.6047,0.0,0.0,0.0,0.0,0.0,0.5004,0.5389,0.5657,0.5002,0.4924,0.5004,0.5004,0.5544,0.6009,0.6009,0.6591,0.6899,0.6163,0.6051,0.595,0.546,0.0,0.383,0.0,0.0,0.3113,0.3173,0.0,0.0,0.0,0.0,0.0,0.0,0.0,0.0,0.0,0.318,0.318,0.318,0.318,0.318,0.313,0.2624,0.2321,0.2321,0.207,0.1971,0.2022,0.1971,0.1819,0.0,0.0,0.1602,0.1579,0.1579,0.1561,0.1533,0.1533,0.1515,0.1487,0.1441,0.1285,0.0991,0.0,0.0,0.0,0.0,0.0,0.0,0.0,0.0,0.0,0.0,0.0,0.0,0.0,0.0,0.0,0.0,0.0,0.0,0.0,0.0,0.0,0.7484,0.7407,0.7373,0.7373,0.7292,0.7211,0.7211,0.7211,0.7211,0.7211,0.7022,0.6988,0.7061,0.7142,0.7296,0.7484,0.7484,0.0,0.0,0.0,0.0,0.0,0.0,0.0,0.0,0.0,0.0,0.0,0.0,0.7249,0.6899,0.6899,0.0,0.0,0.0,0.0,0.0,0.6356,0.663,0.6822,0.6437,0.6356,0.6356,0.6356,0.663,0.6899,0.6899,0.7211,0.7397,0.7101,0.6769,0.6163,0.5009,0.0,0.4139,0.3234,0.3129,0.3149,0.0,0.0,0.0,0.0,0.0,0.0,0.0,0.0,0.0,0.0,0.0,0.318,0.318,0.318,0.318,0.318,0.2826,0.2623,0.2623,0.2322,0.2272,0.2424,0.2122,0.2009,0.2038,0.0,0.1575,0.1547,0.1547,0.1529,0.1502,0.1502,0.1483,0.141,0.132,0.1221,0.1031,0.0,0.0,0.0,0.0,0.0,0.0,0.0,0.0,0.0,0.0,0.0,0.0,0.0,0.0,0.0,0.0,0.0,0.0,0.0,0.0,0.7365,0.7446,0.7446,0.7446,0.7484,0.7484,0.7484,0.7484,0.7484,0.7484,0.7407,0.7257,0.7184,0.7223,0.7257,0.7373,0.7484,0.7484,0.7484,0.0,0.0,0.0,0.0,0.0,0.0,0.0,0.0,0.0,0.0,0.0,0.0,0.0,0.0,0.0,0.0,0.7484,0.7484,0.7484,0.7484,0.7484,0.7484,0.7484,0.7484,0.7484,0.7484,0.7484,0.7484,0.7484,0.7555,0.7629,0.7775,0.7322,0.6486,0.5149,0.5069,0.4725,0.3567,0.3497,0.0,0.0,0.0,0.0,0.0,0.0,0.0,0.0,0.0,0.0,0.0,0.0,0.318,0.318,0.318,0.318,0.318,0.2964,0.2864,0.2876,0.2623,0.2618,0.2757,0.2308,0.2184,0.224,0.1804,0.1543,0.1515,0.1515,0.1498,0.147,0.147,0.1456,0.1391,0.1211,0.1121,0.1031,0.0,0.0,0.0,0.0,0.0,0.0,0.0,0.0,0.0,0.0,0.0,0.0,0.0,0.0,0.0,0.0,0.0,0.0,0.0,0.0,0.7019,0.7219,0.7219,0.7296,0.7484,0.7484,0.7484,0.7484,0.7484,0.7407,0.7219,0.7223,0.7184,0.7223,0.7407,0.7484,0.7484,0.7484,0.7484,0.7484,0.0,0.0,0.0,0.0,0.0,0.0,0.0,0.0,0.0,0.0,0.0,0.0,0.0,0.0,0.7484,0.7484,0.7484,0.7484,0.7484,0.7484,0.7484,0.7484,0.7484,0.7484,0.7484,0.7484,0.7484,0.7484,0.7657,0.7784,0.7796,0.7858,0.767,0.7001,0.695,0.64,0.4643,0.0,0.0,0.0,0.0,0.0,0.0,0.0,0.0,0.0,0.0,0.0,0.0,0.0,0.0,0.318,0.318,0.318,0.318,0.3125,0.3125,0.318,0.2876,0.275,0.2703,0.2456,0.2189,0.1912,0.1625,0.1512,0.1484,0.1484,0.1466,0.1393,0.1393,0.1393,0.1391,0.1391,0.1256,0.1076,0.0,0.0,0.0,0.0,0.0,0.0,0.0,0.0,0.0,0.0,0.0,0.0,0.0,0.0,0.0,0.0,0.0,0.0,0.0,0.0,0.698,0.718,0.7184,0.7296,0.7484,0.7484,0.7484,0.7484,0.7484,0.7446,0.7373,0.7373,0.7373,0.7373,0.7484,0.7484,0.7484,0.7484,0.7484,0.7484,0.7484,0.7484,0.0,0.0,0.0,0.0,0.0,0.0,0.0,0.0,0.7484,0.7484,0.7484,0.7484,0.7484,0.7484,0.7484,0.7484,0.7484,0.7603,0.7642,0.7522,0.7603,0.7684,0.7684,0.7684,0.7713,0.7861,0.8023,0.8182,0.8292,0.7758,0.7246,0.7023,0.6502,0.5955,0.0,0.0,0.0,0.0,0.0,0.0,0.0,0.0,0.0,0.0,0.0,0.0,0.0,0.0,0.0,0.4109,0.3479,0.3117,0.3117,0.3095,0.3095,0.3117,0.302,0.296,0.2938,0.2648,0.2383,0.2061,0.1826,0.1573,0.1453,0.1453,0.1401,0.1391,0.1391,0.1391,0.1391,0.1391,0.1345,0.1256,0.0,0.0,0.0,0.0,0.0,0.0,0.0,0.0,0.0,0.0,0.0,0.0,0.0,0.0,0.0,0.0,0.0,0.0,0.0,0.6641,0.683,0.7099,0.7103,0.7215,0.7484,0.7484,0.7484,0.7484,0.7484,0.7484,0.7484,0.7484,0.7484,0.7484,0.7484,0.7484,0.7484,0.7484,0.7484,0.7484,0.7484,0.7484,0.0,0.0,0.0,0.0,0.0,0.0,0.0,0.0,0.7484,0.7484,0.7484,0.7484,0.7484,0.7484,0.7561,0.7603,0.7603,0.7757,0.7876,0.7718,0.7795,0.7915,0.7991,0.7876,0.7893,0.815,0.8399,0.8601,0.87,0.802,0.7475,0.0,0.6879,0.0,0.0,0.0,0.0,0.0,0.0,0.0,0.0,0.0,0.0,0.0,0.0,0.0,0.0,0.0,0.0,0.0,0.3929,0.338,0.3097,0.3077,0.3068,0.3068,0.305,0.305,0.3068,0.2738,0.2476,0.2292,0.2017,0.1819,0.166,0.157,0.148,0.1391,0.1391,0.1391,0.1391,0.1391,0.1391,0.1391,0.0,0.0,0.0,0.0,0.0,0.0,0.0,0.0,0.0,0.0,0.0,0.0,0.0,0.0,0.0,0.0,0.0,0.0,0.63,0.63,0.649,0.6865,0.6903,0.7096,0.7484,0.7484,0.7484,0.7484,0.7484,0.7484,0.7484,0.7484,0.7484,0.7484,0.7484,0.7484,0.7484,0.7484,0.7484,0.7484,0.7484,0.7484,0.7484,0.0,0.0,0.0,0.0,0.0,0.0,0.0,0.7484,0.7484,0.7484,0.7484,0.7484,0.7484,0.7642,0.7804,0.7804,0.7953,0.8102,0.8102,0.8102,0.814,0.8365,0.8106,0.7932,0.8308,0.8736,0.9005,0.8912,0.8805,0.0,0.8591,0.8591,0.0,0.0,0.0,0.0,0.0,0.0,0.0,0.0,0.0,0.0,0.0,0.0,0.0,0.0,0.0,0.0,0.0,0.4512,0.404,0.3141,0.3034,0.3004,0.3003,0.2946,0.2949,0.3004,0.273,0.2564,0.2469,0.2289,0.2199,0.2199,0.193,0.166,0.1391,0.1391,0.1391,0.1391,0.1391,0.1391,0.1391,0.0,0.0,0.0,0.0,0.0,0.0,0.0,0.0,0.0,0.0,0.0,0.0,0.0,0.0,0.0,0.0,0.0,0.0,0.63,0.63,0.649,0.6865,0.6903,0.7096,0.7484,0.7484,0.7484,0.7484,0.7484,0.7484,0.7484,0.7484,0.7484,0.7484,0.7484,0.7484,0.7484,0.7484,0.7484,0.7484,0.7484,0.7484,0.7484,0.0,0.0,0.0,0.0,0.0,0.0,0.0,0.0,0.0,0.7484,0.7484,0.7484,0.7484,0.7522,0.7603,0.7765,0.7953,0.8102,0.8102,0.8217,0.8327,0.8403,0.8401,0.8603,0.9142,0.9206,0.9216,0.9206,0.8934,0.0,0.8493,0.8471,0.0,0.0,0.0,0.0,0.0,0.0,0.0,0.0,0.0,0.0,0.0,0.0,0.0,0.0,0.0,0.0,0.0,0.5775,0.4874,0.397,0.3944,0.3574,0.2944,0.2926,0.2928,0.2944,0.2855,0.2709,0.2513,0.2424,0.2334,0.2199,0.193,0.166,0.1391,0.1391,0.1391,0.1391,0.1391,0.1391,0.1391,0.0,0.0,0.0,0.0,0.0,0.0,0.0,0.0,0.0,0.0,0.63,0.63,0.0,0.0,0.0,0.0,0.0,0.0,0.0,0.0,0.649,0.6865,0.6903,0.7096,0.7484,0.7484,0.7484,0.7484,0.7484,0.7484,0.7484,0.7484,0.7484,0.7484,0.7484,0.7484,0.7484,0.7484,0.7484,0.7484,0.7484,0.7484,0.7484,0.0,0.0,0.0,0.0,0.0,0.0,0.0,0.0,0.0,0.7484,0.7484,0.7522,0.7603,0.768,0.7791,0.7991,0.8178,0.8327,0.8327,0.8441,0.8536,0.8619,0.88,0.908,0.9494,0.9594,0.9548,0.9432,0.921,0.0,0.8666,0.0,0.0,0.0,0.0,0.0,0.0,0.0,0.0,0.0,0.0,0.0,0.0,0.0,0.0,0.0,0.0,0.0,0.0,0.6574,0.5808,0.4877,0.4877,0.4389,0.3454,0.3454,0.3275,0.292,0.292,0.2829,0.2649,0.2649,0.2513,0.2289,0.2064,0.1794,0.157,0.1436,0.1391,0.1391,0.1391,0.1391,0.1391,0.0,0.0,0.0,0.0,0.0,0.0,0.0,0.0,0.0,0.0,0.63,0.63,0.0,0.0,0.0,0.0,0.0,0.0,0.0,0.0,0.649,0.6865,0.6938,0.7134,0.7484,0.7484,0.7484,0.7484,0.7484,0.7484,0.7484,0.7484,0.7484,0.7484,0.7484,0.7484,0.7484,0.7484,0.7484,0.7484,0.7484,0.7484,0.7484,0.7484,0.0,0.0,0.0,0.0,0.0,0.0,0.0,0.0,0.7484,0.7484,0.7522,0.7723,0.7915,0.8102,0.8327,0.8513,0.8665,0.8703,0.8703,0.876,0.8934,0.9126,0.9324,0.9555,0.9809,0.9933,0.9644,0.9602,0.9475,0.0,0.0,0.0,0.0,0.0,0.0,0.0,0.0,0.0,0.0,0.0,0.0,0.0,0.0,0.0,0.0,0.0,0.0,0.7104,0.7155,0.6786,0.5852,0.5808,0.5364,0.0,0.4431,0.3989,0.3141,0.2963,0.292,0.292,0.292,0.2739,0.2469,0.2289,0.2064,0.1794,0.1525,0.1391,0.1391,0.1391,0.1391,0.1391,0.0,0.0,0.0,0.0,0.0,0.0,0.0,0.0,0.0,0.0,0.0,0.0,0.0,0.0,0.0,0.0,0.0,0.0,0.0,0.0,0.649,0.6865,0.7211,0.7403,0.7484,0.7484,0.7484,0.7484,0.7484,0.7484,0.7484,0.7484,0.7484,0.7484,0.7484,0.7484,0.7484,0.7484,0.7484,0.7484,0.7484,0.7484,0.7484,0.7484,0.7484,0.0,0.0,0.0,0.0,0.0,0.0,0.0,0.7484,0.7484,0.7522,0.7561,0.7718,0.7915,0.8102,0.8327,0.8518,0.8665,0.8703,0.876,0.8934,0.9018,0.9155,0.9526,0.9809,0.9933,0.9644,0.9602,0.9522,0.0,0.0,0.0,0.0,0.0,0.0,0.0,0.0,0.0,0.0,0.0,0.0,0.0,0.0,0.0,0.0,0.0,0.0,0.8241,0.8281,0.7808,0.683,0.6786,0.634,0.0,0.5408,0.5275,0.5053,0.3587,0.292,0.292,0.292,0.2739,0.2469,0.2289,0.2064,0.1794,0.1525,0.1391,0.1391,0.1391,0.1391,0.1391,0.0,0.0,0.0,0.0,0.0,0.0,0.0,0.0,0.0,0.0,0.0,0.0,0.0,0.0,0.0,0.0,0.0,0.0,0.0,0.0,0.0,0.6753,0.7138,0.7373,0.7373,0.7446,0.7484,0.7484,0.7484,0.7484,0.7484,0.7484,0.7484,0.7484,0.7484,0.7484,0.7484,0.7484,0.7484,0.7484,0.7484,0.7484,0.7484,0.7484,0.7484,0.7484,0.0,0.0,0.0,0.0,0.0,0.0,0.0,0.0,0.7522,0.7603,0.7799,0.7991,0.8178,0.8403,0.8551,0.8665,0.8703,0.8732,0.8845,0.8949,0.9046,0.9263,0.9592,0.9804,0.9795,0.979,0.0,0.0,0.0,0.0,0.0,0.0,0.0,0.0,0.0,0.0,0.0,0.0,0.0,0.0,0.0,0.0,0.0,0.9035,0.8953,0.8603,0.869,0.8472,0.7981,0.7852,0.7319,0.6384,0.6384,0.6118,0.563,0.421,0.332,0.292,0.292,0.2829,0.2694,0.2424,0.2244,0.2109,0.1749,0.166,0.1749,0.166,0.166,0.1749,0.0,0.0,0.0,0.0,0.0,0.0,0.0,0.0,0.0,0.0,0.0,0.0,0.0,0.0,0.0,0.0,0.0,0.0,0.0,0.0,0.0,0.0,0.6988,0.7184,0.7184,0.7407,0.0,0.7484,0.7484,0.7484,0.7484,0.7484,0.7484,0.7484,0.7484,0.7484,0.7484,0.7484,0.7484,0.7484,0.7484,0.7484,0.7484,0.7484,0.7484,0.7484,0.7484,0.0,0.0,0.0,0.0,0.0,0.0,0.0,0.7522,0.7684,0.7876,0.8102,0.8293,0.8513,0.8703,0.8703,0.8703,0.8703,0.8703,0.8841,0.8938,0.8976,0.9286,0.9611,0.9904,0.0,0.0,0.0,0.0,0.0,0.0,0.0,0.0,0.0,0.0,0.0,0.0,0.0,0.0,0.0,0.0,0.0,0.9096,0.9276,0.9148,0.8674,0.8827,0.8911,0.8911,0.8696,0.8208,0.7408,0.7363,0.6874,0.5897,0.5142,0.4166,0.3142,0.3142,0.3053,0.2873,0.2604,0.2513,0.2469,0.2019,0.2019,0.2154,0.193,0.2019,0.2154,0.0,0.0,0.0,0.0,0.0,0.0,0.0,0.0,0.0,0.0,0.794,0.8169,0.0,0.0,0.0,0.0,0.0,0.0,0.0,0.0,0.0,0.0,0.6988,0.7184,0.7184,0.7407,0.7484,0.7484,0.7484,0.7484,0.7484,0.7484,0.7484,0.7484,0.7484,0.7484,0.7484,0.7484,0.7484,0.7484,0.7484,0.7484,0.7484,0.7484,0.7484,0.7484,0.7484,0.0,0.0,0.0,0.7484,0.0,0.0,0.0,0.7522,0.7522,0.768,0.7876,0.8102,0.8403,0.8703,0.8703,0.8703,0.8703,0.8703,0.8722,0.8798,0.8943,0.9164,0.939,0.9606,0.0,0.0,0.0,0.0,0.0,0.0,0.0,0.0,0.0,0.0,0.0,0.0,0.0,0.0,0.0,0.9927,0.9783,0.9518,0.9566,0.9348,0.8873,0.8899,0.8911,0.8911,0.8696,0.8608,0.8644,0.8476,0.7896,0.6918,0.6786,0.5764,0.4121,0.4121,0.3631,0.2873,0.2604,0.2513,0.2469,0.2243,0.2154,0.2199,0.2154,0.2154,0.2199,0.0,0.0,0.0,0.0,0.0,0.0,0.0,0.0,0.0,0.0,0.0,0.7407,0.0,0.0,0.0,0.0,0.0,0.0,0.0,0.0,0.0,0.6412,0.6834,0.7022,0.7022,0.7326,0.7484,0.7484,0.7484,0.7484,0.7484,0.7484,0.7484,0.7484,0.7484,0.7484,0.7484,0.7484,0.7484,0.7484,0.7484,0.7561,0.7684,0.7684,0.7684,0.7684,0.7684,0.0,0.0,0.0,0.7603,0.7522,0.7642,0.0,0.0,0.0,0.7799,0.803,0.8365,0.8551,0.8703,0.8703,0.8703,0.8703,0.8703,0.8703,0.8727,0.8822,0.8911,0.9077,0.0,0.0,0.0,0.0,0.0,0.0,0.0,0.0,0.0,0.0,0.0,0.0,0.0,0.0,0.0,0.0,0.9994,0.9864,0.9602,0.9733,0.9646,0.9301,0.9301,0.9257,0.913,0.8867,0.874,0.874,0.8656,0.8388,0.7944,0.7944,0.6874,0.5099,0.5099,0.4832,0.4431,0.3764,0.3496,0.3496,0.3226,0.2914,0.2648,0.3004,0.2915,0.2558,0.0,0.0,0.0,0.0,0.0,0.0,0.0,0.0,0.0,0.0,0.0,0.0,0.0,0.0,0.0,0.0,0.0,0.0,0.0,0.0,0.0,0.63,0.6676,0.6903,0.6903,0.7288,0.7484,0.7484,0.7484,0.7484,0.7484,0.7484,0.7484,0.7484,0.7484,0.7484,0.7484,0.7484,0.7484,0.7522,0.7561,0.768,0.7804,0.7842,0.7876,0.7876,0.7876,0.0,0.0,0.0,0.0,0.0,0.0,0.0,0.0,0.0,0.0,0.8255,0.8551,0.8665,0.8703,0.8703,0.8703,0.8703,0.8703,0.878,0.8856,0.0,0.8932,0.9106,0.0,0.0,0.0,0.0,0.0,0.0,0.0,0.0,0.0,0.0,0.0,0.0,0.0,0.0,0.0,0.0,0.9994,0.9907,0.9733,0.9907,0.9864,0.9602,0.9602,0.9515,0.9388,0.913,0.8872,0.8612,0.8612,0.8612,0.8612,0.8612,0.7808,0.6432,0.6163,0.5941,0.563,0.4966,0.4654,0.4654,0.4429,0.4074,0.3676,0.4162,0.3896,0.323,0.0,0.0,0.0,0.0,0.0,0.0,0.0,0.0,0.0,0.0,0.0,0.0,0.0,0.0,0.7484,0.7484,0.0,0.0,0.0,0.0,0.0,0.6338,0.6676,0.0,0.6903,0.7288,0.7484,0.7484,0.7484,0.7484,0.7484,0.7484,0.7484,0.7484,0.7484,0.7484,0.7484,0.7484,0.7484,0.7522,0.7723,0.7804,0.7804,0.803,0.0,0.0,0.0,0.0,0.0,0.0,0.0,0.0,0.0,0.0,0.0,0.0,0.0,0.0,0.8403,0.8551,0.8703,0.8703,0.8703,0.8703,0.8703,0.9013,0.9284,0.9284,0.9582,0.0,0.0,0.0,0.0,0.0,0.0,0.0,0.0,0.0,0.0,0.0,0.0,0.0,0.0,0.0,0.0,0.0,0.9994,0.9994,0.9994,0.9994,0.9864,0.9602,0.9602,0.9602,0.9602,0.9388,0.9043,0.8612,0.8612,0.8612,0.8612,0.8612,0.8524,0.8388,0.7452,0.6517,0.5675,0.563,0.563,0.563,0.563,0.5586,0.5542,0.5586,0.501,0.421,0.0,0.0,0.0,0.0,0.0,0.0,0.0,0.0,0.0,0.0,0.0,0.0,0.0,0.7484,0.771,0.8208,0.8284,0.0,0.0,0.0,0.0,0.7863,0.8237,0.8423,0.8423,0.8841,0.9026,0.9026,0.8504,0.8284,0.8246,0.7748,0.7484,0.7522,0.7642,0.7684,0.7684,0.7834,0.7872,0.791,0.7953,0.8068,0.8178,0.825,0.0,0.0,0.0,0.0,0.0,0.0,0.0,0.0,0.0,0.0,0.0,0.8255,0.8441,0.8589,0.8589,0.9008,0.9349,0.8818,0.9084,0.9387,0.9127,0.9208,0.9359,0.962,0.9809,0.0,0.0,0.0,0.0,0.0,0.0,0.0,0.0,0.0,0.0,0.0,0.0,0.0,0.0,0.0,0.0,0.0,0.0,0.9757,0.9757,0.9923,0.9951,0.9864,0.9864,0.9777,0.9602,0.9388,0.913,0.8784,0.8784,0.874,0.8612,0.8612,0.8612,0.8568,0.8208,0.7852,0.7496,0.6874,0.6605,0.6605,0.6605,0.6251,0.5764,0.6384,0.5985,0.5186,0.0,0.0,0.0,0.0,0.0,0.0,0.0,0.0,0.0,0.0,0.0,0.0,0.0,0.0,0.8246,0.9046,0.9344,0.9382,0.9117,0.9122,0.897,0.8703,0.9074,0.9296,0.9296,0.9448,0.9485,0.9485,0.8694,0.8284,0.8284,0.7748,0.7484,0.7522,0.7723,0.7765,0.7723,0.7915,0.8026,0.8117,0.8166,0.8369,0.8599,0.0,0.0,0.0,0.0,0.0,0.0,0.0,0.0,0.0,0.0,0.0,0.0,0.0,0.8589,0.8703,0.8703,0.9273,0.9765,0.9236,0.9501,0.9846,0.9544,0.9397,0.9397,0.9809,0.9992,0.0,0.0,0.0,0.0,0.0,0.0,0.0,0.0,0.0,0.0,0.0,0.0,0.0,0.0,0.0,0.0,0.0,0.0,0.0,0.9597,0.9776,0.9923,0.9994,0.9994,0.9864,0.9602,0.9476,0.9257,0.9043,0.9043,0.8911,0.8696,0.8696,0.8656,0.8612,0.8612,0.8612,0.8568,0.7896,0.7584,0.7584,0.7584,0.7231,0.6741,0.7363,0.7007,0.6163,0.0,0.0,0.0,0.0,0.0,0.0,0.0,0.0,0.0,0.0,0.0,0.0,0.0,0.0,0.0,0.9884,1.0663,1.0775,0.9992,0.9922,0.9576,0.8813,0.0,0.0,0.0,0.8965,0.8775,0.8775,0.7978,0.7557,0.7522,0.7522,0.7484,0.7522,0.7723,0.7684,0.7531,0.7731,0.7909,0.8137,0.0,0.8654,0.8982,0.0,0.0,0.0,0.9065,0.8871,0.0,0.8707,0.0,0.0,0.0,0.0,0.0,0.0,0.0,0.0,0.0,0.0,0.0,0.996,0.9954,0.9954,0.9916,0.0,0.9473,0.9809,0.0,0.0,0.0,0.0,0.0,0.0,0.0,0.0,0.0,0.0,0.0,0.0,0.0,0.0,0.0,0.0,0.0,0.0,0.9272,0.9366,0.9573,0.9597,0.9738,0.998,0.9994,0.9864,0.9602,0.9602,0.9519,0.9305,0.9305,0.9174,0.8911,0.8911,0.8828,0.8612,0.8612,0.8612,0.8612,0.8612,0.8612,0.8612,0.8612,0.8612,0.8612,0.8612,0.7984,0.7139,0.0,0.0,0.0,0.0,0.0,0.0,0.0,0.0,0.0,0.0,0.0,0.0,0.8623,0.9236,0.9879,1.07,1.0962,1.0999,1.0775,1.0775,1.0663,1.0432,1.0244,1.0432,1.1031,1.0657,1.0432,1.0432,0.9636,0.0,0.0,0.0,0.0,0.7484,0.7561,0.7639,0.7722,0.8073,0.8256,0.8352,0.868,0.8905,0.0,0.0,0.0,0.0,0.0,0.9068,0.8897,0.0,0.8792,0.8627,0.0,0.0,0.0,0.0,0.0,0.0,0.9576,0.0,0.0,0.0,0.0,0.0,0.0,0.0,1.0481,0.9997,0.0,0.0,0.0,0.0,0.0,0.0,0.0,0.0,0.0,0.0,0.0,0.0,0.0,0.0,0.0,0.0,0.0,0.0,0.902,0.9094,0.9155,0.9442,0.963,0.9729,0.9919,0.9951,0.9907,0.9907,0.9777,0.9519,0.9519,0.9388,0.9174,0.9174,0.9174,0.9087,0.9087,0.9087,0.9087,0.8915,0.8911,0.9087,0.8915,0.8828,0.878,0.8652,0.8432,0.8208,0.0,0.0,0.0,0.0,0.0,0.0,0.0,0.0,0.0,0.0,0.0,0.0,0.9084,0.9911,1.0588,1.1074,1.1111,1.1111,1.1111,1.1111,1.1111,1.1111,1.1037,1.1223,1.1706,1.1298,0.0,0.0,0.0,0.0,0.0,0.0,0.0,0.0,0.7637,0.7739,0.791,0.8228,0.8461,0.0,0.8905,0.0,0.0,0.9409,0.9511,0.0,0.0,0.0,0.9256,0.9434,0.9377,0.0,0.0,0.0,0.0,0.0,0.0,0.0,0.0,0.0,0.0,0.0,0.0,0.0,1.0999,1.0663,1.0481,0.0,0.0,0.0,0.0,0.0,0.0,0.0,0.0,0.0,0.0,0.0,0.0,0.0,0.0,0.0,0.0,0.8703,0.8703,0.8703,0.8817,0.893,0.8981,0.9291,0.9512,0.9602,0.9762,0.9909,0.9994,0.9994,0.9907,0.9777,0.9777,0.9646,0.9432,0.9432,0.9388,0.9305,0.9305,0.9345,0.9432,0.9257,0.9213,0.9301,0.913,0.8999,0.8911,0.8915,0.8828,0.874,0.0,0.0,0.0,0.0,0.0,0.0,0.0,0.0,0.0,0.0,0.0,0.0,0.9728,0.0,0.0,0.0,1.1067,1.1041,1.1122,1.1184,1.1202,1.1202,1.1434,1.1639,1.1757,1.1316,0.0,0.0,0.0,0.0,0.0,0.0,0.0,0.0,0.0,0.0,0.8057,0.8219,0.0,0.9023,0.9017,0.941,0.0,0.0,0.9795,0.9971,0.9828,0.9789,0.9829,1.0224,1.0242,0.0,0.0,0.0,0.0,0.0,0.8775,0.0,0.0,0.0,0.0,0.0,0.0,0.0,1.1409,1.07,1.0218,0.0,0.0,0.0,0.0,0.0,0.0,0.0,0.0,0.0,0.0,0.0,0.0,0.0,0.0,0.0,0.8818,0.8742,0.8703,0.878,0.878,0.8827,0.8978,0.9141,0.9338,0.9531,0.9578,0.9734,0.9961,0.9985,0.9994,0.9994,0.9994,0.9864,0.9646,0.9646,0.9563,0.9393,0.9393,0.9476,0.9646,0.9646,0.9559,0.9388,0.9349,0.9174,0.8999,0.9218,0.913,0.8999,0.0,0.0,0.0,0.0,0.0,0.0,0.0,0.0,0.0,0.0,0.0,0.9539,0.9884,0.9463,0.0,0.0,1.0701,1.0744,1.1372,1.1609,1.1724,1.1724,1.1158,1.1207,1.1986,1.1264,1.0925,0.0,0.0,0.0,0.0,0.0,0.0,0.0,0.0,0.0,0.8239,0.0,0.0,0.9239,0.9247,0.0,0.9685,0.9865,0.9961,1.0077,1.072,1.0874,1.0808,1.1174,1.1281,1.1089,0.0,0.0,0.0,0.8889,0.0,0.0,0.0,0.0,0.0,0.0,0.0,0.0,1.2268,1.2194,1.2077,0.0,0.0,0.0,0.0,0.0,0.0,0.0,0.0,0.0,0.0,0.0,0.0,0.0,0.0,0.0,0.9208,0.8894,0.8818,0.9165,0.917,0.907,0.876,0.8968,0.9061,0.9103,0.9432,0.9625,0.9663,0.9914,0.9994,0.9994,0.9994,0.9951,0.9907,0.9907,0.9907,0.9864,0.9864,0.9864,0.9907,0.9907,0.9907,0.982,0.9602,0.9519,0.9428,0.9345,0.9262,0.9262,0.0,0.0,0.0,0.0,0.0,0.0,0.0,0.0,0.0,0.8093,0.8904,0.9512,0.9512,0.9963,0.0,0.0,0.0,0.0,0.0,1.1814,1.188,1.188,1.1589,1.1721,1.2361,1.2021,1.1946,1.2139,0.0,0.0,0.0,0.0,0.0,0.0,0.0,0.0,0.0,0.0,0.8696,0.913,0.9257,0.0,0.982,0.9951,0.9994,1.0081,1.0511,1.1043,1.1633,1.1912,1.1891,0.0,0.0,1.0434,1.0029,0.0,1.0099,1.0475,0.0,0.0,0.0,1.2783,0.0,0.0,0.0,1.2452,1.2409,1.1694,1.1774,0.0,0.0,0.0,0.0,0.0,0.0,0.0,0.0,0.0,0.0,0.0,0.0,0.0,0.9284,0.9127,0.9089,0.9284,0.9127,0.8894,0.8703,0.8803,0.8911,0.8981,0.9188,0.9395,0.9602,0.9748,0.9852,0.9994,0.9994,0.9994,0.9994,0.9994,0.9994,0.9994,0.9994,0.9994,0.9994,0.9994,0.9994,0.9994,0.9864,0.9733,0.9602,0.965,0.9563,0.9476,0.63,0.63,0.0,0.0,0.0,0.0,0.0,0.0,0.0,0.7833,0.8705,0.9419,0.9622,1.0868,1.172,1.188,0.0,0.0,0.0,1.2047,1.203,1.203,1.2224,1.2407,1.2688,1.2836,1.3015,1.3213,0.0,0.0,0.0,0.0,0.0,0.0,0.0,0.0,0.9859,0.0,0.0,0.9257,0.0,0.9694,0.9864,0.9907,0.9907,0.9994,1.0376,1.1496,1.2829,1.2855,1.2557,1.208,1.1745,1.108,0.0,0.0,0.0,0.0,0.0,0.0,0.0,0.0,0.0,1.3346,0.0,0.0,0.0,0.0,0.0,0.0,0.0,0.0,0.0,0.0,0.0,0.0,0.0,0.0,0.0,0.0,0.0,0.0,0.0,0.9695,0.9544,0.9208,0.9122,0.9003,0.8703,0.878,0.8861,0.8959,0.9041,0.9226,0.9484,0.9648,0.9856,1.0062,1.0193,1.0212,1.0125,1.0125,1.0081,0.9994,0.9994,0.9994,0.9994,0.9994,1.0038,1.012,1.0038,0.9864,0.9689,0.9907,0.9864,0.9689,0.63,0.63,0.63,0.0,0.0,0.0,0.0,0.0,0.0,0.8714,0.9742,1.0648,1.1513,1.1129,1.1106,1.184,1.1472,0.0,1.2229,1.2487,1.2614,1.2614,1.2646,1.2729,1.294,1.2939,1.3015,1.3213,0.0,0.0,0.0,0.0,0.0,0.0,1.1026,1.0567,0.9903,0.0,0.999,0.0,1.0419,1.0033,0.0,0.9559,0.9646,0.9903,1.174,1.3516,1.4989,0.0,1.3919,1.2926,0.0,1.1449,1.0911,1.0456,0.0,0.0,0.0,0.0,0.0,0.0,1.3309,0.0,0.0,0.0,1.3382,1.3535,0.0,0.0,0.0,0.0,0.0,0.0,0.0,0.0,0.0,0.0,0.0,0.0,0.0,0.0,0.0,1.1149,1.0513,0.8889,0.9873,1.0019,0.8775,0.9051,0.9061,0.8737,0.9267,0.9394,0.9056,0.9832,1.0243,1.0273,1.0888,1.0939,1.0549,1.0549,1.0337,0.9994,0.9994,0.9994,0.9994,0.9994,1.0207,1.0506,1.012,0.9994,0.9951,0.9994,0.9994,0.9951,0.6334,0.63,0.63,0.0,0.0,0.0,0.0,0.0,0.0,0.9937,1.0508,1.1021,1.1402,1.1698,1.1992,1.2331,1.2176,1.2156,0.0,0.0,0.0,1.2705,1.2856,1.301,1.322,1.3319,1.3467,1.3721,1.3288,0.0,0.0,0.0,0.0,0.0,1.1542,1.137,1.1456,0.0,0.999,0.0,0.0,0.0,0.0,1.1009,1.1397,1.1569,1.3021,1.4006,1.4678,0.0,1.4545,0.0,0.0,0.0,0.0,0.0,0.0,0.0,0.0,0.0,0.0,0.0,0.0,0.0,1.3492,0.0,1.3528,0.0,0.0,0.0,0.0,0.0,0.0,0.0,0.0,0.0,0.0,0.0,0.0,0.0,0.0,0.0,0.0,0.0,0.0,0.0,1.003,1.0175,0.9089,0.943,0.9582,0.9387,0.9632,0.9746,0.9679,1.0067,1.0376,1.0648,1.0947,1.1065,1.102,1.102,1.0766,1.0337,1.0337,1.0207,1.0038,1.025,1.0463,1.0593,1.0722,1.0598,1.0337,1.0337,1.0337,1.0337,0.6463,0.6422,0.6422,0.6422,0.0,0.0,0.8967,0.9913,1.0509,1.0795,1.1001,1.1231,1.1525,1.2246,1.2705,1.2705,1.2705,1.2705,0.0,0.0,1.2747,1.279,1.3052,1.3264,1.3476,1.3695,1.3913,1.4088,1.3434,0.0,0.0,0.0,0.0,0.0,0.0,1.2308,1.2693,0.0,1.0717,1.0885,1.109,1.1386,1.1772,1.237,1.2802,1.319,1.3837,1.4265,1.4559,1.5072,1.4712,0.0,1.4418,0.0,0.0,0.0,0.0,0.0,1.2718,0.0,0.0,0.0,0.0,0.0,0.0,0.0,0.0,0.0,0.0,0.0,0.0,0.0,0.0,0.0,0.0,0.0,0.0,0.0,0.0,0.0,0.0,0.0,0.0,0.0,0.0,0.9771,1.0513,1.055,0.9511,0.9846,0.9992,0.9922,0.9992,1.0073,1.0131,1.0462,1.083,1.1146,1.141,1.1567,1.1614,1.1509,1.1241,1.0809,1.0809,1.0636,1.0381,1.0679,1.0852,1.1025,1.1365,1.1278,1.0977,1.0852,1.0809,1.0809,0.6688,0.6685,0.6685,0.6685,0.7461,0.8356,0.934,0.9649,1.0077,1.0955,1.1208,1.166,1.2565,1.2699,1.2705,1.2705,0.0,1.2705,1.2705,0.0,1.2833,0.0,0.0,1.3476,1.3695,1.3955,1.4088,1.4088,1.4088,0.0,0.0,0.0,0.0,0.0,1.3997,1.3639,1.2972,1.2735,1.2863,1.3275,1.3317,1.4097,1.5041,0.0,1.3063,1.4055,1.4097,0.0,0.0,1.5024,1.4365,0.0,0.0,0.0,0.0,0.0,0.0,0.0,0.0,0.0,0.0,1.2973,0.0,0.0,0.0,0.0,1.3492,0.0,0.0,0.0,0.0,0.0,0.0,0.0,0.0,0.0,0.0,0.0,0.0,0.0,0.0,0.0,0.0,0.0,0.0,1.0887,1.1687,1.1539,0.9954,1.0255,1.0293,0.9922,1.0293,1.0293,0.9933,1.1147,1.1741,1.1766,1.2705,1.289,1.2448,1.2113,1.1714,1.1284,1.1284,1.1284,1.1278,1.1284,1.1542,1.1972,1.1972,1.1972,1.1886,1.1456,1.1284,1.1284,0.6947,0.6947,0.7097,0.7552,0.7976,0.8594,0.9611,1.0336,1.0862,1.1203,1.1829,1.2357,1.2662,1.2705,1.2705,0.0,0.0,1.2705,1.2705,1.2881,0.0,0.0,0.0,1.3652,0.0,0.0,1.4088,1.4088,1.4088,1.4088,1.4088,1.4088,0.0,0.0,0.0,1.3955,0.0,0.0,0.0,0.0,0.0,1.3873,1.4908,0.0,0.0,1.4957,1.4957,1.5131,0.0,1.5009,1.4722,1.4458,1.4275,1.4151,1.4053,1.3779,1.3856,0.0,0.0,0.0,1.3455,1.3346,0.0,0.0,0.0,0.0,0.0,0.0,0.0,0.0,0.0,0.0,0.0,0.0,0.0,0.0,0.0,0.0,0.0,0.0,0.0,0.0,0.0,0.0,0.0,1.1502,1.2432,1.2622,1.1539,1.1885,1.204,1.1892,1.2003,1.2003,1.1892,1.2324,1.262,1.2815,1.3343,1.3595,1.3627,1.3754,1.3288,1.2443,1.2443,1.2009,1.1322,1.1623,1.1843,1.2015,1.2357,1.2448,1.24,1.1929,1.1757,1.18,0.7095,0.7095,0.725,0.7685,0.8369,0.9215,1.025,1.1187,1.18,1.18,1.2402,0.0,1.285,0.0,1.2994,0.0,1.291,1.2893,1.2973,1.3065,0.0,1.3307,1.3568,1.3737,0.0,0.0,0.0,0.0,0.0,1.4088,1.4088,1.4088,1.4088,1.4088,0.0,1.4124,1.4159,1.3476,1.3258,0.0,0.0,1.4048,0.0,0.0,1.5347,1.5305,0.0,1.5347,1.5316,1.4878,1.4805,1.4827,1.4435,1.4438,1.4493,1.4236,1.4139,1.4002,1.374,1.3587,0.0,1.3419,1.3455,0.0,1.3419,0.0,0.0,0.0,0.0,0.0,0.0,0.0,0.0,0.0,0.0,0.0,0.0,1.4605,0.0,0.0,0.0,0.0,0.0,0.0,1.3193,1.2492,1.3178,1.3295,0.0,0.0,1.29,1.29,1.29,1.29,1.29,1.3112,1.3322,1.3486,1.3923,1.4231,1.4398,1.4586,1.4314,1.3591,1.3343,1.2833,1.2143,1.2229,1.2229,1.2272,1.2571,1.2705,1.2662,1.2357,1.2229,1.2272,0.7095,0.7139,0.7183,0.7228,0.8707,1.0226,0.0,0.0,1.2637,0.0,1.2927,1.3101,1.3101,1.3363,1.3513,1.3513,1.329,1.3271,1.3523,1.3311,0.0,0.0,1.3701,1.3828,1.4088,0.0,0.0,0.0,0.0,0.0,1.4088,1.4088,1.4088,1.4088,1.4088,0.0,1.4356,1.4166,1.4201,1.4398,1.4608,1.4692,1.4734,1.5173,1.5257,1.509,1.509,1.5215,1.5287,1.4684,1.467,1.4769,1.4165,1.4218,1.4482,1.4467,1.4262,1.4034,1.3967,1.374,1.3477,1.3273,0.0,0.0,0.0,0.0,1.3492,0.0,0.0,0.0,0.0,0.0,0.0,0.0,0.0,0.0,0.0,0.0,0.0,0.0,0.0,0.0,0.0,1.4605,1.4382,1.3869,1.3833,1.3579,0.0,0.0,1.2973,1.2973,1.2973,1.2973,1.2973,1.3542,1.3833,1.384,1.4463,1.4739,1.4762,1.4775,1.4776,1.4692,1.4068,1.373,1.3652,1.3003,1.2705,1.2705,1.2705,1.2705,1.2747,1.2705,1.2705,1.2705,0.7095,0.7665,0.8364,0.9052,0.9575,1.0226,0.0,0.0,0.0,0.0,1.2791,1.3417,1.3417,1.3477,1.3513,1.3513,1.364,0.0,0.0,0.0,0.0,1.4056,1.4025,1.4046,1.4088,1.4088,0.0,1.4088,0.0,0.0,1.4088,1.4088,1.4088,1.4088,0.0,1.4124,1.4166,1.413,1.4124,1.4208,1.4405,1.4482,0.0,0.0,1.4957,1.5131,1.5257,1.5264,1.5121,1.4645,1.4562,1.4479,1.3828,1.3843,1.41,1.3814,1.4071,1.4276,1.3748,1.3733,1.3799,1.3521,1.3455,1.3492,0.0,0.0,0.0,0.0,0.0,0.0,0.0,0.0,0.0,0.0,0.0,0.0,0.0,0.0,0.0,1.4605,0.0,0.0,0.0,1.4605,1.4533,1.4418,1.4382,0.0,0.0,0.0,0.0,1.4165,1.4165,1.4165,1.4165,1.431,1.4382,1.4389,1.5114,1.5443,1.5466,1.5961,1.5899,1.5401,1.495,1.4328,1.3652,1.3179,1.2881,1.2705,1.2705,1.3003,1.3392,1.2875,1.2705,1.2705,0.7625,0.8207,0.9049,1.046,0.0,0.0,1.1357,1.1949,0.0,1.2456,1.3195,0.0,1.3682,1.3791,1.3904,1.4003,1.4084,0.0,1.4376,0.0,0.0,1.4348,1.4276,1.4215,1.4088,1.4088,0.0,1.4088,0.0,0.0,1.4088,1.4088,1.4088,1.4088,0.0,1.4015,1.3895,1.3895,1.3895,1.3901,1.4266,0.0,0.0,1.4741,1.4915,1.4943,1.5097,1.5095,1.4974,1.464,1.4416,1.421,1.366,1.3623,1.3762,1.3718,1.3865,1.3996,1.377,1.374,1.3726,1.3543,1.3492,1.3492,1.3492,1.3492,1.3572,0.0,0.0,0.0,0.0,0.0,0.0,0.0,0.0,0.0,0.0,0.0,0.0,0.0,1.4605,0.0,0.0,1.4605,1.4605,1.4605,1.4605,0.0,0.0,0.0,0.0,1.4605,1.4605,1.4605,1.4605,1.4605,1.4605,1.4613,1.5528,1.5865,1.5744,1.6805,1.6976,1.6435,1.6064,1.5526,1.4852,1.4314,1.3886,1.3548,1.3379,1.3633,1.4097,1.3711,1.3584,1.3548,0.8436,0.878,0.9515,0.0,0.0,0.0,0.0,1.2678,0.0,1.3538,0.0,1.3954,1.4007,1.4207,1.4442,1.4736,0.0,1.4615,1.5027,1.4852,1.4673,1.4605,1.4563,1.4402,1.4148,1.4108,1.4088,0.0,0.0,0.0,1.4088,1.4088,1.4068,1.4028,0.0,0.0,0.0,1.36,1.362,1.3762,1.4254,1.4482,1.4524,1.4914,1.4935,1.4726,1.483,1.4863,1.4809,1.4523,1.4254,1.3923,1.3594,1.3492,1.355,1.3836,1.3748,1.3616,1.385,1.374,1.355,1.3506,1.3492,1.3492,1.3492,1.3528,1.3608,1.379,1.3992,1.4209,0.0,0.0,0.0,0.0,0.0,0.0,0.0,0.0,0.0,0.0,0.0,0.0,0.0,0.0,0.0,0.0,0.0,0.0,0.0,0.0,0.0,1.4605,1.4641,1.4677,1.4677,0.0,1.474,1.4756,1.5864,1.6209,1.5898,1.7332,1.7797,1.7473,1.7164,1.6837,1.6435,1.5809,1.5262,1.4852,1.4468,1.4629,1.4991,1.4991,1.5047,1.5061,0.9024,0.9473,1.0186,0.0,0.0,1.2362,1.3361,1.3674,1.3785,1.3833,1.4063,1.4327,1.4524,1.4609,1.4742,1.5035,1.5168,0.0,0.0,0.0,0.0,1.5244,1.4776,1.4496,1.4442,1.4208,1.4088,0.0,0.0,0.0,0.0,0.0,0.0,0.0,0.0,0.0,1.36,1.36,0.0,1.4281,1.4545,1.4783,1.497,1.496,1.4906,1.4822,1.4623,1.4602,1.4604,1.4221,1.4071,1.3923,1.3594,1.3492,1.3506,1.3565,1.3733,1.385,1.3638,1.3733,1.3836,1.3565,1.3492,1.3492,1.3492,1.3645,1.379,1.3992,1.4209,1.4389,1.4533,0.0,0.0,0.0,0.0,0.0,0.0,0.0,0.0,0.0,0.0,1.5098,0.0,0.0,0.0,0.0,0.0,0.0,0.0,0.0,0.0,0.0,1.4919,0.0,0.0,0.0,1.5586,1.5594,1.6393,1.6758,1.6716,1.761,1.7959,1.7878,1.7489,1.7155,1.687,1.6404,1.6067,1.5764,1.5681,1.606,1.6583,1.6583,1.696,1.7245,1.0181,1.0548,1.1288,1.3015,0.0,0.0,0.0,1.43,1.43,1.43,1.4417,1.4592,1.4885,1.4885,1.5029,1.5267,1.5452,1.554,1.5635,1.5651,1.5558,1.5404,1.4983,1.4676,1.4479,1.4235,1.4088,1.4088,0.0,0.0,0.0,0.0,0.0,1.3593,0.0,1.3454,0.0,0.0,0.0,1.4109,1.4392,1.4534,1.4574,1.4504,1.4572,1.4655,1.4333,1.4272,1.4275,1.4084,1.3865,1.3704,1.3543,1.3492,1.3492,1.3492,1.3601,1.3697,1.3536,1.3609,1.3689,1.3536,1.3492,1.3492,1.3492,1.3645,1.3863,1.4065,1.4553,1.5018,1.5196,1.5204,0.0,0.0,0.0,0.0,0.0,0.0,0.0,0.0,0.0,0.0,0.0,0.0,0.0,0.0,0.0,0.0,0.0,0.0,0.0,0.0,0.0,0.0,0.0,0.0,0.0,1.6115,1.6859,1.7194,1.7218,1.8211,1.8554,1.8362,1.8385,1.8175,1.787,1.7408,1.7107,1.6887,1.6764,1.709,1.7666,1.7553,1.8014,1.8505,1.0963,1.143,0.0,0.0,1.3624,0.0,1.464,1.479,1.479,1.479,1.479,1.4885,1.5178,1.5178,1.5267,1.554,1.554,1.5635,1.5778,1.5784,1.5732,1.5498,1.5211,1.4917,1.4623,1.4329,1.4148,0.0,0.0,0.0,0.0,0.0,0.0,0.0,0.0,0.0,0.0,0.0,1.3858,1.3877,1.4163,1.424,1.4169,1.4105,1.42,1.4364,1.3996,1.3879,1.3879,1.3879,1.3704,1.3492,1.3492,1.3492,1.3492,1.3492,1.3492,1.3492,1.3492,1.3492,1.3492,1.3492,1.3535,1.3572,1.3572,1.3754,1.3971,1.4137,1.4911,1.5648,1.5965,1.5515,0.0,0.0,0.0,0.0,0.0,0.0,0.0,0.0,0.0,0.0,0.0,0.0,0.0,0.0,0.0,1.524,1.5303,1.5621,1.5798,0.0,0.0,1.5912,1.5912,0.0,1.6244,0.0,1.7345,1.7736,1.7865,1.8922,1.9231,1.8971,1.9271,1.9231,1.886,1.8442,1.8224,1.8103,1.7934,1.8158,1.8559,1.8399,1.8776,1.9222,0.0,0.0,0.0,0.0,0.0,0.0,1.4885,1.5083,1.5083,1.5083,1.5083,1.5172,1.5445,1.5445,1.5547,1.5737,1.5784,1.5784,1.5784,1.5784,1.5771,1.5744,1.5511,1.5217,1.4975,1.4629,1.4349,0.0,0.0,0.0,0.0,0.0,0.0,0.0,0.0,0.0,0.0,1.3467,1.3624,1.4059,1.4127,1.4252,1.4435,1.4143,1.4026,1.3989,1.366,1.3543,1.3543,1.3543,1.3521,1.3492,1.3492,1.3492,1.3492,1.3492,1.3492,1.3492,1.3492,1.3492,1.3492,1.3492,1.3645,1.3754,1.3754,1.4072,1.4353,1.4353,1.5133,1.5965,1.6655,1.6733,1.6585,0.0,0.0,0.0,0.0,0.0,0.0,1.7628,0.0,0.0,0.0,1.6315,0.0,0.0,1.5436,1.5374,1.5727,1.5762,1.5798,1.5798,0.0,1.6237,1.6237,1.6621,1.6995,1.7387,1.8018,1.8499,1.8868,1.9558,1.9824,1.9784,1.9824,1.9715,1.9478,1.9271,1.9271,1.9439,1.9399,1.9439,1.9478,1.9478,1.9518,1.9557,0.0,0.0,0.0,0.0,0.0,0.0,0.0,1.5356,1.5363,1.5506,1.5404,1.5452,1.5642,1.5683,1.573,1.5778,1.5784,1.5784,1.5784,1.5784,1.5784,1.5784,1.5551,1.5344,1.5224,1.4763,1.4462,0.0,0.0,0.0,0.0,0.0,0.0,0.0,0.0,1.3488,1.3743,1.3761,1.387,1.4057,1.4057,1.3979,1.391,1.374,1.3689,1.3675,1.3543,1.3492,1.3492,1.3492,1.3492,1.3492,1.3492,1.3492,1.3492,1.3492,1.3492,1.3492,1.3492,1.3492,1.3492,1.3492,1.3645,1.3797,1.3797,1.4109,1.4389,1.4389,1.5133,1.6175,1.7345,1.7001,1.6793,0.0,0.0,0.0,0.0,0.0,0.0,0.0,0.0,1.8263,0.0,0.0,0.0,0.0,0.0,1.5842,1.5798,1.6228,1.6473,1.6473,0.0,1.6726,1.6821,1.7003,1.7467,1.8218,1.846,1.8929,1.954,1.9788,1.9902,1.9902,1.9902,1.9863,1.9784,1.9706,1.9784,1.999,1.9833,1.9872,1.999,1.9833,1.9794,1.9794,1.3715,0.0,1.4627,0.0,1.5493,1.554,1.5588,1.5588,1.5635,1.5784,1.5683,1.5635,1.5784,1.5784,1.5784,1.5784,1.5784,1.5784,1.5784,1.5784,1.5784,1.5784,1.5631,0.0,1.5398,1.499,1.4689,1.4522,1.4059,0.0,0.0,0.0,0.0,0.0,1.3449,1.3672,1.3793,1.3885,1.3889,1.3843,1.3843,1.3704,1.3492,1.3492,1.3492,1.3492,1.3492,1.3492,1.3492,1.3492,1.3492,1.3492,1.3492,1.3492,1.3492,1.3492,1.3492,1.3492,1.3492,1.3535,1.3608,1.3608,1.379,1.3971,1.3971,1.4217,1.4605,1.5054,1.5648,1.6594,1.8104,1.755,1.7276,1.8476,0.0,0.0,0.0,0.0,0.0,0.0,1.9231,1.911,1.9606,1.8734,0.0,0.0,0.0,0.0,1.6254,1.6716,0.0,0.0,0.0,0.0,0.0,1.7401,1.7875,1.8682,1.8889,1.9364,2.002,2.0098,2.0098,2.0098,2.0059,2.002,2.002,1.9942,2.0059,2.0264,2.0098,2.0137,2.0264,2.0108,2.002,2.002,1.3902,1.4771,1.5493,1.5493,1.5493,1.5588,1.5784,1.5784,1.5784,1.5784,1.5784,1.5784,1.5784,1.5784,1.5784,1.5784,1.5784,1.5784,1.5784,1.5784,1.5784,0.0,0.0,1.5691,1.5404,1.5391,1.5104,1.4522,0.0,0.0,1.3586,0.0,1.3127,1.3386,1.3269,1.3497,1.396,1.3638,1.3506,1.3499,1.3499,1.3499,1.3492,1.3492,1.3492,1.3492,1.3492,1.3492,1.3492,1.3492,1.3492,1.3492,1.3492,1.3492,1.3492,1.3492,1.3492,1.3492,1.3492,1.3645,1.3797,1.3797,1.4109,1.4389,1.4389,1.4497,1.5026,1.655,1.6862,1.7379,1.9008,1.8697,1.8385,1.8998,0.0,0.0,0.0,0.0,0.0,0.0,1.8347,1.8361,1.9233,0.0,0.0,0.0,0.0,0.0,0.0,0.0,0.0,1.7505,1.7505,0.0,1.7505,1.7903,1.8275,1.8728,1.9353,1.9899,2.0303,2.0489,2.0605,2.0566,2.0372,2.0303,2.0264,2.0029,2.0059,2.0303,2.0303,2.0303,2.0303,2.0303,2.0303,2.0303,1.4819,1.5255,1.554,1.5683,1.5683,1.573,1.5778,1.5784,1.5784,1.5784,1.5784,1.5784,1.5784,1.5784,1.5784,0.0,1.5784,1.5784,0.0,1.5784,1.5784,1.5784,1.5784,1.5738,1.5691,1.5498,1.5304,1.5117,0.0,0.0,0.0,1.3255,1.3362,1.3544,1.3677,1.3725,1.3645,1.3543,1.3492,1.3492,1.3492,1.3492,1.3492,1.3492,1.3492,1.3492,1.3492,1.3492,1.3492,1.3492,1.3492,1.3528,1.3645,1.3608,1.3535,1.3645,1.3717,1.3717,1.3884,1.3956,1.3992,1.3992,1.4209,1.4389,1.4389,1.4497,1.5054,1.6585,1.6897,1.7379,1.8998,1.8908,1.8831,1.9539,1.9353,0.0,0.0,0.0,0.0,0.0,2.0107,2.0366,0.0,2.0204,0.0,0.0,0.0,0.0,0.0,0.0,0.0,0.0,1.7505,0.0,1.7647,1.8088,1.8591,1.9105,1.9605,2.007,2.0489,2.0566,2.0605,2.0605,2.0527,2.0489,2.0489,2.0411,2.0411,2.0489,2.0489,2.0489,2.0489,2.0489,2.0489,2.0527,1.535,1.5588,1.5635,1.5784,1.5784,1.5784,1.5784,1.5784,1.5784,1.5784,1.5784,1.5784,1.5784,1.5784,0.0,1.5784,1.5784,1.5784,1.5784,1.5784,1.5784,1.5784,1.5784,1.5784,1.5784,0.0,0.0,1.5237,1.4211,1.3554,1.3292,1.3411,1.3488,1.3449,1.368,1.3689,1.3492,1.3492,1.3492,1.3492,1.3492,1.3492,1.3492,1.3492,1.3492,1.3492,1.3492,1.3492,1.3492,1.3492,1.3564,1.3681,1.4109,1.4173,1.4173,1.4289,1.4325,1.4425,1.4832,1.4796,1.4625,1.4625,1.4664,1.4702,1.4702,1.4775,1.5234,1.6621,1.6922,1.7472,1.9098,1.9308,1.9374,1.99,1.9758,1.9726,2.0042,0.0,0.0,0.0,0.0,0.0,0.0,2.0921,0.0,0.0,0.0,0.0,0.0,0.0,0.0,1.8066,1.8056,0.0,1.805,1.8495,1.9003,1.9531,1.9951,2.0341,2.0693,2.0693,2.077,2.0809,2.0731,2.0693,2.0693,2.0644,2.0605,2.0605,2.0605,2.0605,2.0605,2.0605,2.0605,2.0644,1.554,1.5784,0.0,0.0,1.5784,0.0,1.5784,1.5784,1.5784,1.5784,1.5784,1.5784,1.5784,1.5784,1.5784,1.5784,0.0,0.0,0.0,1.5784,1.5784,1.5784,1.5784,1.5818,1.5798,1.5798,1.5551,1.4993,1.4265,1.3884,1.3782,1.362,1.3434,1.3236,1.3419,1.3492,1.3492,1.3492,1.3492,1.3492,1.3564,1.3564,1.3564,1.3564,1.3601,1.3637,1.3528,1.3528,1.3564,1.3535,1.3681,1.4,1.4732,1.5125,1.5303,1.5303,1.5303,1.5444,1.6167,1.5991,1.5604,1.5604,1.544,1.5255,1.5218,1.5218,1.5593,1.6711,1.707,1.7692,1.933,1.9769,1.9933,2.0107,2.0118,2.0118,2.0183,0.0,0.0,0.0,0.0,0.0,0.0,2.1198,2.1431,0.0,0.0,0.0,0.0,0.0,1.9,1.9077,1.9131,1.9022,1.8703,1.92,1.9652,1.9999,2.0448,2.0731,2.0906,2.0906,2.1022,2.1167,2.0984,2.0906,2.0906,2.0693,2.0605,2.0605,2.0605,2.0605,2.0605,2.0605,2.0644,2.0683,0.0,0.0,1.5784,1.5784,1.5784,1.5784,1.5784,1.5784,1.5784,1.5784,1.5784,1.5784,1.5784,1.5784,1.5784,1.5784,1.5784,1.5784,1.5784,1.5784,1.5784,1.5784,1.5784,1.5772,1.5737,1.5737,1.5413,1.4787,1.4386,1.4046,1.3734,1.342,1.3345,1.3419,1.3499,1.3492,1.3492,1.3492,1.3492,1.3564,1.4122,1.4322,1.4322,1.4322,1.4681,1.5037,1.3884,1.3876,1.4294,1.3855,1.4137,1.4732,1.5223,1.5772,1.6263,1.6263,1.6263,1.6332,1.6689,1.6655,1.6585,1.6585,1.6287,1.5905,1.533,1.5655,1.6302,1.7304,1.7735,1.8331,1.9594,1.9868,2.0031,2.0421,2.027,2.0302,2.085,2.0999,0.0,0.0,2.1632,2.1862,2.1925,2.1925,2.1788,0.0,0.0,0.0,0.0,2.0996,2.0537,2.0009,2.0523,2.044,1.9603,2.0611,2.1044,2.0891,2.1001,2.1089,2.1138,2.1138,2.1167,2.1205,2.1167,2.1022,2.0906,2.0867,2.0731,2.0605,2.0605,2.0693,2.0819,2.0819,2.0935,2.1089,1.5588,1.5784,1.5784,1.5784,1.5784,1.5784,1.5784,1.5784,1.5784,1.5784,1.5784,1.5784,1.5784,1.5784,1.5784,1.5784,1.5784,1.5784,1.5784,1.5784,1.5772,1.5638,1.5725,1.5683,1.5529,1.5599,1.5468,1.5078,1.503,1.4709,1.4079,1.4119,1.3925,1.3492,1.3492,1.3492,1.3492,1.3492,1.3492,1.3564,1.4294,1.4601,1.4637,1.4958,1.5349,1.5604,1.4796,1.4824,1.5199,1.4895,1.518,1.5772,1.6332,1.6853,1.7301,1.7643,1.7507,1.7335,1.7789,1.7662,1.7358,1.7162,1.7126,1.6917,1.6117,1.673,1.7483,1.764,1.8209,1.892,1.9736,1.9933,2.0129,2.0539,2.0453,2.0518,2.1126,2.1348,0.0,2.1683,2.1987,2.2197,2.2197,2.2197,2.203,2.162,0.0,0.0,2.1839,2.2221,2.2087,2.1284,2.1644,2.1677,2.1266,2.175,2.1753,2.1205,2.1205,2.1425,2.1863,2.1502,2.1578,2.1997,2.155,2.1282,2.1167,2.1099,2.0935,2.0741,2.0848,2.0896,2.0906,2.0984,2.1099,2.1244,1.5635,1.5784,1.5784,1.5784,1.5784,1.5784,1.5784,1.5784,1.5784,1.5784,1.5784,1.5784,1.5784,1.5784,1.5784,1.5784,1.5784,1.5784,1.5784,1.5792,1.5698,1.545,1.5581,1.5561,1.5349,1.5508,1.561,1.569,1.5866,1.5613,1.4954,1.531,1.4925,1.3923,1.3761,1.3674,1.3674,1.3674,1.3674,1.3739,1.4609,1.4958,1.5029,1.5631,1.5956,1.6026,1.5781,1.5913,1.6149,1.6079,1.6358,1.6879,1.7526,1.7935,1.8273,1.8931,1.8654,1.8307,1.8931,1.8654,1.8057,1.7612,1.7879,1.8045,1.7194,1.8053,1.8835,1.8216,1.8797,1.9545,1.9985,2.0096,2.0205,2.0539,2.0603,2.0764,2.1221,0.0,2.1714,2.1788,2.2018,2.2197,2.2197,2.2197,2.2228,2.2216,2.2413,2.2542,2.2604,2.3399,2.3548,2.2909,2.2876,2.3018,2.3265,2.2713,2.2107,2.1474,2.1359,2.1797,2.2708,2.1901,2.2073,2.2964,2.1959,2.154,2.1512,2.132,2.1138,2.0945,2.1128,2.1099,2.1022,2.1167,2.1244,2.132,1.5784,1.5784,1.5784,1.5784,1.5784,1.5784,1.5784,1.5784,1.5784,1.5784,1.5784,1.5784,1.5784,1.5784,1.5784,1.5784,1.5784,1.5784,1.5784,1.5745,1.5682,1.5681,1.5649,1.5588,1.546,1.5454,1.5784,1.649,1.6252,1.6458,1.7019,1.6487,1.6139,1.5926,1.4881,1.443,1.443,1.443,1.443,1.4537,1.5983,1.6541,1.655,1.6689,1.7088,1.7476,1.6167,1.6228,1.6862,1.6411,1.6828,1.7594,1.7867,1.8408,1.8965,1.9075,1.9031,1.8965,1.9075,1.9008,1.8774,1.8081,1.845,1.882,1.8082,1.8995,1.9966,1.9994,2.0184,2.0456,2.0695,2.038,2.0205,2.0539,2.0603,2.0828,2.1526,0.0,2.1819,2.2092,2.2154,2.2197,2.2197,2.2197,2.2247,2.2359,2.2814,2.3184,2.3467,2.4107,2.4668,2.5091,2.5104,2.5065,2.4921,2.343,2.267,2.2703,2.2035,2.2138,2.2916,2.2101,2.2214,2.2964,2.2101,2.1655,2.1502,2.1474,2.132,2.1177,2.1167,2.1282,2.1397,2.1436,2.154,2.1693,1.5784,1.5784,1.5784,1.5784,1.5784,1.5784,1.5784,1.5784,1.5784,1.5784,1.5784,1.5784,1.5784,1.5784,1.5879,1.5981,1.6028,1.6001,1.5971,1.5795,1.5622,1.5421,1.549,1.5533,1.5439,1.542,1.5824,1.6698,1.7016,1.7273,1.7493,1.7402,1.7031,1.6366,1.5551,1.5171,1.5171,1.5171,1.5171,1.5278,1.6437,1.6897,1.6932,1.7329,1.775,1.8066,1.7364,1.7491,1.7978,1.7731,1.8003,1.8452,1.8553,1.8831,1.9108,1.9108,1.9108,1.9108,1.9108,1.9108,1.9031,1.8687,1.9218,1.9657,1.9003,2.0064,2.1094,2.066,2.0994,2.1252,2.0948,2.0853,2.084,2.0916,2.1083,0.0,0.0,2.1956,2.2018,2.2185,2.2197,2.2197,2.2197,2.245,2.2669,2.2814,2.344,2.3919,2.4188,2.4783,2.5294,2.5586,2.5933,2.5834,2.5312,2.4492,2.3742,2.3001,2.3043,2.3217,2.3596,2.3217,2.3254,2.3559,2.2767,2.2138,2.1655,2.1655,2.154,2.1359,2.1464,2.1502,2.1502,2.1617,2.1731,2.1807,1.5784,1.5784,1.5784,1.5784,1.5784,1.5784,1.5784,1.5784,1.5784,1.5784,1.5784,1.5784,1.5784,1.5879,1.5981,1.617,1.6203,1.6164,1.6081,1.5822,1.5528,1.5267,1.5397,1.546,1.5389,1.5389,1.5948,1.6984,1.7674,1.8091,1.8216,1.8395,1.7963,1.7043,1.6307,1.5991,1.5991,1.5991,1.5991,1.6062,1.6837,1.7148,1.7217,1.7828,1.8178,1.8303,1.8337,1.8539,1.8808,1.8808,1.8942,1.9108,1.9108,1.9108,1.9108,1.9108,1.9108,1.9108,1.9108,1.9108,1.9108,1.9108,1.9675,2.019,1.9853,2.0931,2.1859,2.128,2.1644,2.1919,2.1457,2.1486,2.1553,2.139,0.0,0.0,0.0,2.2154,2.2246,2.2354,2.2378,2.2426,2.2546,2.2983,2.3289,2.3437,2.4132,2.4649,2.4813,2.5444,2.5799,2.5799,2.626,2.6198,2.5594,2.5382,2.4695,2.3545,2.3913,2.4192,2.4373,2.4192,2.4192,2.4337,2.3386,2.2665,2.2063,2.1883,2.1693,2.1578,2.1731,2.1693,2.1578,2.1731,2.1807,2.1807,1.5784,1.5784,1.5784,1.5784,1.5784,1.5784,1.5784,1.5784,1.5784,1.5784,1.5784,1.5784,1.5784,1.6028,1.6177,1.6224,1.6137,1.6074,1.5988,1.5696,1.5511,1.5469,1.5452,1.5411,1.5389,1.5389,1.6237,1.7917,1.7957,1.8829,2.0343,1.9594,1.9158,1.9018,1.7502,1.6828,1.6828,1.6828,1.6828,1.6862,1.7613,1.7906,1.794,1.8202,1.8303,1.8303,1.8448,1.8617,1.8808,1.8808,1.8942,1.9108,1.9108,1.9108,1.9108,1.9108,1.9108,1.9108,1.9108,1.9108,1.9108,1.9108,1.9482,1.9983,2.0504,2.1201,2.1897,2.2451,2.2425,2.2399,2.2693,2.2429,2.2094,2.1883,0.0,0.0,2.1796,2.1987,2.2378,2.2891,2.2919,2.3144,2.3637,2.3841,2.3997,2.4194,2.4884,2.5382,2.5515,2.6122,2.6436,2.6436,2.6474,2.6452,2.6418,2.5664,2.5229,2.5123,2.4409,2.4492,2.5194,2.4445,2.4528,2.5123,2.3644,2.2964,2.2852,2.2111,2.1807,2.1769,2.1807,2.1807,2.1769,2.1807,2.1807,2.1807,1.5784,1.5784,1.5784,1.5784,1.5784,1.5784,1.5784,1.5784,1.5784,1.5784,1.5784,1.5879,1.6028,1.613,1.6319,1.665,1.6501,1.6318,1.6263,1.5951,1.5647,1.5445,1.5413,1.5389,1.5389,1.594,1.6788,1.7997,1.8527,1.9411,2.0595,1.9951,1.9541,1.9258,1.837,1.7817,1.7579,1.7579,1.7579,1.7613,1.7906,1.8008,1.8008,1.8202,1.8337,1.8448,1.8607,1.8808,1.8975,1.8975,1.9042,1.9108,1.9108,1.9108,1.9108,1.9108,1.9108,1.9108,1.9108,1.9108,1.9108,1.9108,1.9529,2.009,2.0741,2.1385,2.2084,2.2754,2.2822,2.275,2.2874,2.292,2.288,2.2724,0.0,2.3236,2.3021,2.3095,2.3276,2.3481,2.3505,2.3589,2.3782,2.4217,2.4579,2.4792,2.5466,2.598,2.6138,2.6373,2.6499,2.6499,2.6499,2.6499,2.6499,2.6211,2.5769,2.5312,2.5511,2.5476,2.5312,2.5511,2.5476,2.5276,2.4695,2.3863,2.2964,2.2665,2.2327,2.1949,2.1845,2.2176,2.2665,2.2035,2.2101,2.2478,1.5784,1.5784,1.5784,1.5784,1.5784,1.5784,1.5784,1.5879,1.5927,1.5927,1.6021,1.6116,1.6312,1.6414,1.6602,1.6979,1.6685,1.6436,1.6382,1.5987,1.5622,1.5396,1.5389,1.5548,1.5782,1.6378,1.7269,1.8407,1.9015,1.9736,2.0595,2.0117,1.9697,1.9268,1.8792,1.8373,1.8018,1.812,1.8178,1.8223,1.8419,1.8389,1.8306,1.858,1.8636,1.8617,1.8808,1.8975,1.9108,1.9108,1.9108,1.9108,1.9108,1.9108,1.9108,1.9108,1.9108,1.9108,1.9108,1.9131,1.9175,1.9175,1.9481,2.0015,2.0895,2.1467,2.202,2.2833,2.3113,2.3198,2.3289,2.3601,2.3793,2.3634,2.3821,2.3986,2.383,2.3806,2.3866,2.3989,2.4001,2.4107,2.4343,2.4852,2.5242,2.5425,2.5977,2.6339,2.6499,2.6499,2.6499,2.6499,2.6499,2.6499,2.6499,2.6499,2.6211,2.5664,2.6245,2.6211,2.5699,2.6245,2.6211,2.5664,2.5418,2.4695,2.368,2.3213,2.2777,2.2327,2.1959,2.2365,2.3113,2.244,2.2654,2.3239,1.5784,1.5784,1.5784,1.5784,1.5784,1.5784,1.5784,1.6028,1.6224,1.6224,1.6447,1.6588,1.6588,1.6831,1.6979,1.6979,1.6612,1.6411,1.6404,1.5774,1.5389,1.5389,1.5389,1.5824,1.6698,1.6698,1.7553,1.9301,1.9301,1.9736,2.0595,2.0117,1.9697,1.9268,1.8802,1.8373,1.8047,1.8432,1.8607,1.8682,1.9318,1.93,1.8949,1.9342,1.9206,1.8852,1.9042,1.9108,1.9108,1.9108,1.9108,1.9108,1.9108,1.9108,1.9108,1.9108,1.9108,1.9108,1.9108,1.9208,1.9318,1.9318,1.9318,1.966,2.0981,2.1312,2.1642,2.2768,2.3335,2.3714,2.4127,2.4538,2.4756,2.4546,2.4496,2.435,2.389,2.3818,2.3965,2.4436,2.4496,2.4804,2.5522,2.5793,2.598,2.6166,2.6396,2.6499,2.6499,2.6499,2.6499,2.6499,2.6499,2.6499,2.6499,2.6499,2.6499,2.6499,2.6499,2.6499,2.6499,2.6499,2.6499,2.6452,2.5664,2.5312,2.517,2.3655,2.3001,2.2927,2.2138,2.2327,2.3038,2.3001,2.3486,2.4011,1.5784,1.5784,1.5784,1.5784,1.5974,1.6076,1.6076,1.6305,1.6494,1.6494,1.6541,1.6683,1.6878,1.6932,1.698,1.6934,1.6616,1.6177,1.5738,1.5491,1.5389,1.5389,1.5389,1.5824,1.6698,1.7302,1.8158,1.9301,1.9893,2.0372,2.0605,2.0468,1.998,1.9297,1.9463,1.9095,1.8442,1.8906,1.9164,1.9318,1.9518,1.9597,1.962,1.989,1.9685,1.9322,1.9527,1.9378,1.9108,1.9108,1.9108,1.9108,1.9108,1.9108,1.9108,1.9108,1.9108,1.9108,1.9208,1.9285,1.9318,1.9318,1.9506,1.9993,2.1051,2.1417,2.1854,2.3183,2.353,2.3824,2.449,2.4718,2.4874,2.5037,2.5071,2.5023,2.4867,2.4843,2.4903,2.5059,2.5071,2.5214,2.5558,2.5793,2.598,2.6166,2.6396,2.6499,2.6499,2.6499,2.6499,2.6499,2.6499,2.6499,2.6499,2.6499,2.6499,2.6499,2.6499,2.6499,2.6499,2.6499,2.6499,2.6499,2.6245,2.5908,2.5464,2.4874,2.4443,2.4131,2.3768,2.4192,2.4969,2.424,2.4492,2.5016,1.5784,1.5784,1.5832,1.5933,1.6076,1.6224,1.6359,1.6595,1.6784,1.6784,1.6817,1.6965,1.7113,1.7113,1.7069,1.6932,1.6492,1.5972,1.5418,1.5389,1.5389,1.5389,1.5748,1.6304,1.7188,1.8078,1.8926,1.9814,2.0323,2.0605,2.0605,2.0752,2.0361,1.9561,1.998,1.9697,1.8926,1.9419,1.9715,1.9872,2.0199,2.0316,2.0265,2.0493,2.0185,1.962,1.9768,1.9502,1.9108,1.9108,1.9108,1.9108,1.9108,1.9108,1.9108,1.9108,1.9142,1.925,1.9538,1.9725,1.9868,2.0058,2.0131,2.044,2.1482,2.1805,2.2166,2.3143,2.3482,2.3787,2.4454,2.4682,2.4921,2.5241,2.5312,2.5312,2.5312,2.5312,2.5312,2.5312,2.5312,2.5418,2.5688,2.584,2.6015,2.6305,2.643,2.6499,2.6499,2.6499,2.6499,2.6499,2.6499,2.6499,2.6499,2.6499,2.6499,2.6499,2.6499,2.6499,2.6499,2.6499,2.6499,2.6499,2.6499,2.6302,2.5931,2.5581,2.5288,2.5028,2.466,2.5087,2.5802,2.5193,2.5452,2.6035,1.5832,1.5832,1.5927,1.617,1.6272,1.6359,1.6588,1.6878,1.7026,1.7026,1.72,1.7279,1.7279,1.7279,1.7186,1.6888,1.6235,1.5745,1.5411,1.5389,1.5389,1.5389,1.6304,1.718,1.7997,1.8856,1.9736,2.0605,2.0605,2.0625,2.0674,2.1045,2.0761,2.0049,2.0449,2.0204,1.946,2.0029,2.0262,2.0377,2.1176,2.1257,2.0927,2.1102,2.0638,1.9917,1.9865,1.9554,1.916,1.9119,1.9108,1.9108,1.9108,1.9108,1.9108,1.9183,1.9271,1.9509,2.0073,2.0439,2.0773,2.1258,2.1077,2.1015,2.2081,2.2313,2.2444,2.2977,2.3409,2.3787,2.4225,2.4598,2.4957,2.5241,2.5312,2.5312,2.5312,2.5312,2.5312,2.5312,2.5312,2.5453,2.5875,2.5945,2.6119,2.6452,2.6499,2.6499,2.6499,2.6499,2.6499,2.6499,2.6499,2.6499,2.6499,2.6499,2.6499,2.6499,2.6499,2.6499,2.6499,2.6499,2.6499,2.6499,2.6499,2.6533,2.6487,2.5965,2.5744,2.5697,2.5146,2.5345,2.5928,2.5928,2.6414,2.6909,1.6076,1.6123,1.6218,1.6447,1.669,1.6838,1.6885,1.7106,1.7239,1.7239,1.7286,1.7279,1.7279,1.7279,1.7099,1.6573,1.5899,1.5462,1.5389,1.5389,1.5389,1.5389,1.687,1.7796,1.7997,1.8856,1.9736,2.0605,2.0605,2.0742,2.1094,2.1151,2.1093,2.0917,2.1005,2.0879,2.0552,2.0679,2.0939,2.1245,2.1423,2.1517,2.1576,2.1614,2.1311,2.0772,2.041,1.9996,1.9585,1.9222,1.9108,1.9108,1.9108,1.9108,1.9204,1.9737,1.991,2.0094,2.0847,2.1081,2.1304,2.1933,2.2012,2.199,2.2233,2.2313,2.2589,2.3722,2.4007,2.425,2.4921,2.5135,2.5206,2.5276,2.5312,2.5312,2.5312,2.5312,2.5312,2.5312,2.5312,2.5453,2.5875,2.6188,2.6396,2.6499,2.6499,2.6499,2.6499,2.6499,2.6499,2.6499,2.6499,2.6499,2.6499,2.6499,2.6499,2.6499,2.6499,2.6499,2.6499,2.6499,2.6499,2.6499,2.6624,2.676,2.6875,2.676,2.6782,2.6918,2.6803,2.6837,2.6973,2.6973,2.7087,2.7201,1.6359,1.64,1.6501,1.6737,1.6925,1.7026,1.7106,1.7239,1.7279,1.7279,1.7279,1.7279,1.7279,1.7279,1.7069,1.647,1.5796,1.5389,1.5389,1.5389,1.559,1.5982,1.6903,1.7755,1.8607,1.9236,2.0026,2.0889,2.0889,2.1113,2.1553,2.1748,2.1738,2.1553,2.1881,2.1697,2.1213,2.141,2.1513,2.1502,2.1617,2.1693,2.1807,2.1807,2.1518,2.1052,2.055,1.9996,1.943,1.9181,1.9108,1.9108,1.9108,1.932,1.9651,1.9994,2.0363,2.0823,2.146,2.1707,2.1908,2.2484,2.2641,2.2677,2.2871,2.2907,2.3156,2.4034,2.42,2.437,2.4945,2.5052,2.5111,2.5276,2.5312,2.5312,2.5312,2.5312,2.5312,2.5312,2.5382,2.5606,2.598,2.6327,2.6499,2.6499,2.6499,2.6499,2.6499,2.6499,2.6499,2.6499,2.6499,2.6499,2.6499,2.6499,2.6499,2.6499,2.6499,2.6499,2.6499,2.6499,2.6521,2.6589,2.6692,2.6794,2.7024,2.7113,2.7214,2.7302,2.7369,2.7403,2.7403,2.7403,2.7403,2.7403,1.6636,1.6683,1.673,1.7019,1.7073,1.7113,1.7286,1.7279,1.7279,1.7279,1.7279,1.7279,1.7279,1.723,1.6945,1.6463,1.5796,1.5389,1.5389,1.5389,1.5707,1.646,1.6739,1.7619,1.9154,1.9804,2.0476,2.119,2.1268,2.1572,2.2002,2.2396,2.2415,2.2203,2.274,2.2536,2.1879,2.2088,2.2011,2.1691,2.1762,2.1807,2.1807,2.1807,2.1569,2.1155,2.0581,1.9841,1.9108,1.9108,1.9108,1.9119,1.9225,1.9651,2.0133,2.036,2.0898,2.1517,2.2017,2.2302,2.2521,2.2903,2.3001,2.3113,2.3519,2.3593,2.3751,2.42,2.4309,2.4418,2.4825,2.4897,2.4992,2.5241,2.5312,2.5312,2.5312,2.5312,2.5312,2.5312,2.55,2.5793,2.6166,2.6361,2.6499,2.6499,2.6499,2.6499,2.6499,2.6499,2.6499,2.6499,2.6499,2.6499,2.6499,2.6499,2.6499,2.6499,2.6499,2.6499,2.6499,2.6499,2.6555,2.6679,2.6726,2.6863,2.7079,2.7268,2.7335,2.7335,2.7469,2.749,2.749,2.749,2.749,2.749,1.6885,1.6932,1.7019,1.7239,1.7239,1.7286,1.7279,1.7279,1.7279,1.7279,1.7279,1.7279,1.7279,1.6828,1.6507,1.6419,1.5796,1.5389,1.5389,1.5389,1.5465,1.559,1.7033,1.8111,1.8674,2.0236,2.107,2.119,2.1611,2.2012,2.2432,2.2702,2.2985,2.3272,2.321,2.321,2.3163,2.2472,2.2273,2.2327,2.1963,2.1807,2.1807,2.1807,2.1766,2.16,2.0695,1.9841,1.9108,1.9108,1.9108,1.9204,1.9779,2.0015,2.0329,2.1407,2.1804,2.2038,2.2698,2.2866,2.2925,2.299,2.3001,2.3113,2.3519,2.3593,2.3824,2.4574,2.4718,2.4814,2.5182,2.5241,2.5241,2.5276,2.5312,2.5312,2.5312,2.5312,2.5312,2.5312,2.5641,2.5945,2.6166,2.6361,2.6499,2.6499,2.6499,2.6499,2.6499,2.6499,2.6499,2.6499,2.6499,2.6499,2.6499,2.6499,2.6499,2.6499,2.6499,2.6499,2.6499,2.6499,2.6555,2.6714,2.6875,2.7079,2.7268,2.7403,2.7469,2.7469,2.749,2.749,2.749,2.749,2.749,2.749,1.7106,1.7153,1.72,1.7279,1.7279,1.7279,1.7279,1.7279,1.7279,1.7279,1.7279,1.7279,1.7279,1.6755,1.6411,1.6411,1.5796,1.5389,1.5389,1.5865,1.6231,1.6423,1.7117,1.8195,1.9585,2.0153,2.0997,2.216,2.2232,2.2536,2.3044,2.3173,2.3411,2.3667,2.3735,2.3683,2.3492,2.3238,2.2897,2.248,2.2273,2.2035,2.1807,2.1807,2.1807,2.1683,2.0762,1.9841,1.9139,1.9409,1.956,1.9735,2.0264,2.0755,2.1264,2.1826,2.2284,2.2618,2.2909,2.3001,2.3001,2.3001,2.3001,2.315,2.3787,2.3934,2.4091,2.4682,2.4957,2.5111,2.5276,2.5312,2.5312,2.5312,2.5312,2.5312,2.5312,2.5312,2.5382,2.5606,2.5793,2.6015,2.6339,2.6465,2.6499,2.6499,2.6499,2.6499,2.6499,2.6499,2.6499,2.6499,2.6499,2.6499,2.6499,2.6499,2.6499,2.6499,2.6499,2.6499,2.6499,2.6499,2.6636,2.6863,2.6943,2.7146,2.7436,2.7503,2.749,2.749,2.749,2.749,2.749,2.749,2.749,2.749]}]]